<?xml version="1.0" encoding="utf-8"?>
<gpx xmlns:xsi="http://www.w3.org/2001/XMLSchema-instance" xmlns:xsd="http://www.w3.org/2001/XMLSchema" version="1.1" creator="Shapelink.com" xmlns="http://www.topografix.com/GPX/1/1" xmlns:gpxtpx="http://www.garmin.com/xmlschemas/TrackPointExtension/v1">
  <metadata>
    <name>Løping 5.00 km, 2014-06-29</name>
    <desc></desc>
    <author><name>Mikael Blom</name></author> 
    <time>2014-06-29T10:30:19Z</time>
  </metadata>
  <trk>
    <name>Løping 5.00 km, 2014-06-29</name>
    <trkseg>
      <trkpt lat="59.8534756" lon="17.6422641">
        <ele>2.54065</ele>
        <time>2014-06-29T10:30:19Z</time>
      </trkpt>
      <trkpt lat="59.853464" lon="17.6422833">
        <ele>1.57935</ele>
        <time>2014-06-29T10:30:20Z</time>
      </trkpt>
      <trkpt lat="59.8534517" lon="17.6423139">
        <ele>0.618042</ele>
        <time>2014-06-29T10:30:21Z</time>
      </trkpt>
      <trkpt lat="59.8534341" lon="17.642351">
        <ele>0</ele>
        <time>2014-06-29T10:30:22Z</time>
      </trkpt>
      <trkpt lat="59.853411" lon="17.6423885">
        <ele>0</ele>
        <time>2014-06-29T10:30:23Z</time>
      </trkpt>
      <trkpt lat="59.8533923" lon="17.6424311">
        <ele>0</ele>
        <time>2014-06-29T10:30:24Z</time>
      </trkpt>
      <trkpt lat="59.8533711" lon="17.6424725">
        <ele>0</ele>
        <time>2014-06-29T10:30:25Z</time>
      </trkpt>
      <trkpt lat="59.8533507" lon="17.6425154">
        <ele>0</ele>
        <time>2014-06-29T10:30:26Z</time>
      </trkpt>
      <trkpt lat="59.8533288" lon="17.6425551">
        <ele>0</ele>
        <time>2014-06-29T10:30:27Z</time>
      </trkpt>
      <trkpt lat="59.8533043" lon="17.6425891">
        <ele>0</ele>
        <time>2014-06-29T10:30:28Z</time>
      </trkpt>
      <trkpt lat="59.8532845" lon="17.6426216">
        <ele>0</ele>
        <time>2014-06-29T10:30:29Z</time>
      </trkpt>
      <trkpt lat="59.8532652" lon="17.642651">
        <ele>0</ele>
        <time>2014-06-29T10:30:30Z</time>
      </trkpt>
      <trkpt lat="59.8532498" lon="17.6426836">
        <ele>0</ele>
        <time>2014-06-29T10:30:31Z</time>
      </trkpt>
      <trkpt lat="59.8532369" lon="17.6427346">
        <ele>0</ele>
        <time>2014-06-29T10:30:32Z</time>
      </trkpt>
      <trkpt lat="59.8532086" lon="17.6427864">
        <ele>0</ele>
        <time>2014-06-29T10:30:33Z</time>
      </trkpt>
      <trkpt lat="59.8531775" lon="17.6428362">
        <ele>0</ele>
        <time>2014-06-29T10:30:34Z</time>
      </trkpt>
      <trkpt lat="59.8531482" lon="17.6428811">
        <ele>0</ele>
        <time>2014-06-29T10:30:35Z</time>
      </trkpt>
      <trkpt lat="59.8531232" lon="17.6429274">
        <ele>0</ele>
        <time>2014-06-29T10:30:36Z</time>
      </trkpt>
      <trkpt lat="59.8530911" lon="17.6429696">
        <ele>0</ele>
        <time>2014-06-29T10:30:37Z</time>
      </trkpt>
      <trkpt lat="59.8530638" lon="17.643004">
        <ele>0</ele>
        <time>2014-06-29T10:30:38Z</time>
      </trkpt>
      <trkpt lat="59.8530406" lon="17.6430533">
        <ele>0</ele>
        <time>2014-06-29T10:30:39Z</time>
      </trkpt>
      <trkpt lat="59.8530136" lon="17.6430997">
        <ele>0</ele>
        <time>2014-06-29T10:30:40Z</time>
      </trkpt>
      <trkpt lat="59.8529851" lon="17.6431355">
        <ele>0</ele>
        <time>2014-06-29T10:30:41Z</time>
      </trkpt>
      <trkpt lat="59.8529518" lon="17.6431754">
        <ele>0</ele>
        <time>2014-06-29T10:30:42Z</time>
      </trkpt>
      <trkpt lat="59.8529196" lon="17.6432147">
        <ele>0</ele>
        <time>2014-06-29T10:30:43Z</time>
      </trkpt>
      <trkpt lat="59.8528886" lon="17.6432522">
        <ele>0</ele>
        <time>2014-06-29T10:30:44Z</time>
      </trkpt>
      <trkpt lat="59.8528593" lon="17.643292">
        <ele>0</ele>
        <time>2014-06-29T10:30:45Z</time>
      </trkpt>
      <trkpt lat="59.8528369" lon="17.6433236">
        <ele>0</ele>
        <time>2014-06-29T10:30:46Z</time>
      </trkpt>
      <trkpt lat="59.8528208" lon="17.6433607">
        <ele>0</ele>
        <time>2014-06-29T10:30:47Z</time>
      </trkpt>
      <trkpt lat="59.8528017" lon="17.6433867">
        <ele>0</ele>
        <time>2014-06-29T10:30:48Z</time>
      </trkpt>
      <trkpt lat="59.852779" lon="17.643422">
        <ele>0</ele>
        <time>2014-06-29T10:30:49Z</time>
      </trkpt>
      <trkpt lat="59.8527476" lon="17.6434529">
        <ele>0</ele>
        <time>2014-06-29T10:30:50Z</time>
      </trkpt>
      <trkpt lat="59.8527203" lon="17.6434933">
        <ele>0</ele>
        <time>2014-06-29T10:30:51Z</time>
      </trkpt>
      <trkpt lat="59.8526872" lon="17.6435397">
        <ele>0</ele>
        <time>2014-06-29T10:30:52Z</time>
      </trkpt>
      <trkpt lat="59.8526552" lon="17.6435728">
        <ele>0</ele>
        <time>2014-06-29T10:30:53Z</time>
      </trkpt>
      <trkpt lat="59.8526295" lon="17.6436043">
        <ele>0</ele>
        <time>2014-06-29T10:30:54Z</time>
      </trkpt>
      <trkpt lat="59.8526023" lon="17.6436384">
        <ele>0</ele>
        <time>2014-06-29T10:30:55Z</time>
      </trkpt>
      <trkpt lat="59.8525712" lon="17.6436798">
        <ele>0</ele>
        <time>2014-06-29T10:30:56Z</time>
      </trkpt>
      <trkpt lat="59.8525384" lon="17.6437193">
        <ele>0</ele>
        <time>2014-06-29T10:30:57Z</time>
      </trkpt>
      <trkpt lat="59.8525079" lon="17.6437603">
        <ele>0</ele>
        <time>2014-06-29T10:30:58Z</time>
      </trkpt>
      <trkpt lat="59.8524753" lon="17.6437991">
        <ele>0</ele>
        <time>2014-06-29T10:30:59Z</time>
      </trkpt>
      <trkpt lat="59.8524482" lon="17.643839">
        <ele>0</ele>
        <time>2014-06-29T10:31:00Z</time>
      </trkpt>
      <trkpt lat="59.8524229" lon="17.6438759">
        <ele>0</ele>
        <time>2014-06-29T10:31:01Z</time>
      </trkpt>
      <trkpt lat="59.8523956" lon="17.6439097">
        <ele>0</ele>
        <time>2014-06-29T10:31:02Z</time>
      </trkpt>
      <trkpt lat="59.8523695" lon="17.6439446">
        <ele>0</ele>
        <time>2014-06-29T10:31:03Z</time>
      </trkpt>
      <trkpt lat="59.852351" lon="17.6439672">
        <ele>0</ele>
        <time>2014-06-29T10:31:04Z</time>
      </trkpt>
      <trkpt lat="59.8523318" lon="17.6439903">
        <ele>0</ele>
        <time>2014-06-29T10:31:05Z</time>
      </trkpt>
      <trkpt lat="59.852309" lon="17.64401">
        <ele>0</ele>
        <time>2014-06-29T10:31:06Z</time>
      </trkpt>
      <trkpt lat="59.8522825" lon="17.6440389">
        <ele>0</ele>
        <time>2014-06-29T10:31:07Z</time>
      </trkpt>
      <trkpt lat="59.8522519" lon="17.6440767">
        <ele>0</ele>
        <time>2014-06-29T10:31:08Z</time>
      </trkpt>
      <trkpt lat="59.8522234" lon="17.6441147">
        <ele>0</ele>
        <time>2014-06-29T10:31:09Z</time>
      </trkpt>
      <trkpt lat="59.8521992" lon="17.644139">
        <ele>0</ele>
        <time>2014-06-29T10:31:10Z</time>
      </trkpt>
      <trkpt lat="59.8521745" lon="17.6441679">
        <ele>0</ele>
        <time>2014-06-29T10:31:11Z</time>
      </trkpt>
      <trkpt lat="59.8521526" lon="17.6441867">
        <ele>0</ele>
        <time>2014-06-29T10:31:12Z</time>
      </trkpt>
      <trkpt lat="59.8521301" lon="17.6442122">
        <ele>0</ele>
        <time>2014-06-29T10:31:13Z</time>
      </trkpt>
      <trkpt lat="59.852107" lon="17.6442459">
        <ele>0</ele>
        <time>2014-06-29T10:31:14Z</time>
      </trkpt>
      <trkpt lat="59.8520857" lon="17.6442843">
        <ele>0</ele>
        <time>2014-06-29T10:31:15Z</time>
      </trkpt>
      <trkpt lat="59.8520666" lon="17.6443088">
        <ele>0</ele>
        <time>2014-06-29T10:31:16Z</time>
      </trkpt>
      <trkpt lat="59.8520402" lon="17.6443418">
        <ele>0</ele>
        <time>2014-06-29T10:31:17Z</time>
      </trkpt>
      <trkpt lat="59.8520129" lon="17.6443757">
        <ele>0</ele>
        <time>2014-06-29T10:31:18Z</time>
      </trkpt>
      <trkpt lat="59.8519859" lon="17.6444115">
        <ele>0</ele>
        <time>2014-06-29T10:31:19Z</time>
      </trkpt>
      <trkpt lat="59.8519603" lon="17.6444497">
        <ele>0</ele>
        <time>2014-06-29T10:31:20Z</time>
      </trkpt>
      <trkpt lat="59.8519315" lon="17.6444788">
        <ele>0</ele>
        <time>2014-06-29T10:31:21Z</time>
      </trkpt>
      <trkpt lat="59.8519085" lon="17.6445111">
        <ele>0</ele>
        <time>2014-06-29T10:31:22Z</time>
      </trkpt>
      <trkpt lat="59.8518861" lon="17.6445371">
        <ele>0</ele>
        <time>2014-06-29T10:31:23Z</time>
      </trkpt>
      <trkpt lat="59.851859" lon="17.6445689">
        <ele>0</ele>
        <time>2014-06-29T10:31:24Z</time>
      </trkpt>
      <trkpt lat="59.8518293" lon="17.6446044">
        <ele>0</ele>
        <time>2014-06-29T10:31:25Z</time>
      </trkpt>
      <trkpt lat="59.8518012" lon="17.6446397">
        <ele>0</ele>
        <time>2014-06-29T10:31:26Z</time>
      </trkpt>
      <trkpt lat="59.8517765" lon="17.6446614">
        <ele>0</ele>
        <time>2014-06-29T10:31:27Z</time>
      </trkpt>
      <trkpt lat="59.851753" lon="17.6446813">
        <ele>0</ele>
        <time>2014-06-29T10:31:28Z</time>
      </trkpt>
      <trkpt lat="59.8517288" lon="17.6446977">
        <ele>0</ele>
        <time>2014-06-29T10:31:29Z</time>
      </trkpt>
      <trkpt lat="59.851703" lon="17.6447197">
        <ele>0</ele>
        <time>2014-06-29T10:31:30Z</time>
      </trkpt>
      <trkpt lat="59.851678" lon="17.644751">
        <ele>0</ele>
        <time>2014-06-29T10:31:31Z</time>
      </trkpt>
      <trkpt lat="59.8516538" lon="17.6447817">
        <ele>0</ele>
        <time>2014-06-29T10:31:32Z</time>
      </trkpt>
      <trkpt lat="59.8516277" lon="17.6448179">
        <ele>0</ele>
        <time>2014-06-29T10:31:33Z</time>
      </trkpt>
      <trkpt lat="59.8516024" lon="17.6448585">
        <ele>0</ele>
        <time>2014-06-29T10:31:34Z</time>
      </trkpt>
      <trkpt lat="59.8515755" lon="17.644889">
        <ele>0</ele>
        <time>2014-06-29T10:31:35Z</time>
      </trkpt>
      <trkpt lat="59.8515491" lon="17.6449121">
        <ele>0</ele>
        <time>2014-06-29T10:31:36Z</time>
      </trkpt>
      <trkpt lat="59.8515201" lon="17.6449386">
        <ele>0</ele>
        <time>2014-06-29T10:31:37Z</time>
      </trkpt>
      <trkpt lat="59.8514926" lon="17.6449624">
        <ele>0</ele>
        <time>2014-06-29T10:31:38Z</time>
      </trkpt>
      <trkpt lat="59.8514705" lon="17.6449983">
        <ele>0</ele>
        <time>2014-06-29T10:31:39Z</time>
      </trkpt>
      <trkpt lat="59.8514445" lon="17.6450361">
        <ele>0</ele>
        <time>2014-06-29T10:31:40Z</time>
      </trkpt>
      <trkpt lat="59.8514149" lon="17.6450614">
        <ele>0</ele>
        <time>2014-06-29T10:31:41Z</time>
      </trkpt>
      <trkpt lat="59.8513896" lon="17.6450822">
        <ele>0</ele>
        <time>2014-06-29T10:31:42Z</time>
      </trkpt>
      <trkpt lat="59.8513643" lon="17.6451107">
        <ele>0</ele>
        <time>2014-06-29T10:31:43Z</time>
      </trkpt>
      <trkpt lat="59.8513388" lon="17.645136">
        <ele>0</ele>
        <time>2014-06-29T10:31:44Z</time>
      </trkpt>
      <trkpt lat="59.8513088" lon="17.6451718">
        <ele>0</ele>
        <time>2014-06-29T10:31:45Z</time>
      </trkpt>
      <trkpt lat="59.8512767" lon="17.6452001">
        <ele>0</ele>
        <time>2014-06-29T10:31:46Z</time>
      </trkpt>
      <trkpt lat="59.8512456" lon="17.6452241">
        <ele>0</ele>
        <time>2014-06-29T10:31:47Z</time>
      </trkpt>
      <trkpt lat="59.851216" lon="17.6452369">
        <ele>0</ele>
        <time>2014-06-29T10:31:48Z</time>
      </trkpt>
      <trkpt lat="59.8511871" lon="17.6452537">
        <ele>0</ele>
        <time>2014-06-29T10:31:49Z</time>
      </trkpt>
      <trkpt lat="59.8511584" lon="17.6452711">
        <ele>0</ele>
        <time>2014-06-29T10:31:50Z</time>
      </trkpt>
      <trkpt lat="59.8511312" lon="17.6452721">
        <ele>0</ele>
        <time>2014-06-29T10:31:51Z</time>
      </trkpt>
      <trkpt lat="59.8511067" lon="17.6452859">
        <ele>0</ele>
        <time>2014-06-29T10:31:52Z</time>
      </trkpt>
      <trkpt lat="59.851086" lon="17.6453096">
        <ele>0</ele>
        <time>2014-06-29T10:31:53Z</time>
      </trkpt>
      <trkpt lat="59.8510621" lon="17.6453313">
        <ele>0</ele>
        <time>2014-06-29T10:31:54Z</time>
      </trkpt>
      <trkpt lat="59.8510373" lon="17.6453417">
        <ele>0</ele>
        <time>2014-06-29T10:31:55Z</time>
      </trkpt>
      <trkpt lat="59.8510114" lon="17.6453542">
        <ele>0</ele>
        <time>2014-06-29T10:31:56Z</time>
      </trkpt>
      <trkpt lat="59.850985" lon="17.6453778">
        <ele>0</ele>
        <time>2014-06-29T10:31:57Z</time>
      </trkpt>
      <trkpt lat="59.8509581" lon="17.6454054">
        <ele>0</ele>
        <time>2014-06-29T10:31:58Z</time>
      </trkpt>
      <trkpt lat="59.8509306" lon="17.6454242">
        <ele>0</ele>
        <time>2014-06-29T10:31:59Z</time>
      </trkpt>
      <trkpt lat="59.8509056" lon="17.6454375">
        <ele>0</ele>
        <time>2014-06-29T10:32:00Z</time>
      </trkpt>
      <trkpt lat="59.8508836" lon="17.6454534">
        <ele>0</ele>
        <time>2014-06-29T10:32:01Z</time>
      </trkpt>
      <trkpt lat="59.8508607" lon="17.6454613">
        <ele>0</ele>
        <time>2014-06-29T10:32:02Z</time>
      </trkpt>
      <trkpt lat="59.8508405" lon="17.6454702">
        <ele>0</ele>
        <time>2014-06-29T10:32:03Z</time>
      </trkpt>
      <trkpt lat="59.8508198" lon="17.6454798">
        <ele>0</ele>
        <time>2014-06-29T10:32:04Z</time>
      </trkpt>
      <trkpt lat="59.8507991" lon="17.6454971">
        <ele>0</ele>
        <time>2014-06-29T10:32:05Z</time>
      </trkpt>
      <trkpt lat="59.8507805" lon="17.6455207">
        <ele>0</ele>
        <time>2014-06-29T10:32:06Z</time>
      </trkpt>
      <trkpt lat="59.8507582" lon="17.64555">
        <ele>0</ele>
        <time>2014-06-29T10:32:07Z</time>
      </trkpt>
      <trkpt lat="59.8507372" lon="17.6455791">
        <ele>0</ele>
        <time>2014-06-29T10:32:08Z</time>
      </trkpt>
      <trkpt lat="59.8507187" lon="17.6456011">
        <ele>0</ele>
        <time>2014-06-29T10:32:09Z</time>
      </trkpt>
      <trkpt lat="59.8507005" lon="17.6456277">
        <ele>0</ele>
        <time>2014-06-29T10:32:10Z</time>
      </trkpt>
      <trkpt lat="59.8506783" lon="17.6456534">
        <ele>0</ele>
        <time>2014-06-29T10:32:11Z</time>
      </trkpt>
      <trkpt lat="59.850655" lon="17.6456767">
        <ele>0</ele>
        <time>2014-06-29T10:32:12Z</time>
      </trkpt>
      <trkpt lat="59.8506284" lon="17.6457048">
        <ele>0</ele>
        <time>2014-06-29T10:32:13Z</time>
      </trkpt>
      <trkpt lat="59.8506058" lon="17.6457395">
        <ele>0</ele>
        <time>2014-06-29T10:32:14Z</time>
      </trkpt>
      <trkpt lat="59.850583" lon="17.6457738">
        <ele>0</ele>
        <time>2014-06-29T10:32:15Z</time>
      </trkpt>
      <trkpt lat="59.8505597" lon="17.6458012">
        <ele>0</ele>
        <time>2014-06-29T10:32:16Z</time>
      </trkpt>
      <trkpt lat="59.8505344" lon="17.6458253">
        <ele>0</ele>
        <time>2014-06-29T10:32:17Z</time>
      </trkpt>
      <trkpt lat="59.8505104" lon="17.6458634">
        <ele>0</ele>
        <time>2014-06-29T10:32:18Z</time>
      </trkpt>
      <trkpt lat="59.8504836" lon="17.6458996">
        <ele>0</ele>
        <time>2014-06-29T10:32:19Z</time>
      </trkpt>
      <trkpt lat="59.8504565" lon="17.6459377">
        <ele>0</ele>
        <time>2014-06-29T10:32:20Z</time>
      </trkpt>
      <trkpt lat="59.8504307" lon="17.6459628">
        <ele>0</ele>
        <time>2014-06-29T10:32:21Z</time>
      </trkpt>
      <trkpt lat="59.85041" lon="17.6459864">
        <ele>0</ele>
        <time>2014-06-29T10:32:22Z</time>
      </trkpt>
      <trkpt lat="59.8503857" lon="17.6460163">
        <ele>0</ele>
        <time>2014-06-29T10:32:23Z</time>
      </trkpt>
      <trkpt lat="59.8503649" lon="17.6460587">
        <ele>0</ele>
        <time>2014-06-29T10:32:24Z</time>
      </trkpt>
      <trkpt lat="59.850344" lon="17.6460918">
        <ele>0</ele>
        <time>2014-06-29T10:32:25Z</time>
      </trkpt>
      <trkpt lat="59.8503262" lon="17.6461247">
        <ele>0</ele>
        <time>2014-06-29T10:32:26Z</time>
      </trkpt>
      <trkpt lat="59.8503059" lon="17.6461491">
        <ele>0</ele>
        <time>2014-06-29T10:32:27Z</time>
      </trkpt>
      <trkpt lat="59.850282" lon="17.646176">
        <ele>0</ele>
        <time>2014-06-29T10:32:28Z</time>
      </trkpt>
      <trkpt lat="59.8502527" lon="17.6461944">
        <ele>0</ele>
        <time>2014-06-29T10:32:29Z</time>
      </trkpt>
      <trkpt lat="59.8502277" lon="17.6462146">
        <ele>0</ele>
        <time>2014-06-29T10:32:30Z</time>
      </trkpt>
      <trkpt lat="59.8502013" lon="17.6462307">
        <ele>0</ele>
        <time>2014-06-29T10:32:31Z</time>
      </trkpt>
      <trkpt lat="59.8501775" lon="17.6462399">
        <ele>0</ele>
        <time>2014-06-29T10:32:32Z</time>
      </trkpt>
      <trkpt lat="59.8501536" lon="17.6462465">
        <ele>0</ele>
        <time>2014-06-29T10:32:33Z</time>
      </trkpt>
      <trkpt lat="59.8501282" lon="17.6462544">
        <ele>0</ele>
        <time>2014-06-29T10:32:34Z</time>
      </trkpt>
      <trkpt lat="59.8501042" lon="17.6462772">
        <ele>0</ele>
        <time>2014-06-29T10:32:35Z</time>
      </trkpt>
      <trkpt lat="59.8500831" lon="17.6463056">
        <ele>0</ele>
        <time>2014-06-29T10:32:36Z</time>
      </trkpt>
      <trkpt lat="59.8500584" lon="17.6463201">
        <ele>0</ele>
        <time>2014-06-29T10:32:37Z</time>
      </trkpt>
      <trkpt lat="59.8500381" lon="17.6463388">
        <ele>0</ele>
        <time>2014-06-29T10:32:38Z</time>
      </trkpt>
      <trkpt lat="59.850017" lon="17.6463653">
        <ele>0</ele>
        <time>2014-06-29T10:32:39Z</time>
      </trkpt>
      <trkpt lat="59.849993" lon="17.6463907">
        <ele>0</ele>
        <time>2014-06-29T10:32:40Z</time>
      </trkpt>
      <trkpt lat="59.8499691" lon="17.6464151">
        <ele>0</ele>
        <time>2014-06-29T10:32:41Z</time>
      </trkpt>
      <trkpt lat="59.8499441" lon="17.6464447">
        <ele>0</ele>
        <time>2014-06-29T10:32:42Z</time>
      </trkpt>
      <trkpt lat="59.8499185" lon="17.6464788">
        <ele>0</ele>
        <time>2014-06-29T10:32:43Z</time>
      </trkpt>
      <trkpt lat="59.8498946" lon="17.6465017">
        <ele>0</ele>
        <time>2014-06-29T10:32:44Z</time>
      </trkpt>
      <trkpt lat="59.8498691" lon="17.6465243">
        <ele>0</ele>
        <time>2014-06-29T10:32:45Z</time>
      </trkpt>
      <trkpt lat="59.8498418" lon="17.6465456">
        <ele>0</ele>
        <time>2014-06-29T10:32:46Z</time>
      </trkpt>
      <trkpt lat="59.8498162" lon="17.6465694">
        <ele>0</ele>
        <time>2014-06-29T10:32:47Z</time>
      </trkpt>
      <trkpt lat="59.8497921" lon="17.6465958">
        <ele>0</ele>
        <time>2014-06-29T10:32:48Z</time>
      </trkpt>
      <trkpt lat="59.8497755" lon="17.6466263">
        <ele>0</ele>
        <time>2014-06-29T10:32:49Z</time>
      </trkpt>
      <trkpt lat="59.8497633" lon="17.646647">
        <ele>0</ele>
        <time>2014-06-29T10:32:50Z</time>
      </trkpt>
      <trkpt lat="59.8497423" lon="17.6466721">
        <ele>0</ele>
        <time>2014-06-29T10:32:51Z</time>
      </trkpt>
      <trkpt lat="59.8497138" lon="17.6466941">
        <ele>0</ele>
        <time>2014-06-29T10:32:52Z</time>
      </trkpt>
      <trkpt lat="59.8496865" lon="17.6467153">
        <ele>0</ele>
        <time>2014-06-29T10:32:53Z</time>
      </trkpt>
      <trkpt lat="59.8496603" lon="17.6467321">
        <ele>0</ele>
        <time>2014-06-29T10:32:54Z</time>
      </trkpt>
      <trkpt lat="59.8496346" lon="17.6467388">
        <ele>0</ele>
        <time>2014-06-29T10:32:55Z</time>
      </trkpt>
      <trkpt lat="59.8496122" lon="17.6467543">
        <ele>0</ele>
        <time>2014-06-29T10:32:56Z</time>
      </trkpt>
      <trkpt lat="59.8495914" lon="17.6467743">
        <ele>0</ele>
        <time>2014-06-29T10:32:57Z</time>
      </trkpt>
      <trkpt lat="59.8495683" lon="17.6467958">
        <ele>0</ele>
        <time>2014-06-29T10:32:58Z</time>
      </trkpt>
      <trkpt lat="59.8495444" lon="17.646823">
        <ele>0</ele>
        <time>2014-06-29T10:32:59Z</time>
      </trkpt>
      <trkpt lat="59.8495154" lon="17.6468444">
        <ele>0</ele>
        <time>2014-06-29T10:33:00Z</time>
      </trkpt>
      <trkpt lat="59.8494863" lon="17.6468681">
        <ele>0</ele>
        <time>2014-06-29T10:33:01Z</time>
      </trkpt>
      <trkpt lat="59.8494591" lon="17.6468942">
        <ele>0</ele>
        <time>2014-06-29T10:33:02Z</time>
      </trkpt>
      <trkpt lat="59.8494329" lon="17.6469206">
        <ele>0</ele>
        <time>2014-06-29T10:33:03Z</time>
      </trkpt>
      <trkpt lat="59.8494108" lon="17.6469447">
        <ele>0</ele>
        <time>2014-06-29T10:33:04Z</time>
      </trkpt>
      <trkpt lat="59.8493921" lon="17.6469734">
        <ele>0</ele>
        <time>2014-06-29T10:33:05Z</time>
      </trkpt>
      <trkpt lat="59.8493679" lon="17.6469948">
        <ele>0</ele>
        <time>2014-06-29T10:33:06Z</time>
      </trkpt>
      <trkpt lat="59.8493388" lon="17.6470136">
        <ele>0</ele>
        <time>2014-06-29T10:33:07Z</time>
      </trkpt>
      <trkpt lat="59.8493116" lon="17.6470262">
        <ele>0</ele>
        <time>2014-06-29T10:33:08Z</time>
      </trkpt>
      <trkpt lat="59.8492891" lon="17.6470561">
        <ele>0</ele>
        <time>2014-06-29T10:33:09Z</time>
      </trkpt>
      <trkpt lat="59.8492683" lon="17.6470988">
        <ele>0</ele>
        <time>2014-06-29T10:33:10Z</time>
      </trkpt>
      <trkpt lat="59.8492486" lon="17.6471374">
        <ele>0</ele>
        <time>2014-06-29T10:33:11Z</time>
      </trkpt>
      <trkpt lat="59.8492278" lon="17.6471691">
        <ele>0</ele>
        <time>2014-06-29T10:33:12Z</time>
      </trkpt>
      <trkpt lat="59.8492062" lon="17.6471982">
        <ele>0</ele>
        <time>2014-06-29T10:33:13Z</time>
      </trkpt>
      <trkpt lat="59.8491828" lon="17.647247">
        <ele>0</ele>
        <time>2014-06-29T10:33:14Z</time>
      </trkpt>
      <trkpt lat="59.8491611" lon="17.64728">
        <ele>0</ele>
        <time>2014-06-29T10:33:15Z</time>
      </trkpt>
      <trkpt lat="59.8491429" lon="17.6473033">
        <ele>0</ele>
        <time>2014-06-29T10:33:16Z</time>
      </trkpt>
      <trkpt lat="59.8491207" lon="17.6473299">
        <ele>0</ele>
        <time>2014-06-29T10:33:17Z</time>
      </trkpt>
      <trkpt lat="59.849098" lon="17.6473604">
        <ele>0</ele>
        <time>2014-06-29T10:33:18Z</time>
      </trkpt>
      <trkpt lat="59.8490757" lon="17.6473899">
        <ele>0</ele>
        <time>2014-06-29T10:33:19Z</time>
      </trkpt>
      <trkpt lat="59.8490553" lon="17.6474204">
        <ele>0</ele>
        <time>2014-06-29T10:33:20Z</time>
      </trkpt>
      <trkpt lat="59.8490309" lon="17.6474542">
        <ele>0</ele>
        <time>2014-06-29T10:33:21Z</time>
      </trkpt>
      <trkpt lat="59.8490104" lon="17.6474967">
        <ele>0</ele>
        <time>2014-06-29T10:33:22Z</time>
      </trkpt>
      <trkpt lat="59.8489902" lon="17.6475382">
        <ele>0</ele>
        <time>2014-06-29T10:33:23Z</time>
      </trkpt>
      <trkpt lat="59.8489705" lon="17.6475747">
        <ele>0</ele>
        <time>2014-06-29T10:33:24Z</time>
      </trkpt>
      <trkpt lat="59.8489521" lon="17.6476105">
        <ele>0</ele>
        <time>2014-06-29T10:33:25Z</time>
      </trkpt>
      <trkpt lat="59.848929" lon="17.6476432">
        <ele>0</ele>
        <time>2014-06-29T10:33:26Z</time>
      </trkpt>
      <trkpt lat="59.8489069" lon="17.6476738">
        <ele>0</ele>
        <time>2014-06-29T10:33:27Z</time>
      </trkpt>
      <trkpt lat="59.848885" lon="17.6477038">
        <ele>0</ele>
        <time>2014-06-29T10:33:28Z</time>
      </trkpt>
      <trkpt lat="59.8488621" lon="17.6477401">
        <ele>0</ele>
        <time>2014-06-29T10:33:29Z</time>
      </trkpt>
      <trkpt lat="59.8488394" lon="17.6477736">
        <ele>0</ele>
        <time>2014-06-29T10:33:30Z</time>
      </trkpt>
      <trkpt lat="59.8488155" lon="17.6478031">
        <ele>0</ele>
        <time>2014-06-29T10:33:31Z</time>
      </trkpt>
      <trkpt lat="59.848786" lon="17.6478504">
        <ele>0</ele>
        <time>2014-06-29T10:33:32Z</time>
      </trkpt>
      <trkpt lat="59.8487617" lon="17.6478752">
        <ele>0</ele>
        <time>2014-06-29T10:33:33Z</time>
      </trkpt>
      <trkpt lat="59.8487354" lon="17.6479162">
        <ele>0</ele>
        <time>2014-06-29T10:33:34Z</time>
      </trkpt>
      <trkpt lat="59.8487109" lon="17.6479349">
        <ele>0</ele>
        <time>2014-06-29T10:33:35Z</time>
      </trkpt>
      <trkpt lat="59.8486876" lon="17.6479478">
        <ele>0</ele>
        <time>2014-06-29T10:33:36Z</time>
      </trkpt>
      <trkpt lat="59.8486695" lon="17.647959">
        <ele>0</ele>
        <time>2014-06-29T10:33:37Z</time>
      </trkpt>
      <trkpt lat="59.8486507" lon="17.6479777">
        <ele>0</ele>
        <time>2014-06-29T10:33:38Z</time>
      </trkpt>
      <trkpt lat="59.8486313" lon="17.648">
        <ele>0</ele>
        <time>2014-06-29T10:33:39Z</time>
      </trkpt>
      <trkpt lat="59.848611" lon="17.6480198">
        <ele>0</ele>
        <time>2014-06-29T10:33:40Z</time>
      </trkpt>
      <trkpt lat="59.8485888" lon="17.6480383">
        <ele>0</ele>
        <time>2014-06-29T10:33:41Z</time>
      </trkpt>
      <trkpt lat="59.8485673" lon="17.6480545">
        <ele>0</ele>
        <time>2014-06-29T10:33:42Z</time>
      </trkpt>
      <trkpt lat="59.8485447" lon="17.6480701">
        <ele>0</ele>
        <time>2014-06-29T10:33:43Z</time>
      </trkpt>
      <trkpt lat="59.848518" lon="17.6480865">
        <ele>0</ele>
        <time>2014-06-29T10:33:44Z</time>
      </trkpt>
      <trkpt lat="59.8484923" lon="17.6481031">
        <ele>0</ele>
        <time>2014-06-29T10:33:45Z</time>
      </trkpt>
      <trkpt lat="59.8484664" lon="17.6481264">
        <ele>0</ele>
        <time>2014-06-29T10:33:46Z</time>
      </trkpt>
      <trkpt lat="59.8484401" lon="17.6481555">
        <ele>0</ele>
        <time>2014-06-29T10:33:47Z</time>
      </trkpt>
      <trkpt lat="59.8484167" lon="17.6481872">
        <ele>0</ele>
        <time>2014-06-29T10:33:48Z</time>
      </trkpt>
      <trkpt lat="59.8483919" lon="17.6482172">
        <ele>0</ele>
        <time>2014-06-29T10:33:49Z</time>
      </trkpt>
      <trkpt lat="59.8483673" lon="17.6482398">
        <ele>0</ele>
        <time>2014-06-29T10:33:50Z</time>
      </trkpt>
      <trkpt lat="59.8483457" lon="17.6482566">
        <ele>0</ele>
        <time>2014-06-29T10:33:51Z</time>
      </trkpt>
      <trkpt lat="59.8483267" lon="17.6482752">
        <ele>0</ele>
        <time>2014-06-29T10:33:52Z</time>
      </trkpt>
      <trkpt lat="59.8483043" lon="17.6482963">
        <ele>0</ele>
        <time>2014-06-29T10:33:53Z</time>
      </trkpt>
      <trkpt lat="59.8482733" lon="17.6483208">
        <ele>0</ele>
        <time>2014-06-29T10:33:54Z</time>
      </trkpt>
      <trkpt lat="59.8482411" lon="17.6483501">
        <ele>0</ele>
        <time>2014-06-29T10:33:55Z</time>
      </trkpt>
      <trkpt lat="59.8482152" lon="17.6483767">
        <ele>0</ele>
        <time>2014-06-29T10:33:56Z</time>
      </trkpt>
      <trkpt lat="59.8481872" lon="17.6484063">
        <ele>0</ele>
        <time>2014-06-29T10:33:57Z</time>
      </trkpt>
      <trkpt lat="59.8481577" lon="17.6484145">
        <ele>0</ele>
        <time>2014-06-29T10:33:58Z</time>
      </trkpt>
      <trkpt lat="59.8481306" lon="17.6484155">
        <ele>0</ele>
        <time>2014-06-29T10:33:59Z</time>
      </trkpt>
      <trkpt lat="59.8481028" lon="17.6484278">
        <ele>0</ele>
        <time>2014-06-29T10:34:00Z</time>
      </trkpt>
      <trkpt lat="59.8480747" lon="17.6484514">
        <ele>0</ele>
        <time>2014-06-29T10:34:01Z</time>
      </trkpt>
      <trkpt lat="59.8480496" lon="17.648456">
        <ele>0</ele>
        <time>2014-06-29T10:34:02Z</time>
      </trkpt>
      <trkpt lat="59.8480219" lon="17.6484509">
        <ele>0</ele>
        <time>2014-06-29T10:34:03Z</time>
      </trkpt>
      <trkpt lat="59.847995" lon="17.6484539">
        <ele>0</ele>
        <time>2014-06-29T10:34:04Z</time>
      </trkpt>
      <trkpt lat="59.8479686" lon="17.6484625">
        <ele>0</ele>
        <time>2014-06-29T10:34:05Z</time>
      </trkpt>
      <trkpt lat="59.8479434" lon="17.6484664">
        <ele>0</ele>
        <time>2014-06-29T10:34:06Z</time>
      </trkpt>
      <trkpt lat="59.8479194" lon="17.6484803">
        <ele>0</ele>
        <time>2014-06-29T10:34:07Z</time>
      </trkpt>
      <trkpt lat="59.8478924" lon="17.6485012">
        <ele>0</ele>
        <time>2014-06-29T10:34:08Z</time>
      </trkpt>
      <trkpt lat="59.8478651" lon="17.6485216">
        <ele>0</ele>
        <time>2014-06-29T10:34:09Z</time>
      </trkpt>
      <trkpt lat="59.8478374" lon="17.6485429">
        <ele>0</ele>
        <time>2014-06-29T10:34:10Z</time>
      </trkpt>
      <trkpt lat="59.8478087" lon="17.6485662">
        <ele>0</ele>
        <time>2014-06-29T10:34:11Z</time>
      </trkpt>
      <trkpt lat="59.8477788" lon="17.648588">
        <ele>0</ele>
        <time>2014-06-29T10:34:12Z</time>
      </trkpt>
      <trkpt lat="59.847753" lon="17.6486125">
        <ele>0</ele>
        <time>2014-06-29T10:34:13Z</time>
      </trkpt>
      <trkpt lat="59.8477272" lon="17.6486369">
        <ele>0</ele>
        <time>2014-06-29T10:34:14Z</time>
      </trkpt>
      <trkpt lat="59.8477029" lon="17.6486585">
        <ele>0</ele>
        <time>2014-06-29T10:34:15Z</time>
      </trkpt>
      <trkpt lat="59.847679" lon="17.6486859">
        <ele>0</ele>
        <time>2014-06-29T10:34:16Z</time>
      </trkpt>
      <trkpt lat="59.8476522" lon="17.6487206">
        <ele>0</ele>
        <time>2014-06-29T10:34:17Z</time>
      </trkpt>
      <trkpt lat="59.8476248" lon="17.6487508">
        <ele>0</ele>
        <time>2014-06-29T10:34:18Z</time>
      </trkpt>
      <trkpt lat="59.8475967" lon="17.6487704">
        <ele>0</ele>
        <time>2014-06-29T10:34:19Z</time>
      </trkpt>
      <trkpt lat="59.8475704" lon="17.6487891">
        <ele>0</ele>
        <time>2014-06-29T10:34:20Z</time>
      </trkpt>
      <trkpt lat="59.8475439" lon="17.6488093">
        <ele>0</ele>
        <time>2014-06-29T10:34:21Z</time>
      </trkpt>
      <trkpt lat="59.8475159" lon="17.6488394">
        <ele>0</ele>
        <time>2014-06-29T10:34:22Z</time>
      </trkpt>
      <trkpt lat="59.8474893" lon="17.6488585">
        <ele>0</ele>
        <time>2014-06-29T10:34:23Z</time>
      </trkpt>
      <trkpt lat="59.8474652" lon="17.6488731">
        <ele>0</ele>
        <time>2014-06-29T10:34:24Z</time>
      </trkpt>
      <trkpt lat="59.8474399" lon="17.6489025">
        <ele>0</ele>
        <time>2014-06-29T10:34:25Z</time>
      </trkpt>
      <trkpt lat="59.8474119" lon="17.6489299">
        <ele>0</ele>
        <time>2014-06-29T10:34:26Z</time>
      </trkpt>
      <trkpt lat="59.847382" lon="17.6489555">
        <ele>0</ele>
        <time>2014-06-29T10:34:27Z</time>
      </trkpt>
      <trkpt lat="59.8473544" lon="17.6489826">
        <ele>0</ele>
        <time>2014-06-29T10:34:28Z</time>
      </trkpt>
      <trkpt lat="59.8473271" lon="17.6490122">
        <ele>0</ele>
        <time>2014-06-29T10:34:29Z</time>
      </trkpt>
      <trkpt lat="59.8472986" lon="17.6490435">
        <ele>0</ele>
        <time>2014-06-29T10:34:30Z</time>
      </trkpt>
      <trkpt lat="59.8472712" lon="17.6490715">
        <ele>0</ele>
        <time>2014-06-29T10:34:31Z</time>
      </trkpt>
      <trkpt lat="59.8472458" lon="17.6491195">
        <ele>0</ele>
        <time>2014-06-29T10:34:32Z</time>
      </trkpt>
      <trkpt lat="59.8472223" lon="17.6491678">
        <ele>0</ele>
        <time>2014-06-29T10:34:33Z</time>
      </trkpt>
      <trkpt lat="59.8472041" lon="17.6491899">
        <ele>0</ele>
        <time>2014-06-29T10:34:34Z</time>
      </trkpt>
      <trkpt lat="59.8471833" lon="17.6492206">
        <ele>0</ele>
        <time>2014-06-29T10:34:35Z</time>
      </trkpt>
      <trkpt lat="59.8471573" lon="17.6492589">
        <ele>0</ele>
        <time>2014-06-29T10:34:36Z</time>
      </trkpt>
      <trkpt lat="59.8471305" lon="17.6492794">
        <ele>0</ele>
        <time>2014-06-29T10:34:37Z</time>
      </trkpt>
      <trkpt lat="59.8471051" lon="17.6492978">
        <ele>0</ele>
        <time>2014-06-29T10:34:38Z</time>
      </trkpt>
      <trkpt lat="59.8470783" lon="17.64932">
        <ele>0</ele>
        <time>2014-06-29T10:34:39Z</time>
      </trkpt>
      <trkpt lat="59.8470524" lon="17.6493303">
        <ele>0</ele>
        <time>2014-06-29T10:34:40Z</time>
      </trkpt>
      <trkpt lat="59.8470259" lon="17.6493445">
        <ele>0</ele>
        <time>2014-06-29T10:34:41Z</time>
      </trkpt>
      <trkpt lat="59.8469915" lon="17.6493656">
        <ele>0</ele>
        <time>2014-06-29T10:34:42Z</time>
      </trkpt>
      <trkpt lat="59.8469589" lon="17.6493989">
        <ele>0</ele>
        <time>2014-06-29T10:34:43Z</time>
      </trkpt>
      <trkpt lat="59.8469281" lon="17.6494318">
        <ele>0</ele>
        <time>2014-06-29T10:34:44Z</time>
      </trkpt>
      <trkpt lat="59.8469013" lon="17.6494631">
        <ele>0</ele>
        <time>2014-06-29T10:34:45Z</time>
      </trkpt>
      <trkpt lat="59.8468767" lon="17.6494928">
        <ele>0</ele>
        <time>2014-06-29T10:34:46Z</time>
      </trkpt>
      <trkpt lat="59.8468499" lon="17.6495222">
        <ele>0</ele>
        <time>2014-06-29T10:34:47Z</time>
      </trkpt>
      <trkpt lat="59.8468233" lon="17.6495498">
        <ele>0</ele>
        <time>2014-06-29T10:34:48Z</time>
      </trkpt>
      <trkpt lat="59.8467943" lon="17.6496018">
        <ele>0</ele>
        <time>2014-06-29T10:34:49Z</time>
      </trkpt>
      <trkpt lat="59.8467698" lon="17.649634">
        <ele>0</ele>
        <time>2014-06-29T10:34:50Z</time>
      </trkpt>
      <trkpt lat="59.846745" lon="17.6496633">
        <ele>0</ele>
        <time>2014-06-29T10:34:51Z</time>
      </trkpt>
      <trkpt lat="59.8467155" lon="17.6496997">
        <ele>0</ele>
        <time>2014-06-29T10:34:52Z</time>
      </trkpt>
      <trkpt lat="59.8466917" lon="17.6497291">
        <ele>0</ele>
        <time>2014-06-29T10:34:53Z</time>
      </trkpt>
      <trkpt lat="59.8466674" lon="17.6497521">
        <ele>0</ele>
        <time>2014-06-29T10:34:54Z</time>
      </trkpt>
      <trkpt lat="59.8466379" lon="17.6497747">
        <ele>0</ele>
        <time>2014-06-29T10:34:55Z</time>
      </trkpt>
      <trkpt lat="59.8466124" lon="17.6498005">
        <ele>0</ele>
        <time>2014-06-29T10:34:56Z</time>
      </trkpt>
      <trkpt lat="59.8465903" lon="17.6498316">
        <ele>0</ele>
        <time>2014-06-29T10:34:57Z</time>
      </trkpt>
      <trkpt lat="59.8465654" lon="17.6498523">
        <ele>0</ele>
        <time>2014-06-29T10:34:58Z</time>
      </trkpt>
      <trkpt lat="59.84654" lon="17.6498651">
        <ele>0</ele>
        <time>2014-06-29T10:34:59Z</time>
      </trkpt>
      <trkpt lat="59.8465157" lon="17.6498809">
        <ele>0</ele>
        <time>2014-06-29T10:35:00Z</time>
      </trkpt>
      <trkpt lat="59.8464901" lon="17.6499045">
        <ele>0</ele>
        <time>2014-06-29T10:35:01Z</time>
      </trkpt>
      <trkpt lat="59.8464667" lon="17.6499349">
        <ele>0</ele>
        <time>2014-06-29T10:35:02Z</time>
      </trkpt>
      <trkpt lat="59.8464359" lon="17.6499717">
        <ele>0</ele>
        <time>2014-06-29T10:35:03Z</time>
      </trkpt>
      <trkpt lat="59.8464067" lon="17.6500053">
        <ele>0.618042</ele>
        <time>2014-06-29T10:35:04Z</time>
      </trkpt>
      <trkpt lat="59.8463813" lon="17.6500301">
        <ele>1.09863</ele>
        <time>2014-06-29T10:35:05Z</time>
      </trkpt>
      <trkpt lat="59.8463555" lon="17.6500461">
        <ele>0.618042</ele>
        <time>2014-06-29T10:35:06Z</time>
      </trkpt>
      <trkpt lat="59.8463296" lon="17.6500596">
        <ele>0.137451</ele>
        <time>2014-06-29T10:35:07Z</time>
      </trkpt>
      <trkpt lat="59.8463074" lon="17.6500775">
        <ele>0</ele>
        <time>2014-06-29T10:35:08Z</time>
      </trkpt>
      <trkpt lat="59.8462818" lon="17.650097">
        <ele>0</ele>
        <time>2014-06-29T10:35:09Z</time>
      </trkpt>
      <trkpt lat="59.8462557" lon="17.6501162">
        <ele>0</ele>
        <time>2014-06-29T10:35:10Z</time>
      </trkpt>
      <trkpt lat="59.8462322" lon="17.6501327">
        <ele>0</ele>
        <time>2014-06-29T10:35:11Z</time>
      </trkpt>
      <trkpt lat="59.8462106" lon="17.6501566">
        <ele>0</ele>
        <time>2014-06-29T10:35:12Z</time>
      </trkpt>
      <trkpt lat="59.8461872" lon="17.6501824">
        <ele>0</ele>
        <time>2014-06-29T10:35:13Z</time>
      </trkpt>
      <trkpt lat="59.8461645" lon="17.6502083">
        <ele>0</ele>
        <time>2014-06-29T10:35:14Z</time>
      </trkpt>
      <trkpt lat="59.8461401" lon="17.650228">
        <ele>0</ele>
        <time>2014-06-29T10:35:15Z</time>
      </trkpt>
      <trkpt lat="59.846115" lon="17.6502505">
        <ele>0</ele>
        <time>2014-06-29T10:35:16Z</time>
      </trkpt>
      <trkpt lat="59.8460907" lon="17.6502747">
        <ele>0</ele>
        <time>2014-06-29T10:35:17Z</time>
      </trkpt>
      <trkpt lat="59.8460663" lon="17.6502903">
        <ele>0</ele>
        <time>2014-06-29T10:35:18Z</time>
      </trkpt>
      <trkpt lat="59.8460404" lon="17.6503048">
        <ele>0</ele>
        <time>2014-06-29T10:35:19Z</time>
      </trkpt>
      <trkpt lat="59.8460176" lon="17.6503233">
        <ele>0</ele>
        <time>2014-06-29T10:35:20Z</time>
      </trkpt>
      <trkpt lat="59.846001" lon="17.6503427">
        <ele>0</ele>
        <time>2014-06-29T10:35:21Z</time>
      </trkpt>
      <trkpt lat="59.8459808" lon="17.6503685">
        <ele>0</ele>
        <time>2014-06-29T10:35:22Z</time>
      </trkpt>
      <trkpt lat="59.8459592" lon="17.650397">
        <ele>0</ele>
        <time>2014-06-29T10:35:23Z</time>
      </trkpt>
      <trkpt lat="59.845937" lon="17.6504208">
        <ele>0</ele>
        <time>2014-06-29T10:35:24Z</time>
      </trkpt>
      <trkpt lat="59.8459112" lon="17.6504418">
        <ele>0</ele>
        <time>2014-06-29T10:35:25Z</time>
      </trkpt>
      <trkpt lat="59.8458904" lon="17.6504693">
        <ele>0</ele>
        <time>2014-06-29T10:35:26Z</time>
      </trkpt>
      <trkpt lat="59.8458677" lon="17.6504913">
        <ele>0</ele>
        <time>2014-06-29T10:35:27Z</time>
      </trkpt>
      <trkpt lat="59.8458453" lon="17.6505149">
        <ele>0</ele>
        <time>2014-06-29T10:35:28Z</time>
      </trkpt>
      <trkpt lat="59.8458241" lon="17.6505451">
        <ele>0</ele>
        <time>2014-06-29T10:35:29Z</time>
      </trkpt>
      <trkpt lat="59.8458003" lon="17.650575">
        <ele>0</ele>
        <time>2014-06-29T10:35:30Z</time>
      </trkpt>
      <trkpt lat="59.8457769" lon="17.6505947">
        <ele>0</ele>
        <time>2014-06-29T10:35:31Z</time>
      </trkpt>
      <trkpt lat="59.8457479" lon="17.650609">
        <ele>0</ele>
        <time>2014-06-29T10:35:32Z</time>
      </trkpt>
      <trkpt lat="59.8457194" lon="17.6506239">
        <ele>0</ele>
        <time>2014-06-29T10:35:33Z</time>
      </trkpt>
      <trkpt lat="59.8456933" lon="17.6506358">
        <ele>0</ele>
        <time>2014-06-29T10:35:34Z</time>
      </trkpt>
      <trkpt lat="59.845669" lon="17.6506574">
        <ele>0</ele>
        <time>2014-06-29T10:35:35Z</time>
      </trkpt>
      <trkpt lat="59.845647" lon="17.6506843">
        <ele>0</ele>
        <time>2014-06-29T10:35:36Z</time>
      </trkpt>
      <trkpt lat="59.8456234" lon="17.650711">
        <ele>0</ele>
        <time>2014-06-29T10:35:37Z</time>
      </trkpt>
      <trkpt lat="59.8455936" lon="17.6507302">
        <ele>0</ele>
        <time>2014-06-29T10:35:38Z</time>
      </trkpt>
      <trkpt lat="59.8455672" lon="17.6507482">
        <ele>0</ele>
        <time>2014-06-29T10:35:39Z</time>
      </trkpt>
      <trkpt lat="59.8455411" lon="17.6507725">
        <ele>0</ele>
        <time>2014-06-29T10:35:40Z</time>
      </trkpt>
      <trkpt lat="59.8455162" lon="17.650805">
        <ele>0</ele>
        <time>2014-06-29T10:35:41Z</time>
      </trkpt>
      <trkpt lat="59.8454908" lon="17.6508288">
        <ele>0</ele>
        <time>2014-06-29T10:35:42Z</time>
      </trkpt>
      <trkpt lat="59.845465" lon="17.6508399">
        <ele>0</ele>
        <time>2014-06-29T10:35:43Z</time>
      </trkpt>
      <trkpt lat="59.8454402" lon="17.6508563">
        <ele>0</ele>
        <time>2014-06-29T10:35:44Z</time>
      </trkpt>
      <trkpt lat="59.8454138" lon="17.6508764">
        <ele>0</ele>
        <time>2014-06-29T10:35:45Z</time>
      </trkpt>
      <trkpt lat="59.8453831" lon="17.650902">
        <ele>0</ele>
        <time>2014-06-29T10:35:46Z</time>
      </trkpt>
      <trkpt lat="59.8453567" lon="17.6509315">
        <ele>0</ele>
        <time>2014-06-29T10:35:47Z</time>
      </trkpt>
      <trkpt lat="59.845332" lon="17.6509663">
        <ele>0</ele>
        <time>2014-06-29T10:35:48Z</time>
      </trkpt>
      <trkpt lat="59.845304" lon="17.651005">
        <ele>0</ele>
        <time>2014-06-29T10:35:49Z</time>
      </trkpt>
      <trkpt lat="59.8452775" lon="17.651041">
        <ele>0</ele>
        <time>2014-06-29T10:35:50Z</time>
      </trkpt>
      <trkpt lat="59.8452505" lon="17.6510762">
        <ele>0</ele>
        <time>2014-06-29T10:35:51Z</time>
      </trkpt>
      <trkpt lat="59.8452237" lon="17.6511169">
        <ele>0</ele>
        <time>2014-06-29T10:35:52Z</time>
      </trkpt>
      <trkpt lat="59.8451981" lon="17.6511565">
        <ele>0</ele>
        <time>2014-06-29T10:35:53Z</time>
      </trkpt>
      <trkpt lat="59.8451728" lon="17.6511992">
        <ele>0</ele>
        <time>2014-06-29T10:35:54Z</time>
      </trkpt>
      <trkpt lat="59.8451474" lon="17.6512392">
        <ele>0</ele>
        <time>2014-06-29T10:35:55Z</time>
      </trkpt>
      <trkpt lat="59.8451227" lon="17.6512736">
        <ele>0</ele>
        <time>2014-06-29T10:35:56Z</time>
      </trkpt>
      <trkpt lat="59.845099" lon="17.6513106">
        <ele>0</ele>
        <time>2014-06-29T10:35:57Z</time>
      </trkpt>
      <trkpt lat="59.8450756" lon="17.6513465">
        <ele>0</ele>
        <time>2014-06-29T10:35:58Z</time>
      </trkpt>
      <trkpt lat="59.8450513" lon="17.6513753">
        <ele>0</ele>
        <time>2014-06-29T10:35:59Z</time>
      </trkpt>
      <trkpt lat="59.8450273" lon="17.6514096">
        <ele>0</ele>
        <time>2014-06-29T10:36:00Z</time>
      </trkpt>
      <trkpt lat="59.8450051" lon="17.651447">
        <ele>0</ele>
        <time>2014-06-29T10:36:01Z</time>
      </trkpt>
      <trkpt lat="59.8449826" lon="17.6514891">
        <ele>0</ele>
        <time>2014-06-29T10:36:02Z</time>
      </trkpt>
      <trkpt lat="59.8449584" lon="17.6515319">
        <ele>0</ele>
        <time>2014-06-29T10:36:03Z</time>
      </trkpt>
      <trkpt lat="59.8449337" lon="17.651573">
        <ele>0</ele>
        <time>2014-06-29T10:36:04Z</time>
      </trkpt>
      <trkpt lat="59.8449112" lon="17.6516141">
        <ele>0</ele>
        <time>2014-06-29T10:36:05Z</time>
      </trkpt>
      <trkpt lat="59.844888" lon="17.6516692">
        <ele>0</ele>
        <time>2014-06-29T10:36:06Z</time>
      </trkpt>
      <trkpt lat="59.8448652" lon="17.6517148">
        <ele>0</ele>
        <time>2014-06-29T10:36:07Z</time>
      </trkpt>
      <trkpt lat="59.8448426" lon="17.6517546">
        <ele>0</ele>
        <time>2014-06-29T10:36:08Z</time>
      </trkpt>
      <trkpt lat="59.8448212" lon="17.6517847">
        <ele>0</ele>
        <time>2014-06-29T10:36:09Z</time>
      </trkpt>
      <trkpt lat="59.8448" lon="17.6518086">
        <ele>0</ele>
        <time>2014-06-29T10:36:10Z</time>
      </trkpt>
      <trkpt lat="59.8447808" lon="17.6518293">
        <ele>0</ele>
        <time>2014-06-29T10:36:11Z</time>
      </trkpt>
      <trkpt lat="59.8447606" lon="17.6518474">
        <ele>0</ele>
        <time>2014-06-29T10:36:12Z</time>
      </trkpt>
      <trkpt lat="59.8447399" lon="17.6518666">
        <ele>0</ele>
        <time>2014-06-29T10:36:13Z</time>
      </trkpt>
      <trkpt lat="59.8447176" lon="17.651906">
        <ele>0</ele>
        <time>2014-06-29T10:36:14Z</time>
      </trkpt>
      <trkpt lat="59.8446905" lon="17.6519532">
        <ele>0</ele>
        <time>2014-06-29T10:36:15Z</time>
      </trkpt>
      <trkpt lat="59.8446688" lon="17.6519742">
        <ele>0</ele>
        <time>2014-06-29T10:36:16Z</time>
      </trkpt>
      <trkpt lat="59.8446472" lon="17.651999">
        <ele>0</ele>
        <time>2014-06-29T10:36:17Z</time>
      </trkpt>
      <trkpt lat="59.8446263" lon="17.6520256">
        <ele>0</ele>
        <time>2014-06-29T10:36:18Z</time>
      </trkpt>
      <trkpt lat="59.8446063" lon="17.6520549">
        <ele>0</ele>
        <time>2014-06-29T10:36:19Z</time>
      </trkpt>
      <trkpt lat="59.8445835" lon="17.6520904">
        <ele>0</ele>
        <time>2014-06-29T10:36:20Z</time>
      </trkpt>
      <trkpt lat="59.8445601" lon="17.6521183">
        <ele>0</ele>
        <time>2014-06-29T10:36:21Z</time>
      </trkpt>
      <trkpt lat="59.8445366" lon="17.6521401">
        <ele>0</ele>
        <time>2014-06-29T10:36:22Z</time>
      </trkpt>
      <trkpt lat="59.844516" lon="17.6521687">
        <ele>0</ele>
        <time>2014-06-29T10:36:23Z</time>
      </trkpt>
      <trkpt lat="59.844498" lon="17.6521991">
        <ele>0</ele>
        <time>2014-06-29T10:36:24Z</time>
      </trkpt>
      <trkpt lat="59.8444788" lon="17.6522322">
        <ele>0</ele>
        <time>2014-06-29T10:36:25Z</time>
      </trkpt>
      <trkpt lat="59.8444527" lon="17.6522564">
        <ele>0</ele>
        <time>2014-06-29T10:36:26Z</time>
      </trkpt>
      <trkpt lat="59.8444278" lon="17.6522771">
        <ele>0</ele>
        <time>2014-06-29T10:36:27Z</time>
      </trkpt>
      <trkpt lat="59.8444041" lon="17.6523069">
        <ele>0</ele>
        <time>2014-06-29T10:36:28Z</time>
      </trkpt>
      <trkpt lat="59.8443781" lon="17.6523405">
        <ele>0</ele>
        <time>2014-06-29T10:36:29Z</time>
      </trkpt>
      <trkpt lat="59.8443528" lon="17.652382">
        <ele>0</ele>
        <time>2014-06-29T10:36:30Z</time>
      </trkpt>
      <trkpt lat="59.8443295" lon="17.6524194">
        <ele>0</ele>
        <time>2014-06-29T10:36:31Z</time>
      </trkpt>
      <trkpt lat="59.8443022" lon="17.6524617">
        <ele>0</ele>
        <time>2014-06-29T10:36:32Z</time>
      </trkpt>
      <trkpt lat="59.8442764" lon="17.6525002">
        <ele>0</ele>
        <time>2014-06-29T10:36:33Z</time>
      </trkpt>
      <trkpt lat="59.844253" lon="17.6525358">
        <ele>0</ele>
        <time>2014-06-29T10:36:34Z</time>
      </trkpt>
      <trkpt lat="59.8442296" lon="17.6525675">
        <ele>0</ele>
        <time>2014-06-29T10:36:35Z</time>
      </trkpt>
      <trkpt lat="59.8442067" lon="17.6525948">
        <ele>0</ele>
        <time>2014-06-29T10:36:36Z</time>
      </trkpt>
      <trkpt lat="59.8441824" lon="17.6526281">
        <ele>0</ele>
        <time>2014-06-29T10:36:37Z</time>
      </trkpt>
      <trkpt lat="59.8441595" lon="17.6526561">
        <ele>0</ele>
        <time>2014-06-29T10:36:38Z</time>
      </trkpt>
      <trkpt lat="59.8441406" lon="17.6526767">
        <ele>0</ele>
        <time>2014-06-29T10:36:39Z</time>
      </trkpt>
      <trkpt lat="59.8441219" lon="17.6526975">
        <ele>0</ele>
        <time>2014-06-29T10:36:40Z</time>
      </trkpt>
      <trkpt lat="59.8441012" lon="17.6527144">
        <ele>0</ele>
        <time>2014-06-29T10:36:41Z</time>
      </trkpt>
      <trkpt lat="59.8440805" lon="17.6527348">
        <ele>0</ele>
        <time>2014-06-29T10:36:42Z</time>
      </trkpt>
      <trkpt lat="59.844056" lon="17.6527638">
        <ele>0</ele>
        <time>2014-06-29T10:36:43Z</time>
      </trkpt>
      <trkpt lat="59.8440316" lon="17.6527875">
        <ele>0</ele>
        <time>2014-06-29T10:36:44Z</time>
      </trkpt>
      <trkpt lat="59.8440101" lon="17.6527978">
        <ele>0</ele>
        <time>2014-06-29T10:36:45Z</time>
      </trkpt>
      <trkpt lat="59.8439865" lon="17.6528034">
        <ele>0</ele>
        <time>2014-06-29T10:36:46Z</time>
      </trkpt>
      <trkpt lat="59.8439624" lon="17.6528228">
        <ele>0.618042</ele>
        <time>2014-06-29T10:36:47Z</time>
      </trkpt>
      <trkpt lat="59.8439411" lon="17.6528446">
        <ele>1.09863</ele>
        <time>2014-06-29T10:36:48Z</time>
      </trkpt>
      <trkpt lat="59.8439177" lon="17.652858">
        <ele>0.618042</ele>
        <time>2014-06-29T10:36:49Z</time>
      </trkpt>
      <trkpt lat="59.8438938" lon="17.6528724">
        <ele>0.618042</ele>
        <time>2014-06-29T10:36:50Z</time>
      </trkpt>
      <trkpt lat="59.8438695" lon="17.6528923">
        <ele>0.618042</ele>
        <time>2014-06-29T10:36:51Z</time>
      </trkpt>
      <trkpt lat="59.8438452" lon="17.652918">
        <ele>0.618042</ele>
        <time>2014-06-29T10:36:52Z</time>
      </trkpt>
      <trkpt lat="59.8438199" lon="17.652949">
        <ele>0</ele>
        <time>2014-06-29T10:36:53Z</time>
      </trkpt>
      <trkpt lat="59.8437938" lon="17.652986">
        <ele>0</ele>
        <time>2014-06-29T10:36:54Z</time>
      </trkpt>
      <trkpt lat="59.8437691" lon="17.6530224">
        <ele>0</ele>
        <time>2014-06-29T10:36:55Z</time>
      </trkpt>
      <trkpt lat="59.8437463" lon="17.6530495">
        <ele>0</ele>
        <time>2014-06-29T10:36:56Z</time>
      </trkpt>
      <trkpt lat="59.8437233" lon="17.6530816">
        <ele>0</ele>
        <time>2014-06-29T10:36:57Z</time>
      </trkpt>
      <trkpt lat="59.8436992" lon="17.6531111">
        <ele>0</ele>
        <time>2014-06-29T10:36:58Z</time>
      </trkpt>
      <trkpt lat="59.8436758" lon="17.6531417">
        <ele>0</ele>
        <time>2014-06-29T10:36:59Z</time>
      </trkpt>
      <trkpt lat="59.8436531" lon="17.6531725">
        <ele>0</ele>
        <time>2014-06-29T10:37:00Z</time>
      </trkpt>
      <trkpt lat="59.8436314" lon="17.6532061">
        <ele>0</ele>
        <time>2014-06-29T10:37:01Z</time>
      </trkpt>
      <trkpt lat="59.8436069" lon="17.6532339">
        <ele>0</ele>
        <time>2014-06-29T10:37:02Z</time>
      </trkpt>
      <trkpt lat="59.8435799" lon="17.6532549">
        <ele>0</ele>
        <time>2014-06-29T10:37:03Z</time>
      </trkpt>
      <trkpt lat="59.84355" lon="17.6532788">
        <ele>0</ele>
        <time>2014-06-29T10:37:04Z</time>
      </trkpt>
      <trkpt lat="59.8435195" lon="17.6533082">
        <ele>0</ele>
        <time>2014-06-29T10:37:05Z</time>
      </trkpt>
      <trkpt lat="59.843493" lon="17.6533403">
        <ele>0.137451</ele>
        <time>2014-06-29T10:37:06Z</time>
      </trkpt>
      <trkpt lat="59.8434728" lon="17.6533637">
        <ele>0.137451</ele>
        <time>2014-06-29T10:37:07Z</time>
      </trkpt>
      <trkpt lat="59.8434522" lon="17.653388">
        <ele>0.137451</ele>
        <time>2014-06-29T10:37:08Z</time>
      </trkpt>
      <trkpt lat="59.8434294" lon="17.6534226">
        <ele>0.137451</ele>
        <time>2014-06-29T10:37:09Z</time>
      </trkpt>
      <trkpt lat="59.843407" lon="17.6534504">
        <ele>0.137451</ele>
        <time>2014-06-29T10:37:10Z</time>
      </trkpt>
      <trkpt lat="59.8433846" lon="17.6534796">
        <ele>0.137451</ele>
        <time>2014-06-29T10:37:11Z</time>
      </trkpt>
      <trkpt lat="59.8433609" lon="17.6535138">
        <ele>0.137451</ele>
        <time>2014-06-29T10:37:12Z</time>
      </trkpt>
      <trkpt lat="59.843339" lon="17.6535469">
        <ele>0.137451</ele>
        <time>2014-06-29T10:37:13Z</time>
      </trkpt>
      <trkpt lat="59.8433157" lon="17.6535751">
        <ele>0.137451</ele>
        <time>2014-06-29T10:37:14Z</time>
      </trkpt>
      <trkpt lat="59.8432927" lon="17.6535993">
        <ele>0.137451</ele>
        <time>2014-06-29T10:37:15Z</time>
      </trkpt>
      <trkpt lat="59.8432718" lon="17.6536294">
        <ele>0.137451</ele>
        <time>2014-06-29T10:37:16Z</time>
      </trkpt>
      <trkpt lat="59.8432504" lon="17.6536537">
        <ele>0.618042</ele>
        <time>2014-06-29T10:37:17Z</time>
      </trkpt>
      <trkpt lat="59.8432273" lon="17.6536801">
        <ele>0.618042</ele>
        <time>2014-06-29T10:37:18Z</time>
      </trkpt>
      <trkpt lat="59.8432066" lon="17.6537123">
        <ele>0.618042</ele>
        <time>2014-06-29T10:37:19Z</time>
      </trkpt>
      <trkpt lat="59.8431848" lon="17.6537438">
        <ele>1.09863</ele>
        <time>2014-06-29T10:37:20Z</time>
      </trkpt>
      <trkpt lat="59.8431625" lon="17.6537669">
        <ele>1.09863</ele>
        <time>2014-06-29T10:37:21Z</time>
      </trkpt>
      <trkpt lat="59.8431381" lon="17.65379">
        <ele>0.618042</ele>
        <time>2014-06-29T10:37:22Z</time>
      </trkpt>
      <trkpt lat="59.8431091" lon="17.6538214">
        <ele>0.618042</ele>
        <time>2014-06-29T10:37:23Z</time>
      </trkpt>
      <trkpt lat="59.8430854" lon="17.6538519">
        <ele>0.618042</ele>
        <time>2014-06-29T10:37:24Z</time>
      </trkpt>
      <trkpt lat="59.8430639" lon="17.6538837">
        <ele>0.618042</ele>
        <time>2014-06-29T10:37:25Z</time>
      </trkpt>
      <trkpt lat="59.8430414" lon="17.6539143">
        <ele>0.618042</ele>
        <time>2014-06-29T10:37:26Z</time>
      </trkpt>
      <trkpt lat="59.8430191" lon="17.6539426">
        <ele>0.137451</ele>
        <time>2014-06-29T10:37:27Z</time>
      </trkpt>
      <trkpt lat="59.8429942" lon="17.6539687">
        <ele>0.137451</ele>
        <time>2014-06-29T10:37:28Z</time>
      </trkpt>
      <trkpt lat="59.8429693" lon="17.6539954">
        <ele>0.137451</ele>
        <time>2014-06-29T10:37:29Z</time>
      </trkpt>
      <trkpt lat="59.842946" lon="17.6540272">
        <ele>0.137451</ele>
        <time>2014-06-29T10:37:30Z</time>
      </trkpt>
      <trkpt lat="59.8429228" lon="17.6540573">
        <ele>0.618042</ele>
        <time>2014-06-29T10:37:31Z</time>
      </trkpt>
      <trkpt lat="59.842901" lon="17.6540848">
        <ele>0.137451</ele>
        <time>2014-06-29T10:37:32Z</time>
      </trkpt>
      <trkpt lat="59.8428774" lon="17.6541177">
        <ele>0.137451</ele>
        <time>2014-06-29T10:37:33Z</time>
      </trkpt>
      <trkpt lat="59.8428541" lon="17.6541504">
        <ele>0.137451</ele>
        <time>2014-06-29T10:37:34Z</time>
      </trkpt>
      <trkpt lat="59.8428304" lon="17.6541786">
        <ele>0</ele>
        <time>2014-06-29T10:37:35Z</time>
      </trkpt>
      <trkpt lat="59.8428066" lon="17.6542062">
        <ele>0</ele>
        <time>2014-06-29T10:37:36Z</time>
      </trkpt>
      <trkpt lat="59.8427834" lon="17.6542388">
        <ele>0.137451</ele>
        <time>2014-06-29T10:37:37Z</time>
      </trkpt>
      <trkpt lat="59.8427604" lon="17.6542737">
        <ele>0.137451</ele>
        <time>2014-06-29T10:37:38Z</time>
      </trkpt>
      <trkpt lat="59.8427397" lon="17.6543012">
        <ele>0.137451</ele>
        <time>2014-06-29T10:37:39Z</time>
      </trkpt>
      <trkpt lat="59.8427169" lon="17.6543286">
        <ele>0.137451</ele>
        <time>2014-06-29T10:37:40Z</time>
      </trkpt>
      <trkpt lat="59.8426907" lon="17.6543606">
        <ele>0.137451</ele>
        <time>2014-06-29T10:37:41Z</time>
      </trkpt>
      <trkpt lat="59.8426647" lon="17.6543877">
        <ele>0</ele>
        <time>2014-06-29T10:37:42Z</time>
      </trkpt>
      <trkpt lat="59.8426394" lon="17.6544205">
        <ele>0</ele>
        <time>2014-06-29T10:37:43Z</time>
      </trkpt>
      <trkpt lat="59.8426145" lon="17.6544554">
        <ele>0.137451</ele>
        <time>2014-06-29T10:37:44Z</time>
      </trkpt>
      <trkpt lat="59.8425912" lon="17.654486">
        <ele>0.137451</ele>
        <time>2014-06-29T10:37:45Z</time>
      </trkpt>
      <trkpt lat="59.8425689" lon="17.6545151">
        <ele>0.618042</ele>
        <time>2014-06-29T10:37:46Z</time>
      </trkpt>
      <trkpt lat="59.8425481" lon="17.6545374">
        <ele>0.618042</ele>
        <time>2014-06-29T10:37:47Z</time>
      </trkpt>
      <trkpt lat="59.8425264" lon="17.6545673">
        <ele>1.09863</ele>
        <time>2014-06-29T10:37:48Z</time>
      </trkpt>
      <trkpt lat="59.8425045" lon="17.6545952">
        <ele>1.09863</ele>
        <time>2014-06-29T10:37:49Z</time>
      </trkpt>
      <trkpt lat="59.8424844" lon="17.654626">
        <ele>2.06006</ele>
        <time>2014-06-29T10:37:50Z</time>
      </trkpt>
      <trkpt lat="59.8424627" lon="17.6546621">
        <ele>2.06006</ele>
        <time>2014-06-29T10:37:51Z</time>
      </trkpt>
      <trkpt lat="59.8424411" lon="17.654694">
        <ele>2.06006</ele>
        <time>2014-06-29T10:37:52Z</time>
      </trkpt>
      <trkpt lat="59.8424192" lon="17.654726">
        <ele>2.06006</ele>
        <time>2014-06-29T10:37:53Z</time>
      </trkpt>
      <trkpt lat="59.8423964" lon="17.6547598">
        <ele>2.54065</ele>
        <time>2014-06-29T10:37:54Z</time>
      </trkpt>
      <trkpt lat="59.8423747" lon="17.6547919">
        <ele>2.54065</ele>
        <time>2014-06-29T10:37:55Z</time>
      </trkpt>
      <trkpt lat="59.8423523" lon="17.6548234">
        <ele>3.02124</ele>
        <time>2014-06-29T10:37:56Z</time>
      </trkpt>
      <trkpt lat="59.8423294" lon="17.6548508">
        <ele>3.02124</ele>
        <time>2014-06-29T10:37:57Z</time>
      </trkpt>
      <trkpt lat="59.8423062" lon="17.6548781">
        <ele>3.02124</ele>
        <time>2014-06-29T10:37:58Z</time>
      </trkpt>
      <trkpt lat="59.8422834" lon="17.6549203">
        <ele>3.02124</ele>
        <time>2014-06-29T10:37:59Z</time>
      </trkpt>
      <trkpt lat="59.8422617" lon="17.6549517">
        <ele>3.02124</ele>
        <time>2014-06-29T10:38:00Z</time>
      </trkpt>
      <trkpt lat="59.8422419" lon="17.6549721">
        <ele>3.02124</ele>
        <time>2014-06-29T10:38:01Z</time>
      </trkpt>
      <trkpt lat="59.8422213" lon="17.655">
        <ele>3.02124</ele>
        <time>2014-06-29T10:38:02Z</time>
      </trkpt>
      <trkpt lat="59.8421981" lon="17.6550288">
        <ele>3.50195</ele>
        <time>2014-06-29T10:38:03Z</time>
      </trkpt>
      <trkpt lat="59.8421751" lon="17.6550565">
        <ele>3.50195</ele>
        <time>2014-06-29T10:38:04Z</time>
      </trkpt>
      <trkpt lat="59.8421525" lon="17.655087">
        <ele>3.50195</ele>
        <time>2014-06-29T10:38:05Z</time>
      </trkpt>
      <trkpt lat="59.8421308" lon="17.6551171">
        <ele>3.50195</ele>
        <time>2014-06-29T10:38:06Z</time>
      </trkpt>
      <trkpt lat="59.8421079" lon="17.6551512">
        <ele>3.02124</ele>
        <time>2014-06-29T10:38:07Z</time>
      </trkpt>
      <trkpt lat="59.8420834" lon="17.6551817">
        <ele>3.02124</ele>
        <time>2014-06-29T10:38:08Z</time>
      </trkpt>
      <trkpt lat="59.8420628" lon="17.6552191">
        <ele>2.54065</ele>
        <time>2014-06-29T10:38:09Z</time>
      </trkpt>
      <trkpt lat="59.8420409" lon="17.6552724">
        <ele>2.54065</ele>
        <time>2014-06-29T10:38:10Z</time>
      </trkpt>
      <trkpt lat="59.8420137" lon="17.655321">
        <ele>2.54065</ele>
        <time>2014-06-29T10:38:11Z</time>
      </trkpt>
      <trkpt lat="59.8419872" lon="17.6553565">
        <ele>2.54065</ele>
        <time>2014-06-29T10:38:12Z</time>
      </trkpt>
      <trkpt lat="59.8419657" lon="17.6553844">
        <ele>2.06006</ele>
        <time>2014-06-29T10:38:13Z</time>
      </trkpt>
      <trkpt lat="59.8419453" lon="17.6554176">
        <ele>2.06006</ele>
        <time>2014-06-29T10:38:14Z</time>
      </trkpt>
      <trkpt lat="59.8419243" lon="17.6554574">
        <ele>2.06006</ele>
        <time>2014-06-29T10:38:15Z</time>
      </trkpt>
      <trkpt lat="59.8419025" lon="17.6554848">
        <ele>2.06006</ele>
        <time>2014-06-29T10:38:16Z</time>
      </trkpt>
      <trkpt lat="59.8418815" lon="17.655515">
        <ele>2.06006</ele>
        <time>2014-06-29T10:38:17Z</time>
      </trkpt>
      <trkpt lat="59.8418613" lon="17.6555458">
        <ele>1.57935</ele>
        <time>2014-06-29T10:38:18Z</time>
      </trkpt>
      <trkpt lat="59.8418412" lon="17.6555705">
        <ele>1.57935</ele>
        <time>2014-06-29T10:38:19Z</time>
      </trkpt>
      <trkpt lat="59.8418219" lon="17.6555916">
        <ele>0.618042</ele>
        <time>2014-06-29T10:38:20Z</time>
      </trkpt>
      <trkpt lat="59.841802" lon="17.6556122">
        <ele>0.137451</ele>
        <time>2014-06-29T10:38:21Z</time>
      </trkpt>
      <trkpt lat="59.8417805" lon="17.6556315">
        <ele>0</ele>
        <time>2014-06-29T10:38:22Z</time>
      </trkpt>
      <trkpt lat="59.8417598" lon="17.6556512">
        <ele>0</ele>
        <time>2014-06-29T10:38:23Z</time>
      </trkpt>
      <trkpt lat="59.841742" lon="17.6556764">
        <ele>0</ele>
        <time>2014-06-29T10:38:24Z</time>
      </trkpt>
      <trkpt lat="59.8417251" lon="17.6557072">
        <ele>0</ele>
        <time>2014-06-29T10:38:25Z</time>
      </trkpt>
      <trkpt lat="59.841708" lon="17.6557418">
        <ele>0</ele>
        <time>2014-06-29T10:38:26Z</time>
      </trkpt>
      <trkpt lat="59.8416922" lon="17.6557659">
        <ele>0</ele>
        <time>2014-06-29T10:38:27Z</time>
      </trkpt>
      <trkpt lat="59.8416755" lon="17.6557981">
        <ele>0</ele>
        <time>2014-06-29T10:38:28Z</time>
      </trkpt>
      <trkpt lat="59.8416575" lon="17.6558388">
        <ele>0</ele>
        <time>2014-06-29T10:38:29Z</time>
      </trkpt>
      <trkpt lat="59.8416457" lon="17.6558831">
        <ele>0</ele>
        <time>2014-06-29T10:38:30Z</time>
      </trkpt>
      <trkpt lat="59.8416312" lon="17.6559294">
        <ele>0</ele>
        <time>2014-06-29T10:38:31Z</time>
      </trkpt>
      <trkpt lat="59.8416153" lon="17.6559702">
        <ele>0</ele>
        <time>2014-06-29T10:38:32Z</time>
      </trkpt>
      <trkpt lat="59.8415987" lon="17.6560126">
        <ele>0</ele>
        <time>2014-06-29T10:38:33Z</time>
      </trkpt>
      <trkpt lat="59.8415785" lon="17.6560531">
        <ele>0</ele>
        <time>2014-06-29T10:38:34Z</time>
      </trkpt>
      <trkpt lat="59.8415552" lon="17.6560983">
        <ele>0</ele>
        <time>2014-06-29T10:38:35Z</time>
      </trkpt>
      <trkpt lat="59.8415339" lon="17.6561297">
        <ele>0</ele>
        <time>2014-06-29T10:38:36Z</time>
      </trkpt>
      <trkpt lat="59.8415081" lon="17.6561598">
        <ele>0</ele>
        <time>2014-06-29T10:38:37Z</time>
      </trkpt>
      <trkpt lat="59.841481" lon="17.6561904">
        <ele>0</ele>
        <time>2014-06-29T10:38:38Z</time>
      </trkpt>
      <trkpt lat="59.8414566" lon="17.6562268">
        <ele>0</ele>
        <time>2014-06-29T10:38:39Z</time>
      </trkpt>
      <trkpt lat="59.8414329" lon="17.6562594">
        <ele>0</ele>
        <time>2014-06-29T10:38:40Z</time>
      </trkpt>
      <trkpt lat="59.8414105" lon="17.6562914">
        <ele>0</ele>
        <time>2014-06-29T10:38:41Z</time>
      </trkpt>
      <trkpt lat="59.84139" lon="17.6563219">
        <ele>0</ele>
        <time>2014-06-29T10:38:42Z</time>
      </trkpt>
      <trkpt lat="59.8413703" lon="17.6563484">
        <ele>0</ele>
        <time>2014-06-29T10:38:43Z</time>
      </trkpt>
      <trkpt lat="59.8413496" lon="17.6563748">
        <ele>0</ele>
        <time>2014-06-29T10:38:44Z</time>
      </trkpt>
      <trkpt lat="59.8413265" lon="17.6564008">
        <ele>0</ele>
        <time>2014-06-29T10:38:45Z</time>
      </trkpt>
      <trkpt lat="59.8413039" lon="17.6564302">
        <ele>0</ele>
        <time>2014-06-29T10:38:46Z</time>
      </trkpt>
      <trkpt lat="59.8412817" lon="17.6564617">
        <ele>0</ele>
        <time>2014-06-29T10:38:47Z</time>
      </trkpt>
      <trkpt lat="59.8412556" lon="17.6564836">
        <ele>0</ele>
        <time>2014-06-29T10:38:48Z</time>
      </trkpt>
      <trkpt lat="59.8412269" lon="17.6565043">
        <ele>0</ele>
        <time>2014-06-29T10:38:49Z</time>
      </trkpt>
      <trkpt lat="59.8412003" lon="17.6565291">
        <ele>0</ele>
        <time>2014-06-29T10:38:50Z</time>
      </trkpt>
      <trkpt lat="59.8411749" lon="17.6565505">
        <ele>0</ele>
        <time>2014-06-29T10:38:51Z</time>
      </trkpt>
      <trkpt lat="59.8411507" lon="17.6565769">
        <ele>0</ele>
        <time>2014-06-29T10:38:52Z</time>
      </trkpt>
      <trkpt lat="59.8411255" lon="17.6565987">
        <ele>0</ele>
        <time>2014-06-29T10:38:53Z</time>
      </trkpt>
      <trkpt lat="59.8410988" lon="17.6566239">
        <ele>0</ele>
        <time>2014-06-29T10:38:54Z</time>
      </trkpt>
      <trkpt lat="59.8410753" lon="17.6566457">
        <ele>0</ele>
        <time>2014-06-29T10:38:55Z</time>
      </trkpt>
      <trkpt lat="59.8410509" lon="17.6566685">
        <ele>0</ele>
        <time>2014-06-29T10:38:56Z</time>
      </trkpt>
      <trkpt lat="59.8410255" lon="17.6566894">
        <ele>0</ele>
        <time>2014-06-29T10:38:57Z</time>
      </trkpt>
      <trkpt lat="59.8410002" lon="17.6567037">
        <ele>0</ele>
        <time>2014-06-29T10:38:58Z</time>
      </trkpt>
      <trkpt lat="59.840973" lon="17.6567095">
        <ele>0</ele>
        <time>2014-06-29T10:38:59Z</time>
      </trkpt>
      <trkpt lat="59.8409499" lon="17.6567151">
        <ele>0</ele>
        <time>2014-06-29T10:39:00Z</time>
      </trkpt>
      <trkpt lat="59.8409287" lon="17.6567158">
        <ele>0</ele>
        <time>2014-06-29T10:39:01Z</time>
      </trkpt>
      <trkpt lat="59.8409052" lon="17.6567145">
        <ele>0</ele>
        <time>2014-06-29T10:39:02Z</time>
      </trkpt>
      <trkpt lat="59.8408795" lon="17.6567137">
        <ele>0</ele>
        <time>2014-06-29T10:39:03Z</time>
      </trkpt>
      <trkpt lat="59.8408548" lon="17.6567074">
        <ele>0</ele>
        <time>2014-06-29T10:39:04Z</time>
      </trkpt>
      <trkpt lat="59.8408377" lon="17.656702">
        <ele>0</ele>
        <time>2014-06-29T10:39:05Z</time>
      </trkpt>
      <trkpt lat="59.8408237" lon="17.656702">
        <ele>0</ele>
        <time>2014-06-29T10:39:06Z</time>
      </trkpt>
      <trkpt lat="59.8408067" lon="17.6567054">
        <ele>0</ele>
        <time>2014-06-29T10:39:07Z</time>
      </trkpt>
      <trkpt lat="59.8407803" lon="17.6567042">
        <ele>0</ele>
        <time>2014-06-29T10:39:08Z</time>
      </trkpt>
      <trkpt lat="59.8407531" lon="17.6567061">
        <ele>0</ele>
        <time>2014-06-29T10:39:09Z</time>
      </trkpt>
      <trkpt lat="59.8407262" lon="17.656727">
        <ele>0</ele>
        <time>2014-06-29T10:39:10Z</time>
      </trkpt>
      <trkpt lat="59.8406989" lon="17.6567452">
        <ele>0</ele>
        <time>2014-06-29T10:39:11Z</time>
      </trkpt>
      <trkpt lat="59.8406703" lon="17.6567743">
        <ele>0</ele>
        <time>2014-06-29T10:39:12Z</time>
      </trkpt>
      <trkpt lat="59.8406414" lon="17.656783">
        <ele>0</ele>
        <time>2014-06-29T10:39:13Z</time>
      </trkpt>
      <trkpt lat="59.8406153" lon="17.656783">
        <ele>0</ele>
        <time>2014-06-29T10:39:14Z</time>
      </trkpt>
      <trkpt lat="59.8405897" lon="17.6567799">
        <ele>0</ele>
        <time>2014-06-29T10:39:15Z</time>
      </trkpt>
      <trkpt lat="59.8405588" lon="17.6567932">
        <ele>0</ele>
        <time>2014-06-29T10:39:16Z</time>
      </trkpt>
      <trkpt lat="59.8405283" lon="17.6567985">
        <ele>0</ele>
        <time>2014-06-29T10:39:17Z</time>
      </trkpt>
      <trkpt lat="59.8405021" lon="17.6567971">
        <ele>0</ele>
        <time>2014-06-29T10:39:18Z</time>
      </trkpt>
      <trkpt lat="59.8404788" lon="17.6568016">
        <ele>0</ele>
        <time>2014-06-29T10:39:19Z</time>
      </trkpt>
      <trkpt lat="59.8404561" lon="17.6567974">
        <ele>0</ele>
        <time>2014-06-29T10:39:20Z</time>
      </trkpt>
      <trkpt lat="59.8404317" lon="17.6568053">
        <ele>0</ele>
        <time>2014-06-29T10:39:21Z</time>
      </trkpt>
      <trkpt lat="59.840407" lon="17.6568099">
        <ele>0</ele>
        <time>2014-06-29T10:39:22Z</time>
      </trkpt>
      <trkpt lat="59.8403804" lon="17.6568136">
        <ele>0</ele>
        <time>2014-06-29T10:39:23Z</time>
      </trkpt>
      <trkpt lat="59.8403568" lon="17.6568188">
        <ele>0</ele>
        <time>2014-06-29T10:39:24Z</time>
      </trkpt>
      <trkpt lat="59.8403297" lon="17.6568209">
        <ele>0</ele>
        <time>2014-06-29T10:39:25Z</time>
      </trkpt>
      <trkpt lat="59.8402996" lon="17.6568222">
        <ele>0</ele>
        <time>2014-06-29T10:39:26Z</time>
      </trkpt>
      <trkpt lat="59.8402705" lon="17.6568182">
        <ele>0.137451</ele>
        <time>2014-06-29T10:39:27Z</time>
      </trkpt>
      <trkpt lat="59.8402393" lon="17.6568198">
        <ele>0.137451</ele>
        <time>2014-06-29T10:39:28Z</time>
      </trkpt>
      <trkpt lat="59.8402113" lon="17.6568197">
        <ele>0.618042</ele>
        <time>2014-06-29T10:39:29Z</time>
      </trkpt>
      <trkpt lat="59.8401834" lon="17.6568212">
        <ele>1.09863</ele>
        <time>2014-06-29T10:39:30Z</time>
      </trkpt>
      <trkpt lat="59.840155" lon="17.6568208">
        <ele>0.618042</ele>
        <time>2014-06-29T10:39:31Z</time>
      </trkpt>
      <trkpt lat="59.8401248" lon="17.6568228">
        <ele>0.137451</ele>
        <time>2014-06-29T10:39:32Z</time>
      </trkpt>
      <trkpt lat="59.8400968" lon="17.656831">
        <ele>0.137451</ele>
        <time>2014-06-29T10:39:33Z</time>
      </trkpt>
      <trkpt lat="59.8400668" lon="17.6568374">
        <ele>0.618042</ele>
        <time>2014-06-29T10:39:34Z</time>
      </trkpt>
      <trkpt lat="59.8400368" lon="17.6568441">
        <ele>1.09863</ele>
        <time>2014-06-29T10:39:35Z</time>
      </trkpt>
      <trkpt lat="59.840013" lon="17.6568483">
        <ele>1.09863</ele>
        <time>2014-06-29T10:39:36Z</time>
      </trkpt>
      <trkpt lat="59.8399866" lon="17.6568429">
        <ele>1.09863</ele>
        <time>2014-06-29T10:39:37Z</time>
      </trkpt>
      <trkpt lat="59.8399561" lon="17.6568354">
        <ele>1.09863</ele>
        <time>2014-06-29T10:39:38Z</time>
      </trkpt>
      <trkpt lat="59.8399333" lon="17.6568224">
        <ele>2.06006</ele>
        <time>2014-06-29T10:39:39Z</time>
      </trkpt>
      <trkpt lat="59.8399105" lon="17.6568099">
        <ele>1.57935</ele>
        <time>2014-06-29T10:39:40Z</time>
      </trkpt>
      <trkpt lat="59.8398862" lon="17.6568105">
        <ele>1.57935</ele>
        <time>2014-06-29T10:39:41Z</time>
      </trkpt>
      <trkpt lat="59.8398602" lon="17.6568204">
        <ele>1.09863</ele>
        <time>2014-06-29T10:39:42Z</time>
      </trkpt>
      <trkpt lat="59.8398333" lon="17.6568331">
        <ele>1.09863</ele>
        <time>2014-06-29T10:39:43Z</time>
      </trkpt>
      <trkpt lat="59.8398053" lon="17.6568333">
        <ele>0.137451</ele>
        <time>2014-06-29T10:39:44Z</time>
      </trkpt>
      <trkpt lat="59.8397816" lon="17.6568343">
        <ele>0.137451</ele>
        <time>2014-06-29T10:39:45Z</time>
      </trkpt>
      <trkpt lat="59.8397559" lon="17.656841">
        <ele>0.618042</ele>
        <time>2014-06-29T10:39:46Z</time>
      </trkpt>
      <trkpt lat="59.8397312" lon="17.6568368">
        <ele>0.137451</ele>
        <time>2014-06-29T10:39:47Z</time>
      </trkpt>
      <trkpt lat="59.8397059" lon="17.6568348">
        <ele>1.57935</ele>
        <time>2014-06-29T10:39:48Z</time>
      </trkpt>
      <trkpt lat="59.8396754" lon="17.6568358">
        <ele>2.06006</ele>
        <time>2014-06-29T10:39:49Z</time>
      </trkpt>
      <trkpt lat="59.8396485" lon="17.6568398">
        <ele>2.54065</ele>
        <time>2014-06-29T10:39:50Z</time>
      </trkpt>
      <trkpt lat="59.8396252" lon="17.6568452">
        <ele>1.57935</ele>
        <time>2014-06-29T10:39:51Z</time>
      </trkpt>
      <trkpt lat="59.8396031" lon="17.6568478">
        <ele>1.57935</ele>
        <time>2014-06-29T10:39:52Z</time>
      </trkpt>
      <trkpt lat="59.8395727" lon="17.6568446">
        <ele>1.09863</ele>
        <time>2014-06-29T10:39:53Z</time>
      </trkpt>
      <trkpt lat="59.8395426" lon="17.656851">
        <ele>1.09863</ele>
        <time>2014-06-29T10:39:54Z</time>
      </trkpt>
      <trkpt lat="59.8395178" lon="17.656852">
        <ele>1.57935</ele>
        <time>2014-06-29T10:39:55Z</time>
      </trkpt>
      <trkpt lat="59.8394941" lon="17.6568535">
        <ele>1.09863</ele>
        <time>2014-06-29T10:39:56Z</time>
      </trkpt>
      <trkpt lat="59.8394687" lon="17.6568602">
        <ele>2.06006</ele>
        <time>2014-06-29T10:39:57Z</time>
      </trkpt>
      <trkpt lat="59.8394407" lon="17.656865">
        <ele>3.02124</ele>
        <time>2014-06-29T10:39:58Z</time>
      </trkpt>
      <trkpt lat="59.8394161" lon="17.6568714">
        <ele>2.54065</ele>
        <time>2014-06-29T10:39:59Z</time>
      </trkpt>
      <trkpt lat="59.839391" lon="17.65687">
        <ele>2.54065</ele>
        <time>2014-06-29T10:40:00Z</time>
      </trkpt>
      <trkpt lat="59.8393615" lon="17.6568674">
        <ele>2.06006</ele>
        <time>2014-06-29T10:40:01Z</time>
      </trkpt>
      <trkpt lat="59.8393366" lon="17.6568741">
        <ele>1.57935</ele>
        <time>2014-06-29T10:40:02Z</time>
      </trkpt>
      <trkpt lat="59.8393109" lon="17.6568797">
        <ele>1.09863</ele>
        <time>2014-06-29T10:40:03Z</time>
      </trkpt>
      <trkpt lat="59.8392843" lon="17.6568897">
        <ele>1.09863</ele>
        <time>2014-06-29T10:40:04Z</time>
      </trkpt>
      <trkpt lat="59.8392563" lon="17.6568913">
        <ele>0.137451</ele>
        <time>2014-06-29T10:40:05Z</time>
      </trkpt>
      <trkpt lat="59.8392324" lon="17.6568835">
        <ele>0</ele>
        <time>2014-06-29T10:40:06Z</time>
      </trkpt>
      <trkpt lat="59.8392125" lon="17.6568757">
        <ele>0</ele>
        <time>2014-06-29T10:40:07Z</time>
      </trkpt>
      <trkpt lat="59.8391924" lon="17.6568735">
        <ele>0</ele>
        <time>2014-06-29T10:40:08Z</time>
      </trkpt>
      <trkpt lat="59.8391711" lon="17.6568779">
        <ele>0</ele>
        <time>2014-06-29T10:40:09Z</time>
      </trkpt>
      <trkpt lat="59.8391481" lon="17.6568793">
        <ele>0</ele>
        <time>2014-06-29T10:40:10Z</time>
      </trkpt>
      <trkpt lat="59.8391243" lon="17.6568812">
        <ele>0</ele>
        <time>2014-06-29T10:40:11Z</time>
      </trkpt>
      <trkpt lat="59.8390976" lon="17.6568793">
        <ele>0</ele>
        <time>2014-06-29T10:40:12Z</time>
      </trkpt>
      <trkpt lat="59.8390708" lon="17.6568793">
        <ele>0</ele>
        <time>2014-06-29T10:40:13Z</time>
      </trkpt>
      <trkpt lat="59.8390442" lon="17.6568748">
        <ele>0</ele>
        <time>2014-06-29T10:40:14Z</time>
      </trkpt>
      <trkpt lat="59.8390174" lon="17.6568698">
        <ele>0</ele>
        <time>2014-06-29T10:40:15Z</time>
      </trkpt>
      <trkpt lat="59.8389893" lon="17.6568659">
        <ele>0</ele>
        <time>2014-06-29T10:40:16Z</time>
      </trkpt>
      <trkpt lat="59.838964" lon="17.656865">
        <ele>0</ele>
        <time>2014-06-29T10:40:17Z</time>
      </trkpt>
      <trkpt lat="59.8389372" lon="17.6568694">
        <ele>0</ele>
        <time>2014-06-29T10:40:18Z</time>
      </trkpt>
      <trkpt lat="59.8389137" lon="17.6568794">
        <ele>0</ele>
        <time>2014-06-29T10:40:19Z</time>
      </trkpt>
      <trkpt lat="59.8388863" lon="17.6568857">
        <ele>0</ele>
        <time>2014-06-29T10:40:20Z</time>
      </trkpt>
      <trkpt lat="59.8388582" lon="17.656895">
        <ele>0</ele>
        <time>2014-06-29T10:40:21Z</time>
      </trkpt>
      <trkpt lat="59.8388351" lon="17.6569015">
        <ele>0</ele>
        <time>2014-06-29T10:40:22Z</time>
      </trkpt>
      <trkpt lat="59.8388077" lon="17.6569074">
        <ele>0</ele>
        <time>2014-06-29T10:40:23Z</time>
      </trkpt>
      <trkpt lat="59.8387827" lon="17.6569073">
        <ele>0</ele>
        <time>2014-06-29T10:40:24Z</time>
      </trkpt>
      <trkpt lat="59.8387563" lon="17.6569079">
        <ele>0</ele>
        <time>2014-06-29T10:40:25Z</time>
      </trkpt>
      <trkpt lat="59.8387261" lon="17.6569057">
        <ele>0</ele>
        <time>2014-06-29T10:40:26Z</time>
      </trkpt>
      <trkpt lat="59.8386983" lon="17.656899">
        <ele>0</ele>
        <time>2014-06-29T10:40:27Z</time>
      </trkpt>
      <trkpt lat="59.8386683" lon="17.6568994">
        <ele>0</ele>
        <time>2014-06-29T10:40:28Z</time>
      </trkpt>
      <trkpt lat="59.8386403" lon="17.656899">
        <ele>0</ele>
        <time>2014-06-29T10:40:29Z</time>
      </trkpt>
      <trkpt lat="59.8386149" lon="17.6569059">
        <ele>0</ele>
        <time>2014-06-29T10:40:30Z</time>
      </trkpt>
      <trkpt lat="59.8385875" lon="17.6569099">
        <ele>0</ele>
        <time>2014-06-29T10:40:31Z</time>
      </trkpt>
      <trkpt lat="59.8385612" lon="17.6569125">
        <ele>0</ele>
        <time>2014-06-29T10:40:32Z</time>
      </trkpt>
      <trkpt lat="59.8385321" lon="17.6569223">
        <ele>0</ele>
        <time>2014-06-29T10:40:33Z</time>
      </trkpt>
      <trkpt lat="59.8385005" lon="17.656941">
        <ele>0</ele>
        <time>2014-06-29T10:40:34Z</time>
      </trkpt>
      <trkpt lat="59.8384713" lon="17.6569493">
        <ele>0</ele>
        <time>2014-06-29T10:40:35Z</time>
      </trkpt>
      <trkpt lat="59.8384414" lon="17.6569592">
        <ele>0</ele>
        <time>2014-06-29T10:40:36Z</time>
      </trkpt>
      <trkpt lat="59.8384124" lon="17.6569622">
        <ele>0</ele>
        <time>2014-06-29T10:40:37Z</time>
      </trkpt>
      <trkpt lat="59.8383855" lon="17.6569622">
        <ele>0</ele>
        <time>2014-06-29T10:40:38Z</time>
      </trkpt>
      <trkpt lat="59.8383612" lon="17.6569669">
        <ele>0</ele>
        <time>2014-06-29T10:40:39Z</time>
      </trkpt>
      <trkpt lat="59.8383364" lon="17.6569667">
        <ele>0</ele>
        <time>2014-06-29T10:40:40Z</time>
      </trkpt>
      <trkpt lat="59.8383078" lon="17.6569714">
        <ele>0</ele>
        <time>2014-06-29T10:40:41Z</time>
      </trkpt>
      <trkpt lat="59.8382796" lon="17.6569793">
        <ele>0</ele>
        <time>2014-06-29T10:40:42Z</time>
      </trkpt>
      <trkpt lat="59.8382513" lon="17.6569857">
        <ele>0</ele>
        <time>2014-06-29T10:40:43Z</time>
      </trkpt>
      <trkpt lat="59.8382216" lon="17.6569995">
        <ele>0</ele>
        <time>2014-06-29T10:40:44Z</time>
      </trkpt>
      <trkpt lat="59.8381959" lon="17.6570057">
        <ele>0</ele>
        <time>2014-06-29T10:40:45Z</time>
      </trkpt>
      <trkpt lat="59.8381692" lon="17.657009">
        <ele>0</ele>
        <time>2014-06-29T10:40:46Z</time>
      </trkpt>
      <trkpt lat="59.8381435" lon="17.6570082">
        <ele>0</ele>
        <time>2014-06-29T10:40:47Z</time>
      </trkpt>
      <trkpt lat="59.8381181" lon="17.6570145">
        <ele>0</ele>
        <time>2014-06-29T10:40:48Z</time>
      </trkpt>
      <trkpt lat="59.8380907" lon="17.6570295">
        <ele>0</ele>
        <time>2014-06-29T10:40:49Z</time>
      </trkpt>
      <trkpt lat="59.8380643" lon="17.6570425">
        <ele>0</ele>
        <time>2014-06-29T10:40:50Z</time>
      </trkpt>
      <trkpt lat="59.8380411" lon="17.6570535">
        <ele>0</ele>
        <time>2014-06-29T10:40:51Z</time>
      </trkpt>
      <trkpt lat="59.8380223" lon="17.6570647">
        <ele>0</ele>
        <time>2014-06-29T10:40:52Z</time>
      </trkpt>
      <trkpt lat="59.8379994" lon="17.6570708">
        <ele>0</ele>
        <time>2014-06-29T10:40:53Z</time>
      </trkpt>
      <trkpt lat="59.837974" lon="17.6570752">
        <ele>0</ele>
        <time>2014-06-29T10:40:54Z</time>
      </trkpt>
      <trkpt lat="59.8379478" lon="17.657069">
        <ele>0</ele>
        <time>2014-06-29T10:40:55Z</time>
      </trkpt>
      <trkpt lat="59.8379224" lon="17.65706">
        <ele>0</ele>
        <time>2014-06-29T10:40:56Z</time>
      </trkpt>
      <trkpt lat="59.8378966" lon="17.6570584">
        <ele>0</ele>
        <time>2014-06-29T10:40:57Z</time>
      </trkpt>
      <trkpt lat="59.8378693" lon="17.6570561">
        <ele>0</ele>
        <time>2014-06-29T10:40:58Z</time>
      </trkpt>
      <trkpt lat="59.8378409" lon="17.6570497">
        <ele>0</ele>
        <time>2014-06-29T10:40:59Z</time>
      </trkpt>
      <trkpt lat="59.8378124" lon="17.6570483">
        <ele>0</ele>
        <time>2014-06-29T10:41:00Z</time>
      </trkpt>
      <trkpt lat="59.8377867" lon="17.6570597">
        <ele>0</ele>
        <time>2014-06-29T10:41:01Z</time>
      </trkpt>
      <trkpt lat="59.8377628" lon="17.6570638">
        <ele>0</ele>
        <time>2014-06-29T10:41:02Z</time>
      </trkpt>
      <trkpt lat="59.8377354" lon="17.6570622">
        <ele>0</ele>
        <time>2014-06-29T10:41:03Z</time>
      </trkpt>
      <trkpt lat="59.837712" lon="17.6570643">
        <ele>0</ele>
        <time>2014-06-29T10:41:04Z</time>
      </trkpt>
      <trkpt lat="59.8376877" lon="17.6570665">
        <ele>0</ele>
        <time>2014-06-29T10:41:05Z</time>
      </trkpt>
      <trkpt lat="59.8376609" lon="17.6570741">
        <ele>0</ele>
        <time>2014-06-29T10:41:06Z</time>
      </trkpt>
      <trkpt lat="59.8376323" lon="17.6570752">
        <ele>0</ele>
        <time>2014-06-29T10:41:07Z</time>
      </trkpt>
      <trkpt lat="59.8376063" lon="17.6570718">
        <ele>0</ele>
        <time>2014-06-29T10:41:08Z</time>
      </trkpt>
      <trkpt lat="59.8375808" lon="17.6570719">
        <ele>0</ele>
        <time>2014-06-29T10:41:09Z</time>
      </trkpt>
      <trkpt lat="59.8375552" lon="17.6570716">
        <ele>0</ele>
        <time>2014-06-29T10:41:10Z</time>
      </trkpt>
      <trkpt lat="59.8375283" lon="17.6570727">
        <ele>0</ele>
        <time>2014-06-29T10:41:11Z</time>
      </trkpt>
      <trkpt lat="59.8375036" lon="17.6570719">
        <ele>0</ele>
        <time>2014-06-29T10:41:12Z</time>
      </trkpt>
      <trkpt lat="59.8374775" lon="17.6570608">
        <ele>0</ele>
        <time>2014-06-29T10:41:13Z</time>
      </trkpt>
      <trkpt lat="59.8374537" lon="17.6570549">
        <ele>0</ele>
        <time>2014-06-29T10:41:14Z</time>
      </trkpt>
      <trkpt lat="59.8374329" lon="17.6570435">
        <ele>0</ele>
        <time>2014-06-29T10:41:15Z</time>
      </trkpt>
      <trkpt lat="59.8374158" lon="17.6570294">
        <ele>0</ele>
        <time>2014-06-29T10:41:16Z</time>
      </trkpt>
      <trkpt lat="59.8374038" lon="17.657003">
        <ele>0</ele>
        <time>2014-06-29T10:41:17Z</time>
      </trkpt>
      <trkpt lat="59.8373984" lon="17.6569651">
        <ele>0</ele>
        <time>2014-06-29T10:41:18Z</time>
      </trkpt>
      <trkpt lat="59.837395" lon="17.656923">
        <ele>0</ele>
        <time>2014-06-29T10:41:19Z</time>
      </trkpt>
      <trkpt lat="59.8373882" lon="17.6568705">
        <ele>0</ele>
        <time>2014-06-29T10:41:20Z</time>
      </trkpt>
      <trkpt lat="59.8373788" lon="17.6568087">
        <ele>0</ele>
        <time>2014-06-29T10:41:21Z</time>
      </trkpt>
      <trkpt lat="59.8373712" lon="17.6567551">
        <ele>0</ele>
        <time>2014-06-29T10:41:22Z</time>
      </trkpt>
      <trkpt lat="59.8373599" lon="17.6567082">
        <ele>0</ele>
        <time>2014-06-29T10:41:23Z</time>
      </trkpt>
      <trkpt lat="59.8373577" lon="17.6566743">
        <ele>0</ele>
        <time>2014-06-29T10:41:24Z</time>
      </trkpt>
      <trkpt lat="59.837352" lon="17.6566239">
        <ele>0</ele>
        <time>2014-06-29T10:41:25Z</time>
      </trkpt>
      <trkpt lat="59.8373546" lon="17.6565639">
        <ele>0</ele>
        <time>2014-06-29T10:41:26Z</time>
      </trkpt>
      <trkpt lat="59.8373622" lon="17.6565067">
        <ele>0</ele>
        <time>2014-06-29T10:41:27Z</time>
      </trkpt>
      <trkpt lat="59.8373614" lon="17.6564514">
        <ele>0</ele>
        <time>2014-06-29T10:41:28Z</time>
      </trkpt>
      <trkpt lat="59.8373467" lon="17.6563835">
        <ele>0</ele>
        <time>2014-06-29T10:41:29Z</time>
      </trkpt>
      <trkpt lat="59.8373376" lon="17.6563246">
        <ele>1.09863</ele>
        <time>2014-06-29T10:41:30Z</time>
      </trkpt>
      <trkpt lat="59.8373176" lon="17.6562438">
        <ele>0</ele>
        <time>2014-06-29T10:41:31Z</time>
      </trkpt>
      <trkpt lat="59.8373119" lon="17.6561816">
        <ele>0.137451</ele>
        <time>2014-06-29T10:41:32Z</time>
      </trkpt>
      <trkpt lat="59.8373043" lon="17.6561177">
        <ele>1.09863</ele>
        <time>2014-06-29T10:41:33Z</time>
      </trkpt>
      <trkpt lat="59.837293" lon="17.6560516">
        <ele>1.57935</ele>
        <time>2014-06-29T10:41:34Z</time>
      </trkpt>
      <trkpt lat="59.8372793" lon="17.6559786">
        <ele>0.618042</ele>
        <time>2014-06-29T10:41:35Z</time>
      </trkpt>
      <trkpt lat="59.8372786" lon="17.6559134">
        <ele>0.618042</ele>
        <time>2014-06-29T10:41:36Z</time>
      </trkpt>
      <trkpt lat="59.8372816" lon="17.6558588">
        <ele>2.06006</ele>
        <time>2014-06-29T10:41:37Z</time>
      </trkpt>
      <trkpt lat="59.8372798" lon="17.6557992">
        <ele>2.06006</ele>
        <time>2014-06-29T10:41:38Z</time>
      </trkpt>
      <trkpt lat="59.8372812" lon="17.6557408">
        <ele>1.57935</ele>
        <time>2014-06-29T10:41:39Z</time>
      </trkpt>
      <trkpt lat="59.8372827" lon="17.6556867">
        <ele>2.06006</ele>
        <time>2014-06-29T10:41:40Z</time>
      </trkpt>
      <trkpt lat="59.8372779" lon="17.6556274">
        <ele>2.54065</ele>
        <time>2014-06-29T10:41:41Z</time>
      </trkpt>
      <trkpt lat="59.8372701" lon="17.6555658">
        <ele>3.02124</ele>
        <time>2014-06-29T10:41:42Z</time>
      </trkpt>
      <trkpt lat="59.8372627" lon="17.6555055">
        <ele>2.54065</ele>
        <time>2014-06-29T10:41:43Z</time>
      </trkpt>
      <trkpt lat="59.8372588" lon="17.6554439">
        <ele>3.02124</ele>
        <time>2014-06-29T10:41:44Z</time>
      </trkpt>
      <trkpt lat="59.8372562" lon="17.6553811">
        <ele>3.98267</ele>
        <time>2014-06-29T10:41:45Z</time>
      </trkpt>
      <trkpt lat="59.8372545" lon="17.655316">
        <ele>4.46326</ele>
        <time>2014-06-29T10:41:46Z</time>
      </trkpt>
      <trkpt lat="59.8372535" lon="17.6552526">
        <ele>4.46326</ele>
        <time>2014-06-29T10:41:47Z</time>
      </trkpt>
      <trkpt lat="59.8372572" lon="17.6551948">
        <ele>4.46326</ele>
        <time>2014-06-29T10:41:48Z</time>
      </trkpt>
      <trkpt lat="59.8372722" lon="17.6551564">
        <ele>4.94385</ele>
        <time>2014-06-29T10:41:49Z</time>
      </trkpt>
      <trkpt lat="59.8372945" lon="17.6551362">
        <ele>4.94385</ele>
        <time>2014-06-29T10:41:50Z</time>
      </trkpt>
      <trkpt lat="59.8373244" lon="17.6551281">
        <ele>5.42456</ele>
        <time>2014-06-29T10:41:51Z</time>
      </trkpt>
      <trkpt lat="59.8373506" lon="17.6551226">
        <ele>5.90527</ele>
        <time>2014-06-29T10:41:52Z</time>
      </trkpt>
      <trkpt lat="59.8373784" lon="17.6551196">
        <ele>6.38586</ele>
        <time>2014-06-29T10:41:53Z</time>
      </trkpt>
      <trkpt lat="59.837405" lon="17.6551217">
        <ele>5.90527</ele>
        <time>2014-06-29T10:41:54Z</time>
      </trkpt>
      <trkpt lat="59.8374313" lon="17.6551186">
        <ele>5.90527</ele>
        <time>2014-06-29T10:41:55Z</time>
      </trkpt>
      <trkpt lat="59.8374591" lon="17.6551164">
        <ele>5.90527</ele>
        <time>2014-06-29T10:41:56Z</time>
      </trkpt>
      <trkpt lat="59.8374914" lon="17.655126">
        <ele>5.90527</ele>
        <time>2014-06-29T10:41:57Z</time>
      </trkpt>
      <trkpt lat="59.8375214" lon="17.6551315">
        <ele>5.90527</ele>
        <time>2014-06-29T10:41:58Z</time>
      </trkpt>
      <trkpt lat="59.8375504" lon="17.6551285">
        <ele>5.90527</ele>
        <time>2014-06-29T10:41:59Z</time>
      </trkpt>
      <trkpt lat="59.8375779" lon="17.6551223">
        <ele>5.90527</ele>
        <time>2014-06-29T10:42:00Z</time>
      </trkpt>
      <trkpt lat="59.8376062" lon="17.655118">
        <ele>5.42456</ele>
        <time>2014-06-29T10:42:01Z</time>
      </trkpt>
      <trkpt lat="59.8376358" lon="17.6551207">
        <ele>5.42456</ele>
        <time>2014-06-29T10:42:02Z</time>
      </trkpt>
      <trkpt lat="59.8376628" lon="17.6551243">
        <ele>4.94385</ele>
        <time>2014-06-29T10:42:03Z</time>
      </trkpt>
      <trkpt lat="59.8376924" lon="17.6551258">
        <ele>4.46326</ele>
        <time>2014-06-29T10:42:04Z</time>
      </trkpt>
      <trkpt lat="59.8377219" lon="17.6551295">
        <ele>3.98267</ele>
        <time>2014-06-29T10:42:05Z</time>
      </trkpt>
      <trkpt lat="59.8377488" lon="17.6551285">
        <ele>3.98267</ele>
        <time>2014-06-29T10:42:06Z</time>
      </trkpt>
      <trkpt lat="59.8377737" lon="17.6551301">
        <ele>3.50195</ele>
        <time>2014-06-29T10:42:07Z</time>
      </trkpt>
      <trkpt lat="59.8377952" lon="17.6551321">
        <ele>2.54065</ele>
        <time>2014-06-29T10:42:08Z</time>
      </trkpt>
      <trkpt lat="59.8378139" lon="17.6551286">
        <ele>1.09863</ele>
        <time>2014-06-29T10:42:09Z</time>
      </trkpt>
      <trkpt lat="59.8378369" lon="17.655128">
        <ele>0.137451</ele>
        <time>2014-06-29T10:42:10Z</time>
      </trkpt>
      <trkpt lat="59.8378565" lon="17.655121">
        <ele>0</ele>
        <time>2014-06-29T10:42:11Z</time>
      </trkpt>
      <trkpt lat="59.8378773" lon="17.6551198">
        <ele>0</ele>
        <time>2014-06-29T10:42:12Z</time>
      </trkpt>
      <trkpt lat="59.8378965" lon="17.6551255">
        <ele>0</ele>
        <time>2014-06-29T10:42:13Z</time>
      </trkpt>
      <trkpt lat="59.8379146" lon="17.6551264">
        <ele>0</ele>
        <time>2014-06-29T10:42:14Z</time>
      </trkpt>
      <trkpt lat="59.8379388" lon="17.655127">
        <ele>0</ele>
        <time>2014-06-29T10:42:15Z</time>
      </trkpt>
      <trkpt lat="59.8379633" lon="17.6551291">
        <ele>0</ele>
        <time>2014-06-29T10:42:16Z</time>
      </trkpt>
      <trkpt lat="59.837987" lon="17.6551363">
        <ele>0</ele>
        <time>2014-06-29T10:42:17Z</time>
      </trkpt>
      <trkpt lat="59.8380089" lon="17.6551407">
        <ele>0</ele>
        <time>2014-06-29T10:42:18Z</time>
      </trkpt>
      <trkpt lat="59.8380425" lon="17.6551329">
        <ele>0</ele>
        <time>2014-06-29T10:42:19Z</time>
      </trkpt>
      <trkpt lat="59.8380731" lon="17.6551281">
        <ele>0</ele>
        <time>2014-06-29T10:42:20Z</time>
      </trkpt>
      <trkpt lat="59.8381152" lon="17.6551193">
        <ele>0</ele>
        <time>2014-06-29T10:42:21Z</time>
      </trkpt>
      <trkpt lat="59.8381404" lon="17.6551187">
        <ele>0</ele>
        <time>2014-06-29T10:42:22Z</time>
      </trkpt>
      <trkpt lat="59.8381663" lon="17.6551186">
        <ele>0</ele>
        <time>2014-06-29T10:42:23Z</time>
      </trkpt>
      <trkpt lat="59.8382131" lon="17.6551107">
        <ele>3.02124</ele>
        <time>2014-06-29T10:42:24Z</time>
      </trkpt>
      <trkpt lat="59.8382472" lon="17.6551096">
        <ele>3.98267</ele>
        <time>2014-06-29T10:42:25Z</time>
      </trkpt>
      <trkpt lat="59.8382839" lon="17.6551046">
        <ele>5.90527</ele>
        <time>2014-06-29T10:42:26Z</time>
      </trkpt>
      <trkpt lat="59.8383171" lon="17.6550996">
        <ele>6.38586</ele>
        <time>2014-06-29T10:42:27Z</time>
      </trkpt>
      <trkpt lat="59.8383513" lon="17.6550975">
        <ele>6.86646</ele>
        <time>2014-06-29T10:42:28Z</time>
      </trkpt>
      <trkpt lat="59.8383791" lon="17.655096">
        <ele>6.38586</ele>
        <time>2014-06-29T10:42:29Z</time>
      </trkpt>
      <trkpt lat="59.8384051" lon="17.6550944">
        <ele>5.42456</ele>
        <time>2014-06-29T10:42:30Z</time>
      </trkpt>
      <trkpt lat="59.8384309" lon="17.6550933">
        <ele>4.94385</ele>
        <time>2014-06-29T10:42:31Z</time>
      </trkpt>
      <trkpt lat="59.8384626" lon="17.6550933">
        <ele>6.38586</ele>
        <time>2014-06-29T10:42:32Z</time>
      </trkpt>
      <trkpt lat="59.8384826" lon="17.6550984">
        <ele>4.94385</ele>
        <time>2014-06-29T10:42:33Z</time>
      </trkpt>
      <trkpt lat="59.8385092" lon="17.6550875">
        <ele>5.42456</ele>
        <time>2014-06-29T10:42:34Z</time>
      </trkpt>
      <trkpt lat="59.8385393" lon="17.6550689">
        <ele>5.90527</ele>
        <time>2014-06-29T10:42:35Z</time>
      </trkpt>
      <trkpt lat="59.8385694" lon="17.6550488">
        <ele>5.42456</ele>
        <time>2014-06-29T10:42:36Z</time>
      </trkpt>
      <trkpt lat="59.8385987" lon="17.6550255">
        <ele>5.42456</ele>
        <time>2014-06-29T10:42:37Z</time>
      </trkpt>
      <trkpt lat="59.8386253" lon="17.6550026">
        <ele>5.42456</ele>
        <time>2014-06-29T10:42:38Z</time>
      </trkpt>
      <trkpt lat="59.8386506" lon="17.654978">
        <ele>5.42456</ele>
        <time>2014-06-29T10:42:39Z</time>
      </trkpt>
      <trkpt lat="59.8386723" lon="17.6549461">
        <ele>4.46326</ele>
        <time>2014-06-29T10:42:40Z</time>
      </trkpt>
      <trkpt lat="59.8387" lon="17.6549128">
        <ele>4.46326</ele>
        <time>2014-06-29T10:42:41Z</time>
      </trkpt>
      <trkpt lat="59.8387256" lon="17.6548804">
        <ele>3.98267</ele>
        <time>2014-06-29T10:42:42Z</time>
      </trkpt>
      <trkpt lat="59.8387527" lon="17.6548473">
        <ele>4.46326</ele>
        <time>2014-06-29T10:42:43Z</time>
      </trkpt>
      <trkpt lat="59.8387792" lon="17.6548218">
        <ele>4.46326</ele>
        <time>2014-06-29T10:42:44Z</time>
      </trkpt>
      <trkpt lat="59.8388075" lon="17.6547984">
        <ele>4.94385</ele>
        <time>2014-06-29T10:42:45Z</time>
      </trkpt>
      <trkpt lat="59.8388341" lon="17.6547711">
        <ele>5.42456</ele>
        <time>2014-06-29T10:42:46Z</time>
      </trkpt>
      <trkpt lat="59.8388584" lon="17.6547415">
        <ele>5.90527</ele>
        <time>2014-06-29T10:42:47Z</time>
      </trkpt>
      <trkpt lat="59.8388786" lon="17.6547095">
        <ele>5.90527</ele>
        <time>2014-06-29T10:42:48Z</time>
      </trkpt>
      <trkpt lat="59.838903" lon="17.6546909">
        <ele>5.90527</ele>
        <time>2014-06-29T10:42:49Z</time>
      </trkpt>
      <trkpt lat="59.8389245" lon="17.6546773">
        <ele>5.90527</ele>
        <time>2014-06-29T10:42:50Z</time>
      </trkpt>
      <trkpt lat="59.8389485" lon="17.6546576">
        <ele>5.42456</ele>
        <time>2014-06-29T10:42:51Z</time>
      </trkpt>
      <trkpt lat="59.8389765" lon="17.6546478">
        <ele>4.94385</ele>
        <time>2014-06-29T10:42:52Z</time>
      </trkpt>
      <trkpt lat="59.8389976" lon="17.6546391">
        <ele>3.98267</ele>
        <time>2014-06-29T10:42:53Z</time>
      </trkpt>
      <trkpt lat="59.8390252" lon="17.6546368">
        <ele>4.46326</ele>
        <time>2014-06-29T10:42:54Z</time>
      </trkpt>
      <trkpt lat="59.8390516" lon="17.654639">
        <ele>3.98267</ele>
        <time>2014-06-29T10:42:55Z</time>
      </trkpt>
      <trkpt lat="59.8390833" lon="17.6546431">
        <ele>4.94385</ele>
        <time>2014-06-29T10:42:56Z</time>
      </trkpt>
      <trkpt lat="59.8391111" lon="17.6546519">
        <ele>4.46326</ele>
        <time>2014-06-29T10:42:57Z</time>
      </trkpt>
      <trkpt lat="59.8391386" lon="17.6546686">
        <ele>4.94385</ele>
        <time>2014-06-29T10:42:58Z</time>
      </trkpt>
      <trkpt lat="59.8391656" lon="17.6546943">
        <ele>6.38586</ele>
        <time>2014-06-29T10:42:59Z</time>
      </trkpt>
      <trkpt lat="59.8391906" lon="17.6547251">
        <ele>6.86646</ele>
        <time>2014-06-29T10:43:00Z</time>
      </trkpt>
      <trkpt lat="59.8392167" lon="17.6547563">
        <ele>7.34717</ele>
        <time>2014-06-29T10:43:01Z</time>
      </trkpt>
      <trkpt lat="59.8392403" lon="17.6547883">
        <ele>7.82788</ele>
        <time>2014-06-29T10:43:02Z</time>
      </trkpt>
      <trkpt lat="59.8392643" lon="17.6548247">
        <ele>8.78918</ele>
        <time>2014-06-29T10:43:03Z</time>
      </trkpt>
      <trkpt lat="59.8392825" lon="17.6548653">
        <ele>9.2699</ele>
        <time>2014-06-29T10:43:04Z</time>
      </trkpt>
      <trkpt lat="59.8393032" lon="17.6549031">
        <ele>10.2312</ele>
        <time>2014-06-29T10:43:05Z</time>
      </trkpt>
      <trkpt lat="59.8393282" lon="17.6549399">
        <ele>11.1925</ele>
        <time>2014-06-29T10:43:06Z</time>
      </trkpt>
      <trkpt lat="59.8393487" lon="17.6549788">
        <ele>11.1925</ele>
        <time>2014-06-29T10:43:07Z</time>
      </trkpt>
      <trkpt lat="59.8393692" lon="17.6550148">
        <ele>11.6732</ele>
        <time>2014-06-29T10:43:08Z</time>
      </trkpt>
      <trkpt lat="59.8393883" lon="17.6550475">
        <ele>11.6732</ele>
        <time>2014-06-29T10:43:09Z</time>
      </trkpt>
      <trkpt lat="59.8394107" lon="17.6550762">
        <ele>11.1925</ele>
        <time>2014-06-29T10:43:10Z</time>
      </trkpt>
      <trkpt lat="59.8394373" lon="17.6551008">
        <ele>11.6732</ele>
        <time>2014-06-29T10:43:11Z</time>
      </trkpt>
      <trkpt lat="59.8394653" lon="17.6551187">
        <ele>11.6732</ele>
        <time>2014-06-29T10:43:12Z</time>
      </trkpt>
      <trkpt lat="59.8394967" lon="17.6551321">
        <ele>12.1538</ele>
        <time>2014-06-29T10:43:13Z</time>
      </trkpt>
      <trkpt lat="59.8395249" lon="17.6551405">
        <ele>12.6344</ele>
        <time>2014-06-29T10:43:14Z</time>
      </trkpt>
      <trkpt lat="59.8395557" lon="17.6551394">
        <ele>14.0764</ele>
        <time>2014-06-29T10:43:15Z</time>
      </trkpt>
      <trkpt lat="59.8395805" lon="17.6551342">
        <ele>14.0764</ele>
        <time>2014-06-29T10:43:16Z</time>
      </trkpt>
      <trkpt lat="59.8396075" lon="17.6551217">
        <ele>14.557</ele>
        <time>2014-06-29T10:43:17Z</time>
      </trkpt>
      <trkpt lat="59.8396311" lon="17.6551074">
        <ele>14.0764</ele>
        <time>2014-06-29T10:43:18Z</time>
      </trkpt>
      <trkpt lat="59.8396552" lon="17.655088">
        <ele>14.0764</ele>
        <time>2014-06-29T10:43:19Z</time>
      </trkpt>
      <trkpt lat="59.8396784" lon="17.6550626">
        <ele>14.0764</ele>
        <time>2014-06-29T10:43:20Z</time>
      </trkpt>
      <trkpt lat="59.8397016" lon="17.6550368">
        <ele>13.5958</ele>
        <time>2014-06-29T10:43:21Z</time>
      </trkpt>
      <trkpt lat="59.8397229" lon="17.6550124">
        <ele>14.0764</ele>
        <time>2014-06-29T10:43:22Z</time>
      </trkpt>
      <trkpt lat="59.8397393" lon="17.6549708">
        <ele>13.1151</ele>
        <time>2014-06-29T10:43:23Z</time>
      </trkpt>
      <trkpt lat="59.8397644" lon="17.6549296">
        <ele>14.0764</ele>
        <time>2014-06-29T10:43:24Z</time>
      </trkpt>
      <trkpt lat="59.8397881" lon="17.6549017">
        <ele>14.0764</ele>
        <time>2014-06-29T10:43:25Z</time>
      </trkpt>
      <trkpt lat="59.8398099" lon="17.654868">
        <ele>13.5958</ele>
        <time>2014-06-29T10:43:26Z</time>
      </trkpt>
      <trkpt lat="59.8398301" lon="17.6548348">
        <ele>13.5958</ele>
        <time>2014-06-29T10:43:27Z</time>
      </trkpt>
      <trkpt lat="59.8398517" lon="17.654812">
        <ele>13.1151</ele>
        <time>2014-06-29T10:43:28Z</time>
      </trkpt>
      <trkpt lat="59.839874" lon="17.6547794">
        <ele>13.1151</ele>
        <time>2014-06-29T10:43:29Z</time>
      </trkpt>
      <trkpt lat="59.839898" lon="17.6547467">
        <ele>13.5958</ele>
        <time>2014-06-29T10:43:30Z</time>
      </trkpt>
      <trkpt lat="59.8399243" lon="17.6547156">
        <ele>14.0764</ele>
        <time>2014-06-29T10:43:31Z</time>
      </trkpt>
      <trkpt lat="59.8399489" lon="17.654684">
        <ele>15.0377</ele>
        <time>2014-06-29T10:43:32Z</time>
      </trkpt>
      <trkpt lat="59.8399678" lon="17.6546372">
        <ele>15.5184</ele>
        <time>2014-06-29T10:43:33Z</time>
      </trkpt>
      <trkpt lat="59.8399849" lon="17.6545861">
        <ele>15.5184</ele>
        <time>2014-06-29T10:43:34Z</time>
      </trkpt>
      <trkpt lat="59.8400014" lon="17.6545343">
        <ele>16.4797</ele>
        <time>2014-06-29T10:43:35Z</time>
      </trkpt>
      <trkpt lat="59.8400147" lon="17.6544784">
        <ele>16.9604</ele>
        <time>2014-06-29T10:43:36Z</time>
      </trkpt>
      <trkpt lat="59.840027" lon="17.654423">
        <ele>17.4412</ele>
        <time>2014-06-29T10:43:37Z</time>
      </trkpt>
      <trkpt lat="59.8400359" lon="17.6543696">
        <ele>18.8831</ele>
        <time>2014-06-29T10:43:38Z</time>
      </trkpt>
      <trkpt lat="59.8400379" lon="17.654314">
        <ele>18.8831</ele>
        <time>2014-06-29T10:43:39Z</time>
      </trkpt>
      <trkpt lat="59.8400399" lon="17.6542622">
        <ele>19.3638</ele>
        <time>2014-06-29T10:43:40Z</time>
      </trkpt>
      <trkpt lat="59.8400408" lon="17.6542095">
        <ele>20.8057</ele>
        <time>2014-06-29T10:43:41Z</time>
      </trkpt>
      <trkpt lat="59.8400369" lon="17.6541544">
        <ele>20.325</ele>
        <time>2014-06-29T10:43:42Z</time>
      </trkpt>
      <trkpt lat="59.8400365" lon="17.6541024">
        <ele>21.767</ele>
        <time>2014-06-29T10:43:43Z</time>
      </trkpt>
      <trkpt lat="59.8400229" lon="17.6540385">
        <ele>21.2864</ele>
        <time>2014-06-29T10:43:44Z</time>
      </trkpt>
      <trkpt lat="59.8400041" lon="17.6539744">
        <ele>20.325</ele>
        <time>2014-06-29T10:43:45Z</time>
      </trkpt>
      <trkpt lat="59.8399872" lon="17.6539158">
        <ele>20.325</ele>
        <time>2014-06-29T10:43:46Z</time>
      </trkpt>
      <trkpt lat="59.8399773" lon="17.6538603">
        <ele>20.8057</ele>
        <time>2014-06-29T10:43:47Z</time>
      </trkpt>
      <trkpt lat="59.8399733" lon="17.6538065">
        <ele>21.767</ele>
        <time>2014-06-29T10:43:48Z</time>
      </trkpt>
      <trkpt lat="59.8399726" lon="17.6537558">
        <ele>21.767</ele>
        <time>2014-06-29T10:43:49Z</time>
      </trkpt>
      <trkpt lat="59.8399803" lon="17.6537024">
        <ele>21.2864</ele>
        <time>2014-06-29T10:43:50Z</time>
      </trkpt>
      <trkpt lat="59.8399862" lon="17.6536439">
        <ele>21.2864</ele>
        <time>2014-06-29T10:43:51Z</time>
      </trkpt>
      <trkpt lat="59.8399928" lon="17.6535821">
        <ele>21.2864</ele>
        <time>2014-06-29T10:43:52Z</time>
      </trkpt>
      <trkpt lat="59.8400118" lon="17.653532">
        <ele>21.767</ele>
        <time>2014-06-29T10:43:53Z</time>
      </trkpt>
      <trkpt lat="59.8400322" lon="17.653492">
        <ele>22.2476</ele>
        <time>2014-06-29T10:43:54Z</time>
      </trkpt>
      <trkpt lat="59.8400536" lon="17.6534615">
        <ele>22.7283</ele>
        <time>2014-06-29T10:43:55Z</time>
      </trkpt>
      <trkpt lat="59.8400686" lon="17.6534382">
        <ele>22.7283</ele>
        <time>2014-06-29T10:43:56Z</time>
      </trkpt>
      <trkpt lat="59.8400908" lon="17.6534282">
        <ele>23.209</ele>
        <time>2014-06-29T10:43:57Z</time>
      </trkpt>
      <trkpt lat="59.8401187" lon="17.6534179">
        <ele>23.6896</ele>
        <time>2014-06-29T10:43:58Z</time>
      </trkpt>
      <trkpt lat="59.8401519" lon="17.6534055">
        <ele>25.1317</ele>
        <time>2014-06-29T10:43:59Z</time>
      </trkpt>
      <trkpt lat="59.8401833" lon="17.6533994">
        <ele>26.5736</ele>
        <time>2014-06-29T10:44:00Z</time>
      </trkpt>
      <trkpt lat="59.8402125" lon="17.6534057">
        <ele>27.0543</ele>
        <time>2014-06-29T10:44:01Z</time>
      </trkpt>
      <trkpt lat="59.8402415" lon="17.6534157">
        <ele>27.5349</ele>
        <time>2014-06-29T10:44:02Z</time>
      </trkpt>
      <trkpt lat="59.8402734" lon="17.6534289">
        <ele>28.0155</ele>
        <time>2014-06-29T10:44:03Z</time>
      </trkpt>
      <trkpt lat="59.8402968" lon="17.653432">
        <ele>27.0543</ele>
        <time>2014-06-29T10:44:04Z</time>
      </trkpt>
      <trkpt lat="59.8403159" lon="17.6534278">
        <ele>26.0929</ele>
        <time>2014-06-29T10:44:05Z</time>
      </trkpt>
      <trkpt lat="59.8403409" lon="17.6534186">
        <ele>26.5736</ele>
        <time>2014-06-29T10:44:06Z</time>
      </trkpt>
      <trkpt lat="59.8403684" lon="17.6534134">
        <ele>27.0543</ele>
        <time>2014-06-29T10:44:07Z</time>
      </trkpt>
      <trkpt lat="59.8403984" lon="17.6534097">
        <ele>28.4962</ele>
        <time>2014-06-29T10:44:08Z</time>
      </trkpt>
      <trkpt lat="59.8404239" lon="17.6534047">
        <ele>28.9769</ele>
        <time>2014-06-29T10:44:09Z</time>
      </trkpt>
      <trkpt lat="59.8404467" lon="17.6533987">
        <ele>28.9769</ele>
        <time>2014-06-29T10:44:10Z</time>
      </trkpt>
      <trkpt lat="59.8404704" lon="17.6533986">
        <ele>28.4962</ele>
        <time>2014-06-29T10:44:11Z</time>
      </trkpt>
      <trkpt lat="59.8404911" lon="17.653389">
        <ele>28.0155</ele>
        <time>2014-06-29T10:44:12Z</time>
      </trkpt>
      <trkpt lat="59.840512" lon="17.6533754">
        <ele>26.5736</ele>
        <time>2014-06-29T10:44:13Z</time>
      </trkpt>
      <trkpt lat="59.8405352" lon="17.6533679">
        <ele>26.5736</ele>
        <time>2014-06-29T10:44:14Z</time>
      </trkpt>
      <trkpt lat="59.8405554" lon="17.6533565">
        <ele>26.0929</ele>
        <time>2014-06-29T10:44:15Z</time>
      </trkpt>
      <trkpt lat="59.8405707" lon="17.6533463">
        <ele>25.1317</ele>
        <time>2014-06-29T10:44:16Z</time>
      </trkpt>
      <trkpt lat="59.8405927" lon="17.653343">
        <ele>24.651</ele>
        <time>2014-06-29T10:44:17Z</time>
      </trkpt>
      <trkpt lat="59.840612" lon="17.6533336">
        <ele>23.6896</ele>
        <time>2014-06-29T10:44:18Z</time>
      </trkpt>
      <trkpt lat="59.8406396" lon="17.6533206">
        <ele>23.209</ele>
        <time>2014-06-29T10:44:19Z</time>
      </trkpt>
      <trkpt lat="59.8406756" lon="17.6533109">
        <ele>24.651</ele>
        <time>2014-06-29T10:44:20Z</time>
      </trkpt>
      <trkpt lat="59.840702" lon="17.6533097">
        <ele>24.1703</ele>
        <time>2014-06-29T10:44:21Z</time>
      </trkpt>
      <trkpt lat="59.8407273" lon="17.6533102">
        <ele>23.6896</ele>
        <time>2014-06-29T10:44:22Z</time>
      </trkpt>
      <trkpt lat="59.8407503" lon="17.653303">
        <ele>23.209</ele>
        <time>2014-06-29T10:44:23Z</time>
      </trkpt>
      <trkpt lat="59.8407713" lon="17.6533009">
        <ele>21.767</ele>
        <time>2014-06-29T10:44:24Z</time>
      </trkpt>
      <trkpt lat="59.8407936" lon="17.6532988">
        <ele>20.8057</ele>
        <time>2014-06-29T10:44:25Z</time>
      </trkpt>
      <trkpt lat="59.8408268" lon="17.6532932">
        <ele>22.2476</ele>
        <time>2014-06-29T10:44:26Z</time>
      </trkpt>
      <trkpt lat="59.8408532" lon="17.653286">
        <ele>22.7283</ele>
        <time>2014-06-29T10:44:27Z</time>
      </trkpt>
      <trkpt lat="59.8408781" lon="17.6532818">
        <ele>22.7283</ele>
        <time>2014-06-29T10:44:28Z</time>
      </trkpt>
      <trkpt lat="59.8409014" lon="17.653277">
        <ele>22.2476</ele>
        <time>2014-06-29T10:44:29Z</time>
      </trkpt>
      <trkpt lat="59.8409209" lon="17.6532802">
        <ele>20.325</ele>
        <time>2014-06-29T10:44:30Z</time>
      </trkpt>
      <trkpt lat="59.8409523" lon="17.6532745">
        <ele>20.325</ele>
        <time>2014-06-29T10:44:31Z</time>
      </trkpt>
      <trkpt lat="59.8409823" lon="17.6532651">
        <ele>19.8444</ele>
        <time>2014-06-29T10:44:32Z</time>
      </trkpt>
      <trkpt lat="59.8410012" lon="17.6532512">
        <ele>17.9218</ele>
        <time>2014-06-29T10:44:33Z</time>
      </trkpt>
      <trkpt lat="59.8410205" lon="17.6532398">
        <ele>16.4797</ele>
        <time>2014-06-29T10:44:34Z</time>
      </trkpt>
      <trkpt lat="59.8410335" lon="17.6532464">
        <ele>15.999</ele>
        <time>2014-06-29T10:44:35Z</time>
      </trkpt>
      <trkpt lat="59.8410583" lon="17.6532466">
        <ele>15.5184</ele>
        <time>2014-06-29T10:44:36Z</time>
      </trkpt>
      <trkpt lat="59.841092" lon="17.653231">
        <ele>15.999</ele>
        <time>2014-06-29T10:44:37Z</time>
      </trkpt>
      <trkpt lat="59.8411252" lon="17.6532238">
        <ele>16.9604</ele>
        <time>2014-06-29T10:44:38Z</time>
      </trkpt>
      <trkpt lat="59.8411475" lon="17.6532236">
        <ele>15.999</ele>
        <time>2014-06-29T10:44:39Z</time>
      </trkpt>
      <trkpt lat="59.8411725" lon="17.6532199">
        <ele>15.0377</ele>
        <time>2014-06-29T10:44:40Z</time>
      </trkpt>
      <trkpt lat="59.8412024" lon="17.6532108">
        <ele>15.0377</ele>
        <time>2014-06-29T10:44:41Z</time>
      </trkpt>
      <trkpt lat="59.8412294" lon="17.653201">
        <ele>14.0764</ele>
        <time>2014-06-29T10:44:42Z</time>
      </trkpt>
      <trkpt lat="59.8412573" lon="17.6531888">
        <ele>13.5958</ele>
        <time>2014-06-29T10:44:43Z</time>
      </trkpt>
      <trkpt lat="59.8412816" lon="17.6531771">
        <ele>12.6344</ele>
        <time>2014-06-29T10:44:44Z</time>
      </trkpt>
      <trkpt lat="59.8413101" lon="17.653165">
        <ele>13.1151</ele>
        <time>2014-06-29T10:44:45Z</time>
      </trkpt>
      <trkpt lat="59.8413345" lon="17.653157">
        <ele>12.1538</ele>
        <time>2014-06-29T10:44:46Z</time>
      </trkpt>
      <trkpt lat="59.8413599" lon="17.6531518">
        <ele>12.1538</ele>
        <time>2014-06-29T10:44:47Z</time>
      </trkpt>
      <trkpt lat="59.8413833" lon="17.6531407">
        <ele>11.6732</ele>
        <time>2014-06-29T10:44:48Z</time>
      </trkpt>
      <trkpt lat="59.8414096" lon="17.6531284">
        <ele>11.6732</ele>
        <time>2014-06-29T10:44:49Z</time>
      </trkpt>
      <trkpt lat="59.8414364" lon="17.6531151">
        <ele>12.1538</ele>
        <time>2014-06-29T10:44:50Z</time>
      </trkpt>
      <trkpt lat="59.8414614" lon="17.6530989">
        <ele>12.1538</ele>
        <time>2014-06-29T10:44:51Z</time>
      </trkpt>
      <trkpt lat="59.8414842" lon="17.6530802">
        <ele>11.6732</ele>
        <time>2014-06-29T10:44:52Z</time>
      </trkpt>
      <trkpt lat="59.8415084" lon="17.6530554">
        <ele>11.1925</ele>
        <time>2014-06-29T10:44:53Z</time>
      </trkpt>
      <trkpt lat="59.8415309" lon="17.6530257">
        <ele>9.75061</ele>
        <time>2014-06-29T10:44:54Z</time>
      </trkpt>
      <trkpt lat="59.8415537" lon="17.6530031">
        <ele>8.78918</ele>
        <time>2014-06-29T10:44:55Z</time>
      </trkpt>
      <trkpt lat="59.8415769" lon="17.652984">
        <ele>8.78918</ele>
        <time>2014-06-29T10:44:56Z</time>
      </trkpt>
      <trkpt lat="59.8416055" lon="17.6529719">
        <ele>9.2699</ele>
        <time>2014-06-29T10:44:57Z</time>
      </trkpt>
      <trkpt lat="59.8416296" lon="17.6529529">
        <ele>8.78918</ele>
        <time>2014-06-29T10:44:58Z</time>
      </trkpt>
      <trkpt lat="59.8416518" lon="17.652926">
        <ele>7.82788</ele>
        <time>2014-06-29T10:44:59Z</time>
      </trkpt>
      <trkpt lat="59.8416743" lon="17.6528995">
        <ele>7.34717</ele>
        <time>2014-06-29T10:45:00Z</time>
      </trkpt>
      <trkpt lat="59.8417023" lon="17.652871">
        <ele>7.82788</ele>
        <time>2014-06-29T10:45:01Z</time>
      </trkpt>
      <trkpt lat="59.841726" lon="17.6528418">
        <ele>7.82788</ele>
        <time>2014-06-29T10:45:02Z</time>
      </trkpt>
      <trkpt lat="59.8417482" lon="17.6528155">
        <ele>7.34717</ele>
        <time>2014-06-29T10:45:03Z</time>
      </trkpt>
      <trkpt lat="59.8417695" lon="17.6527912">
        <ele>6.38586</ele>
        <time>2014-06-29T10:45:04Z</time>
      </trkpt>
      <trkpt lat="59.8417953" lon="17.6527661">
        <ele>6.86646</ele>
        <time>2014-06-29T10:45:05Z</time>
      </trkpt>
      <trkpt lat="59.8418188" lon="17.6527411">
        <ele>7.34717</ele>
        <time>2014-06-29T10:45:06Z</time>
      </trkpt>
      <trkpt lat="59.8418442" lon="17.6527138">
        <ele>7.34717</ele>
        <time>2014-06-29T10:45:07Z</time>
      </trkpt>
      <trkpt lat="59.8418699" lon="17.6526859">
        <ele>7.34717</ele>
        <time>2014-06-29T10:45:08Z</time>
      </trkpt>
      <trkpt lat="59.8418896" lon="17.6526504">
        <ele>6.38586</ele>
        <time>2014-06-29T10:45:09Z</time>
      </trkpt>
      <trkpt lat="59.8419105" lon="17.6526192">
        <ele>6.38586</ele>
        <time>2014-06-29T10:45:10Z</time>
      </trkpt>
      <trkpt lat="59.8419264" lon="17.6525897">
        <ele>5.90527</ele>
        <time>2014-06-29T10:45:11Z</time>
      </trkpt>
      <trkpt lat="59.8419435" lon="17.6525561">
        <ele>4.94385</ele>
        <time>2014-06-29T10:45:12Z</time>
      </trkpt>
      <trkpt lat="59.8419606" lon="17.6525244">
        <ele>4.46326</ele>
        <time>2014-06-29T10:45:13Z</time>
      </trkpt>
      <trkpt lat="59.841981" lon="17.6524939">
        <ele>3.50195</ele>
        <time>2014-06-29T10:45:14Z</time>
      </trkpt>
      <trkpt lat="59.8420048" lon="17.6524628">
        <ele>3.02124</ele>
        <time>2014-06-29T10:45:15Z</time>
      </trkpt>
      <trkpt lat="59.8420328" lon="17.6524328">
        <ele>2.54065</ele>
        <time>2014-06-29T10:45:16Z</time>
      </trkpt>
      <trkpt lat="59.8420602" lon="17.6524083">
        <ele>2.54065</ele>
        <time>2014-06-29T10:45:17Z</time>
      </trkpt>
      <trkpt lat="59.8420887" lon="17.65238">
        <ele>2.54065</ele>
        <time>2014-06-29T10:45:18Z</time>
      </trkpt>
      <trkpt lat="59.8421214" lon="17.6523518">
        <ele>3.02124</ele>
        <time>2014-06-29T10:45:19Z</time>
      </trkpt>
      <trkpt lat="59.8421523" lon="17.6523321">
        <ele>3.50195</ele>
        <time>2014-06-29T10:45:20Z</time>
      </trkpt>
      <trkpt lat="59.8421819" lon="17.6523179">
        <ele>4.46326</ele>
        <time>2014-06-29T10:45:21Z</time>
      </trkpt>
      <trkpt lat="59.8422073" lon="17.6523079">
        <ele>4.94385</ele>
        <time>2014-06-29T10:45:22Z</time>
      </trkpt>
      <trkpt lat="59.8422305" lon="17.6522976">
        <ele>5.42456</ele>
        <time>2014-06-29T10:45:23Z</time>
      </trkpt>
      <trkpt lat="59.8422607" lon="17.6522845">
        <ele>6.38586</ele>
        <time>2014-06-29T10:45:24Z</time>
      </trkpt>
      <trkpt lat="59.8422905" lon="17.652271">
        <ele>6.38586</ele>
        <time>2014-06-29T10:45:25Z</time>
      </trkpt>
      <trkpt lat="59.8423207" lon="17.6522596">
        <ele>6.86646</ele>
        <time>2014-06-29T10:45:26Z</time>
      </trkpt>
      <trkpt lat="59.8423532" lon="17.6522457">
        <ele>7.34717</ele>
        <time>2014-06-29T10:45:27Z</time>
      </trkpt>
      <trkpt lat="59.8423848" lon="17.6522317">
        <ele>7.34717</ele>
        <time>2014-06-29T10:45:28Z</time>
      </trkpt>
      <trkpt lat="59.8424114" lon="17.6522272">
        <ele>7.34717</ele>
        <time>2014-06-29T10:45:29Z</time>
      </trkpt>
      <trkpt lat="59.8424399" lon="17.6522188">
        <ele>5.90527</ele>
        <time>2014-06-29T10:45:30Z</time>
      </trkpt>
      <trkpt lat="59.8424651" lon="17.6522156">
        <ele>6.38586</ele>
        <time>2014-06-29T10:45:31Z</time>
      </trkpt>
      <trkpt lat="59.8424912" lon="17.652201">
        <ele>6.38586</ele>
        <time>2014-06-29T10:45:32Z</time>
      </trkpt>
      <trkpt lat="59.8425161" lon="17.6521856">
        <ele>5.90527</ele>
        <time>2014-06-29T10:45:33Z</time>
      </trkpt>
      <trkpt lat="59.8425435" lon="17.6521743">
        <ele>6.86646</ele>
        <time>2014-06-29T10:45:34Z</time>
      </trkpt>
      <trkpt lat="59.8425677" lon="17.6521644">
        <ele>6.86646</ele>
        <time>2014-06-29T10:45:35Z</time>
      </trkpt>
      <trkpt lat="59.8425943" lon="17.652158">
        <ele>7.82788</ele>
        <time>2014-06-29T10:45:36Z</time>
      </trkpt>
      <trkpt lat="59.8426207" lon="17.6521541">
        <ele>8.78918</ele>
        <time>2014-06-29T10:45:37Z</time>
      </trkpt>
      <trkpt lat="59.8426482" lon="17.6521468">
        <ele>9.2699</ele>
        <time>2014-06-29T10:45:38Z</time>
      </trkpt>
      <trkpt lat="59.8426755" lon="17.6521375">
        <ele>10.2312</ele>
        <time>2014-06-29T10:45:39Z</time>
      </trkpt>
      <trkpt lat="59.8426973" lon="17.6521256">
        <ele>10.2312</ele>
        <time>2014-06-29T10:45:40Z</time>
      </trkpt>
      <trkpt lat="59.8427238" lon="17.6521183">
        <ele>11.1925</ele>
        <time>2014-06-29T10:45:41Z</time>
      </trkpt>
      <trkpt lat="59.8427532" lon="17.6521043">
        <ele>11.6732</ele>
        <time>2014-06-29T10:45:42Z</time>
      </trkpt>
      <trkpt lat="59.8427764" lon="17.6520997">
        <ele>11.6732</ele>
        <time>2014-06-29T10:45:43Z</time>
      </trkpt>
      <trkpt lat="59.8428008" lon="17.6520986">
        <ele>12.6344</ele>
        <time>2014-06-29T10:45:44Z</time>
      </trkpt>
      <trkpt lat="59.8428249" lon="17.6520821">
        <ele>13.1151</ele>
        <time>2014-06-29T10:45:45Z</time>
      </trkpt>
      <trkpt lat="59.8428527" lon="17.6520774">
        <ele>14.557</ele>
        <time>2014-06-29T10:45:46Z</time>
      </trkpt>
      <trkpt lat="59.8428812" lon="17.6520609">
        <ele>15.5184</ele>
        <time>2014-06-29T10:45:47Z</time>
      </trkpt>
      <trkpt lat="59.8429094" lon="17.6520482">
        <ele>16.4797</ele>
        <time>2014-06-29T10:45:48Z</time>
      </trkpt>
      <trkpt lat="59.842931" lon="17.6520395">
        <ele>15.999</ele>
        <time>2014-06-29T10:45:49Z</time>
      </trkpt>
      <trkpt lat="59.8429616" lon="17.6520313">
        <ele>18.4023</ele>
        <time>2014-06-29T10:45:50Z</time>
      </trkpt>
      <trkpt lat="59.8429833" lon="17.652025">
        <ele>18.4023</ele>
        <time>2014-06-29T10:45:51Z</time>
      </trkpt>
      <trkpt lat="59.8430065" lon="17.6520117">
        <ele>18.4023</ele>
        <time>2014-06-29T10:45:52Z</time>
      </trkpt>
      <trkpt lat="59.8430342" lon="17.6519891">
        <ele>19.3638</ele>
        <time>2014-06-29T10:45:53Z</time>
      </trkpt>
      <trkpt lat="59.843066" lon="17.6519578">
        <ele>18.4023</ele>
        <time>2014-06-29T10:45:54Z</time>
      </trkpt>
      <trkpt lat="59.8431009" lon="17.6519296">
        <ele>18.4023</ele>
        <time>2014-06-29T10:45:55Z</time>
      </trkpt>
      <trkpt lat="59.8431268" lon="17.6519078">
        <ele>17.9218</ele>
        <time>2014-06-29T10:45:56Z</time>
      </trkpt>
      <trkpt lat="59.843149" lon="17.6518882">
        <ele>16.4797</ele>
        <time>2014-06-29T10:45:57Z</time>
      </trkpt>
      <trkpt lat="59.8431706" lon="17.6518669">
        <ele>15.5184</ele>
        <time>2014-06-29T10:45:58Z</time>
      </trkpt>
      <trkpt lat="59.8432018" lon="17.6518422">
        <ele>16.4797</ele>
        <time>2014-06-29T10:45:59Z</time>
      </trkpt>
      <trkpt lat="59.8432365" lon="17.6518213">
        <ele>17.9218</ele>
        <time>2014-06-29T10:46:00Z</time>
      </trkpt>
      <trkpt lat="59.8432646" lon="17.6517966">
        <ele>18.8831</ele>
        <time>2014-06-29T10:46:01Z</time>
      </trkpt>
      <trkpt lat="59.843295" lon="17.6517737">
        <ele>20.325</ele>
        <time>2014-06-29T10:46:02Z</time>
      </trkpt>
      <trkpt lat="59.8433276" lon="17.6517563">
        <ele>22.2476</ele>
        <time>2014-06-29T10:46:03Z</time>
      </trkpt>
      <trkpt lat="59.8433558" lon="17.6517314">
        <ele>22.7283</ele>
        <time>2014-06-29T10:46:04Z</time>
      </trkpt>
      <trkpt lat="59.8433765" lon="17.651709">
        <ele>22.2476</ele>
        <time>2014-06-29T10:46:05Z</time>
      </trkpt>
      <trkpt lat="59.8433961" lon="17.651693">
        <ele>23.209</ele>
        <time>2014-06-29T10:46:06Z</time>
      </trkpt>
      <trkpt lat="59.8434159" lon="17.6516799">
        <ele>23.6896</ele>
        <time>2014-06-29T10:46:07Z</time>
      </trkpt>
      <trkpt lat="59.8434443" lon="17.6516666">
        <ele>24.651</ele>
        <time>2014-06-29T10:46:08Z</time>
      </trkpt>
      <trkpt lat="59.8434718" lon="17.6516439">
        <ele>26.0929</ele>
        <time>2014-06-29T10:46:09Z</time>
      </trkpt>
      <trkpt lat="59.8435006" lon="17.6516293">
        <ele>27.5349</ele>
        <time>2014-06-29T10:46:10Z</time>
      </trkpt>
      <trkpt lat="59.8435255" lon="17.6516184">
        <ele>28.0155</ele>
        <time>2014-06-29T10:46:11Z</time>
      </trkpt>
      <trkpt lat="59.8435496" lon="17.6515977">
        <ele>28.4962</ele>
        <time>2014-06-29T10:46:12Z</time>
      </trkpt>
      <trkpt lat="59.8435738" lon="17.6515768">
        <ele>28.4962</ele>
        <time>2014-06-29T10:46:13Z</time>
      </trkpt>
      <trkpt lat="59.8436003" lon="17.6515564">
        <ele>29.4575</ele>
        <time>2014-06-29T10:46:14Z</time>
      </trkpt>
      <trkpt lat="59.8436349" lon="17.6515271">
        <ele>31.3801</ele>
        <time>2014-06-29T10:46:15Z</time>
      </trkpt>
      <trkpt lat="59.8436334" lon="17.6514925">
        <ele>26.0929</ele>
        <time>2014-06-29T10:46:16Z</time>
      </trkpt>
      <trkpt lat="59.8436547" lon="17.6514673">
        <ele>25.1317</ele>
        <time>2014-06-29T10:46:17Z</time>
      </trkpt>
      <trkpt lat="59.8436821" lon="17.6514435">
        <ele>25.6123</ele>
        <time>2014-06-29T10:46:18Z</time>
      </trkpt>
      <trkpt lat="59.8437012" lon="17.6514186">
        <ele>25.1317</ele>
        <time>2014-06-29T10:46:19Z</time>
      </trkpt>
      <trkpt lat="59.8437267" lon="17.6513921">
        <ele>25.1317</ele>
        <time>2014-06-29T10:46:20Z</time>
      </trkpt>
      <trkpt lat="59.8437544" lon="17.6513527">
        <ele>25.1317</ele>
        <time>2014-06-29T10:46:21Z</time>
      </trkpt>
      <trkpt lat="59.8437831" lon="17.6513118">
        <ele>25.6123</ele>
        <time>2014-06-29T10:46:22Z</time>
      </trkpt>
      <trkpt lat="59.8438176" lon="17.6512667">
        <ele>26.5736</ele>
        <time>2014-06-29T10:46:23Z</time>
      </trkpt>
      <trkpt lat="59.8438411" lon="17.6512185">
        <ele>24.1703</ele>
        <time>2014-06-29T10:46:24Z</time>
      </trkpt>
      <trkpt lat="59.843865" lon="17.6511769">
        <ele>23.209</ele>
        <time>2014-06-29T10:46:25Z</time>
      </trkpt>
      <trkpt lat="59.8438831" lon="17.6511295">
        <ele>21.767</ele>
        <time>2014-06-29T10:46:26Z</time>
      </trkpt>
      <trkpt lat="59.8439044" lon="17.6510916">
        <ele>20.8057</ele>
        <time>2014-06-29T10:46:27Z</time>
      </trkpt>
      <trkpt lat="59.8439176" lon="17.6510493">
        <ele>18.8831</ele>
        <time>2014-06-29T10:46:28Z</time>
      </trkpt>
      <trkpt lat="59.8439303" lon="17.6510103">
        <ele>16.9604</ele>
        <time>2014-06-29T10:46:29Z</time>
      </trkpt>
      <trkpt lat="59.8439459" lon="17.6509873">
        <ele>15.999</ele>
        <time>2014-06-29T10:46:30Z</time>
      </trkpt>
      <trkpt lat="59.8439639" lon="17.6509601">
        <ele>15.0377</ele>
        <time>2014-06-29T10:46:31Z</time>
      </trkpt>
      <trkpt lat="59.8439844" lon="17.6509275">
        <ele>14.0764</ele>
        <time>2014-06-29T10:46:32Z</time>
      </trkpt>
      <trkpt lat="59.8440026" lon="17.6508968">
        <ele>14.0764</ele>
        <time>2014-06-29T10:46:33Z</time>
      </trkpt>
      <trkpt lat="59.8440167" lon="17.6508648">
        <ele>13.5958</ele>
        <time>2014-06-29T10:46:34Z</time>
      </trkpt>
      <trkpt lat="59.8440378" lon="17.6508419">
        <ele>14.0764</ele>
        <time>2014-06-29T10:46:35Z</time>
      </trkpt>
      <trkpt lat="59.8440488" lon="17.6508103">
        <ele>12.6344</ele>
        <time>2014-06-29T10:46:36Z</time>
      </trkpt>
      <trkpt lat="59.8440649" lon="17.6507742">
        <ele>11.6732</ele>
        <time>2014-06-29T10:46:37Z</time>
      </trkpt>
      <trkpt lat="59.8440792" lon="17.65073">
        <ele>10.2312</ele>
        <time>2014-06-29T10:46:38Z</time>
      </trkpt>
      <trkpt lat="59.8440927" lon="17.6506942">
        <ele>8.78918</ele>
        <time>2014-06-29T10:46:39Z</time>
      </trkpt>
      <trkpt lat="59.8441146" lon="17.6506538">
        <ele>9.2699</ele>
        <time>2014-06-29T10:46:40Z</time>
      </trkpt>
      <trkpt lat="59.8441369" lon="17.6506187">
        <ele>9.2699</ele>
        <time>2014-06-29T10:46:41Z</time>
      </trkpt>
      <trkpt lat="59.8441426" lon="17.6505866">
        <ele>6.38586</ele>
        <time>2014-06-29T10:46:42Z</time>
      </trkpt>
      <trkpt lat="59.8441598" lon="17.650557">
        <ele>5.90527</ele>
        <time>2014-06-29T10:46:43Z</time>
      </trkpt>
      <trkpt lat="59.8441826" lon="17.6505145">
        <ele>6.86646</ele>
        <time>2014-06-29T10:46:44Z</time>
      </trkpt>
      <trkpt lat="59.8442066" lon="17.6504768">
        <ele>8.78918</ele>
        <time>2014-06-29T10:46:45Z</time>
      </trkpt>
      <trkpt lat="59.8442321" lon="17.6504405">
        <ele>10.7118</ele>
        <time>2014-06-29T10:46:46Z</time>
      </trkpt>
      <trkpt lat="59.8442487" lon="17.650409">
        <ele>10.7118</ele>
        <time>2014-06-29T10:46:47Z</time>
      </trkpt>
      <trkpt lat="59.844268" lon="17.6503814">
        <ele>10.7118</ele>
        <time>2014-06-29T10:46:48Z</time>
      </trkpt>
      <trkpt lat="59.8442923" lon="17.6503565">
        <ele>12.1538</ele>
        <time>2014-06-29T10:46:49Z</time>
      </trkpt>
      <trkpt lat="59.8443093" lon="17.6503307">
        <ele>12.1538</ele>
        <time>2014-06-29T10:46:50Z</time>
      </trkpt>
      <trkpt lat="59.8443291" lon="17.6502965">
        <ele>11.1925</ele>
        <time>2014-06-29T10:46:51Z</time>
      </trkpt>
      <trkpt lat="59.8443576" lon="17.6502572">
        <ele>12.1538</ele>
        <time>2014-06-29T10:46:52Z</time>
      </trkpt>
      <trkpt lat="59.8443952" lon="17.6502153">
        <ele>13.5958</ele>
        <time>2014-06-29T10:46:53Z</time>
      </trkpt>
      <trkpt lat="59.8444275" lon="17.650181">
        <ele>14.557</ele>
        <time>2014-06-29T10:46:54Z</time>
      </trkpt>
      <trkpt lat="59.8444517" lon="17.6501529">
        <ele>15.0377</ele>
        <time>2014-06-29T10:46:55Z</time>
      </trkpt>
      <trkpt lat="59.8444719" lon="17.650126">
        <ele>15.0377</ele>
        <time>2014-06-29T10:46:56Z</time>
      </trkpt>
      <trkpt lat="59.844488" lon="17.6500934">
        <ele>13.5958</ele>
        <time>2014-06-29T10:46:57Z</time>
      </trkpt>
      <trkpt lat="59.8445126" lon="17.6500575">
        <ele>13.1151</ele>
        <time>2014-06-29T10:46:58Z</time>
      </trkpt>
      <trkpt lat="59.8445366" lon="17.650025">
        <ele>12.1538</ele>
        <time>2014-06-29T10:46:59Z</time>
      </trkpt>
      <trkpt lat="59.8445555" lon="17.6499879">
        <ele>10.2312</ele>
        <time>2014-06-29T10:47:00Z</time>
      </trkpt>
      <trkpt lat="59.8445673" lon="17.6499359">
        <ele>7.82788</ele>
        <time>2014-06-29T10:47:01Z</time>
      </trkpt>
      <trkpt lat="59.8445767" lon="17.6498855">
        <ele>7.34717</ele>
        <time>2014-06-29T10:47:02Z</time>
      </trkpt>
      <trkpt lat="59.8445767" lon="17.6498416">
        <ele>6.86646</ele>
        <time>2014-06-29T10:47:03Z</time>
      </trkpt>
      <trkpt lat="59.8445751" lon="17.6497957">
        <ele>6.86646</ele>
        <time>2014-06-29T10:47:04Z</time>
      </trkpt>
      <trkpt lat="59.8445708" lon="17.6497531">
        <ele>7.34717</ele>
        <time>2014-06-29T10:47:05Z</time>
      </trkpt>
      <trkpt lat="59.8445591" lon="17.6497173">
        <ele>7.34717</ele>
        <time>2014-06-29T10:47:06Z</time>
      </trkpt>
      <trkpt lat="59.8445514" lon="17.6496873">
        <ele>6.86646</ele>
        <time>2014-06-29T10:47:07Z</time>
      </trkpt>
      <trkpt lat="59.8445437" lon="17.6496494">
        <ele>6.86646</ele>
        <time>2014-06-29T10:47:08Z</time>
      </trkpt>
      <trkpt lat="59.8445362" lon="17.6496131">
        <ele>6.38586</ele>
        <time>2014-06-29T10:47:09Z</time>
      </trkpt>
      <trkpt lat="59.8445276" lon="17.6495752">
        <ele>5.90527</ele>
        <time>2014-06-29T10:47:10Z</time>
      </trkpt>
      <trkpt lat="59.8445207" lon="17.6495354">
        <ele>4.94385</ele>
        <time>2014-06-29T10:47:11Z</time>
      </trkpt>
      <trkpt lat="59.8445144" lon="17.6495003">
        <ele>4.46326</ele>
        <time>2014-06-29T10:47:12Z</time>
      </trkpt>
      <trkpt lat="59.8445046" lon="17.649462">
        <ele>3.98267</ele>
        <time>2014-06-29T10:47:13Z</time>
      </trkpt>
      <trkpt lat="59.8444944" lon="17.6494177">
        <ele>4.46326</ele>
        <time>2014-06-29T10:47:14Z</time>
      </trkpt>
      <trkpt lat="59.8444861" lon="17.6493775">
        <ele>4.46326</ele>
        <time>2014-06-29T10:47:15Z</time>
      </trkpt>
      <trkpt lat="59.8444778" lon="17.649337">
        <ele>3.98267</ele>
        <time>2014-06-29T10:47:16Z</time>
      </trkpt>
      <trkpt lat="59.8444691" lon="17.6492909">
        <ele>3.02124</ele>
        <time>2014-06-29T10:47:17Z</time>
      </trkpt>
      <trkpt lat="59.8444665" lon="17.6492383">
        <ele>2.06006</ele>
        <time>2014-06-29T10:47:18Z</time>
      </trkpt>
      <trkpt lat="59.8444674" lon="17.6491952">
        <ele>2.54065</ele>
        <time>2014-06-29T10:47:19Z</time>
      </trkpt>
      <trkpt lat="59.8444682" lon="17.6491662">
        <ele>3.98267</ele>
        <time>2014-06-29T10:47:20Z</time>
      </trkpt>
      <trkpt lat="59.8444698" lon="17.6491492">
        <ele>5.90527</ele>
        <time>2014-06-29T10:47:21Z</time>
      </trkpt>
      <trkpt lat="59.8444743" lon="17.6491272">
        <ele>8.30859</ele>
        <time>2014-06-29T10:47:22Z</time>
      </trkpt>
      <trkpt lat="59.8444778" lon="17.6491047">
        <ele>11.1925</ele>
        <time>2014-06-29T10:47:23Z</time>
      </trkpt>
      <trkpt lat="59.8444679" lon="17.649065">
        <ele>10.7118</ele>
        <time>2014-06-29T10:47:24Z</time>
      </trkpt>
      <trkpt lat="59.8444682" lon="17.6490352">
        <ele>12.6344</ele>
        <time>2014-06-29T10:47:25Z</time>
      </trkpt>
      <trkpt lat="59.8444486" lon="17.6489942">
        <ele>12.6344</ele>
        <time>2014-06-29T10:47:26Z</time>
      </trkpt>
      <trkpt lat="59.8444327" lon="17.6489486">
        <ele>11.6732</ele>
        <time>2014-06-29T10:47:27Z</time>
      </trkpt>
      <trkpt lat="59.8444167" lon="17.6489098">
        <ele>11.6732</ele>
        <time>2014-06-29T10:47:28Z</time>
      </trkpt>
      <trkpt lat="59.844394" lon="17.6488808">
        <ele>11.1925</ele>
        <time>2014-06-29T10:47:29Z</time>
      </trkpt>
      <trkpt lat="59.8443748" lon="17.6488461">
        <ele>10.2312</ele>
        <time>2014-06-29T10:47:30Z</time>
      </trkpt>
      <trkpt lat="59.8443663" lon="17.6488172">
        <ele>10.7118</ele>
        <time>2014-06-29T10:47:31Z</time>
      </trkpt>
      <trkpt lat="59.8443509" lon="17.6487917">
        <ele>10.2312</ele>
        <time>2014-06-29T10:47:32Z</time>
      </trkpt>
      <trkpt lat="59.844338" lon="17.6487668">
        <ele>10.7118</ele>
        <time>2014-06-29T10:47:33Z</time>
      </trkpt>
      <trkpt lat="59.8443244" lon="17.6487445">
        <ele>10.7118</ele>
        <time>2014-06-29T10:47:34Z</time>
      </trkpt>
      <trkpt lat="59.8443074" lon="17.6487165">
        <ele>11.1925</ele>
        <time>2014-06-29T10:47:35Z</time>
      </trkpt>
      <trkpt lat="59.8442976" lon="17.6486917">
        <ele>12.6344</ele>
        <time>2014-06-29T10:47:36Z</time>
      </trkpt>
      <trkpt lat="59.8442927" lon="17.6486637">
        <ele>14.0764</ele>
        <time>2014-06-29T10:47:37Z</time>
      </trkpt>
      <trkpt lat="59.8442876" lon="17.6486534">
        <ele>18.8831</ele>
        <time>2014-06-29T10:47:38Z</time>
      </trkpt>
      <trkpt lat="59.8442876" lon="17.6486233">
        <ele>20.325</ele>
        <time>2014-06-29T10:47:39Z</time>
      </trkpt>
      <trkpt lat="59.8442909" lon="17.6485978">
        <ele>21.767</ele>
        <time>2014-06-29T10:47:40Z</time>
      </trkpt>
      <trkpt lat="59.8442891" lon="17.648558">
        <ele>21.767</ele>
        <time>2014-06-29T10:47:41Z</time>
      </trkpt>
      <trkpt lat="59.8442979" lon="17.6485228">
        <ele>24.651</ele>
        <time>2014-06-29T10:47:42Z</time>
      </trkpt>
      <trkpt lat="59.8443027" lon="17.6484798">
        <ele>26.0929</ele>
        <time>2014-06-29T10:47:43Z</time>
      </trkpt>
      <trkpt lat="59.8443053" lon="17.6484524">
        <ele>26.5736</ele>
        <time>2014-06-29T10:47:44Z</time>
      </trkpt>
      <trkpt lat="59.8443094" lon="17.6484182">
        <ele>26.5736</ele>
        <time>2014-06-29T10:47:45Z</time>
      </trkpt>
      <trkpt lat="59.8443177" lon="17.6483876">
        <ele>28.0155</ele>
        <time>2014-06-29T10:47:46Z</time>
      </trkpt>
      <trkpt lat="59.8443225" lon="17.6483517">
        <ele>28.0155</ele>
        <time>2014-06-29T10:47:47Z</time>
      </trkpt>
      <trkpt lat="59.8443334" lon="17.6483254">
        <ele>29.4575</ele>
        <time>2014-06-29T10:47:48Z</time>
      </trkpt>
      <trkpt lat="59.844347" lon="17.6482845">
        <ele>29.4575</ele>
        <time>2014-06-29T10:47:49Z</time>
      </trkpt>
      <trkpt lat="59.8443593" lon="17.6482544">
        <ele>29.9381</ele>
        <time>2014-06-29T10:47:50Z</time>
      </trkpt>
      <trkpt lat="59.8443731" lon="17.648213">
        <ele>30.8995</ele>
        <time>2014-06-29T10:47:51Z</time>
      </trkpt>
      <trkpt lat="59.8443913" lon="17.6481715">
        <ele>33.7834</ele>
        <time>2014-06-29T10:47:52Z</time>
      </trkpt>
      <trkpt lat="59.8443901" lon="17.6481053">
        <ele>33.3029</ele>
        <time>2014-06-29T10:47:53Z</time>
      </trkpt>
      <trkpt lat="59.8443948" lon="17.6480544">
        <ele>33.7834</ele>
        <time>2014-06-29T10:47:54Z</time>
      </trkpt>
      <trkpt lat="59.8444015" lon="17.6480058">
        <ele>34.2642</ele>
        <time>2014-06-29T10:47:55Z</time>
      </trkpt>
      <trkpt lat="59.8443971" lon="17.6479385">
        <ele>34.7449</ele>
        <time>2014-06-29T10:47:56Z</time>
      </trkpt>
      <trkpt lat="59.844387" lon="17.6478702">
        <ele>33.7834</ele>
        <time>2014-06-29T10:47:57Z</time>
      </trkpt>
      <trkpt lat="59.8443704" lon="17.6477985">
        <ele>32.8223</ele>
        <time>2014-06-29T10:47:58Z</time>
      </trkpt>
      <trkpt lat="59.8443689" lon="17.6477615">
        <ele>33.7834</ele>
        <time>2014-06-29T10:47:59Z</time>
      </trkpt>
      <trkpt lat="59.8443561" lon="17.6477218">
        <ele>33.3029</ele>
        <time>2014-06-29T10:48:00Z</time>
      </trkpt>
      <trkpt lat="59.8443452" lon="17.6476868">
        <ele>32.8223</ele>
        <time>2014-06-29T10:48:01Z</time>
      </trkpt>
      <trkpt lat="59.8443277" lon="17.6476505">
        <ele>31.3801</ele>
        <time>2014-06-29T10:48:02Z</time>
      </trkpt>
      <trkpt lat="59.8442529" lon="17.6475462">
        <ele>25.1317</ele>
        <time>2014-06-29T10:48:03Z</time>
      </trkpt>
      <trkpt lat="59.8442058" lon="17.6474827">
        <ele>20.8057</ele>
        <time>2014-06-29T10:48:04Z</time>
      </trkpt>
      <trkpt lat="59.8441649" lon="17.6474427">
        <ele>18.4023</ele>
        <time>2014-06-29T10:48:05Z</time>
      </trkpt>
      <trkpt lat="59.8441322" lon="17.6474158">
        <ele>16.9604</ele>
        <time>2014-06-29T10:48:06Z</time>
      </trkpt>
      <trkpt lat="59.8440943" lon="17.6473873">
        <ele>14.557</ele>
        <time>2014-06-29T10:48:07Z</time>
      </trkpt>
      <trkpt lat="59.8440601" lon="17.6473638">
        <ele>11.6732</ele>
        <time>2014-06-29T10:48:08Z</time>
      </trkpt>
      <trkpt lat="59.8440318" lon="17.6473458">
        <ele>9.2699</ele>
        <time>2014-06-29T10:48:09Z</time>
      </trkpt>
      <trkpt lat="59.8440023" lon="17.6473286">
        <ele>7.34717</ele>
        <time>2014-06-29T10:48:10Z</time>
      </trkpt>
      <trkpt lat="59.8439789" lon="17.6473137">
        <ele>6.86646</ele>
        <time>2014-06-29T10:48:11Z</time>
      </trkpt>
      <trkpt lat="59.8439624" lon="17.6473065">
        <ele>4.94385</ele>
        <time>2014-06-29T10:48:12Z</time>
      </trkpt>
      <trkpt lat="59.8439502" lon="17.6472972">
        <ele>4.94385</ele>
        <time>2014-06-29T10:48:13Z</time>
      </trkpt>
      <trkpt lat="59.8439352" lon="17.6472682">
        <ele>4.46326</ele>
        <time>2014-06-29T10:48:14Z</time>
      </trkpt>
      <trkpt lat="59.8439235" lon="17.6472344">
        <ele>3.98267</ele>
        <time>2014-06-29T10:48:15Z</time>
      </trkpt>
      <trkpt lat="59.8439032" lon="17.6471818">
        <ele>3.02124</ele>
        <time>2014-06-29T10:48:16Z</time>
      </trkpt>
      <trkpt lat="59.8438842" lon="17.6471454">
        <ele>2.54065</ele>
        <time>2014-06-29T10:48:17Z</time>
      </trkpt>
      <trkpt lat="59.8438699" lon="17.6471121">
        <ele>2.54065</ele>
        <time>2014-06-29T10:48:18Z</time>
      </trkpt>
      <trkpt lat="59.8438513" lon="17.6470885">
        <ele>3.50195</ele>
        <time>2014-06-29T10:48:19Z</time>
      </trkpt>
      <trkpt lat="59.8438246" lon="17.6470561">
        <ele>4.46326</ele>
        <time>2014-06-29T10:48:20Z</time>
      </trkpt>
      <trkpt lat="59.8437962" lon="17.6470175">
        <ele>3.98267</ele>
        <time>2014-06-29T10:48:21Z</time>
      </trkpt>
      <trkpt lat="59.8437723" lon="17.6469797">
        <ele>3.02124</ele>
        <time>2014-06-29T10:48:22Z</time>
      </trkpt>
      <trkpt lat="59.8437645" lon="17.6469528">
        <ele>4.46326</ele>
        <time>2014-06-29T10:48:23Z</time>
      </trkpt>
      <trkpt lat="59.8437707" lon="17.6469216">
        <ele>5.90527</ele>
        <time>2014-06-29T10:48:24Z</time>
      </trkpt>
      <trkpt lat="59.8437679" lon="17.6468828">
        <ele>5.42456</ele>
        <time>2014-06-29T10:48:25Z</time>
      </trkpt>
      <trkpt lat="59.8437733" lon="17.6468491">
        <ele>5.42456</ele>
        <time>2014-06-29T10:48:26Z</time>
      </trkpt>
      <trkpt lat="59.8437774" lon="17.6468205">
        <ele>5.90527</ele>
        <time>2014-06-29T10:48:27Z</time>
      </trkpt>
      <trkpt lat="59.8437863" lon="17.6467907">
        <ele>7.82788</ele>
        <time>2014-06-29T10:48:28Z</time>
      </trkpt>
      <trkpt lat="59.8437992" lon="17.6467641">
        <ele>9.2699</ele>
        <time>2014-06-29T10:48:29Z</time>
      </trkpt>
      <trkpt lat="59.8437995" lon="17.6467269">
        <ele>8.78918</ele>
        <time>2014-06-29T10:48:30Z</time>
      </trkpt>
      <trkpt lat="59.8437979" lon="17.6466844">
        <ele>7.34717</ele>
        <time>2014-06-29T10:48:31Z</time>
      </trkpt>
      <trkpt lat="59.8437995" lon="17.646651">
        <ele>7.34717</ele>
        <time>2014-06-29T10:48:32Z</time>
      </trkpt>
      <trkpt lat="59.8438048" lon="17.6466191">
        <ele>6.38586</ele>
        <time>2014-06-29T10:48:33Z</time>
      </trkpt>
      <trkpt lat="59.8438173" lon="17.6465909">
        <ele>7.34717</ele>
        <time>2014-06-29T10:48:34Z</time>
      </trkpt>
      <trkpt lat="59.8438321" lon="17.6465594">
        <ele>8.78918</ele>
        <time>2014-06-29T10:48:35Z</time>
      </trkpt>
      <trkpt lat="59.8438444" lon="17.6465272">
        <ele>10.7118</ele>
        <time>2014-06-29T10:48:36Z</time>
      </trkpt>
      <trkpt lat="59.8438608" lon="17.6465047">
        <ele>12.6344</ele>
        <time>2014-06-29T10:48:37Z</time>
      </trkpt>
      <trkpt lat="59.8438726" lon="17.6464906">
        <ele>13.1151</ele>
        <time>2014-06-29T10:48:38Z</time>
      </trkpt>
      <trkpt lat="59.843898" lon="17.6464824">
        <ele>16.4797</ele>
        <time>2014-06-29T10:48:39Z</time>
      </trkpt>
      <trkpt lat="59.8439238" lon="17.6464732">
        <ele>19.3638</ele>
        <time>2014-06-29T10:48:40Z</time>
      </trkpt>
      <trkpt lat="59.8439437" lon="17.6464537">
        <ele>22.2476</ele>
        <time>2014-06-29T10:48:41Z</time>
      </trkpt>
      <trkpt lat="59.8439649" lon="17.6464273">
        <ele>25.6123</ele>
        <time>2014-06-29T10:48:42Z</time>
      </trkpt>
      <trkpt lat="59.8439925" lon="17.6463948">
        <ele>28.0155</ele>
        <time>2014-06-29T10:48:43Z</time>
      </trkpt>
      <trkpt lat="59.8440209" lon="17.6463575">
        <ele>29.9381</ele>
        <time>2014-06-29T10:48:44Z</time>
      </trkpt>
      <trkpt lat="59.8440437" lon="17.6463193">
        <ele>31.3801</ele>
        <time>2014-06-29T10:48:45Z</time>
      </trkpt>
      <trkpt lat="59.8440638" lon="17.6462871">
        <ele>31.8607</ele>
        <time>2014-06-29T10:48:46Z</time>
      </trkpt>
      <trkpt lat="59.8440813" lon="17.6462622">
        <ele>32.8223</ele>
        <time>2014-06-29T10:48:47Z</time>
      </trkpt>
      <trkpt lat="59.8440966" lon="17.6462265">
        <ele>33.3029</ele>
        <time>2014-06-29T10:48:48Z</time>
      </trkpt>
      <trkpt lat="59.8441079" lon="17.6461937">
        <ele>34.2642</ele>
        <time>2014-06-29T10:48:49Z</time>
      </trkpt>
      <trkpt lat="59.8441167" lon="17.6461742">
        <ele>34.7449</ele>
        <time>2014-06-29T10:48:50Z</time>
      </trkpt>
      <trkpt lat="59.8441228" lon="17.6461595">
        <ele>34.7449</ele>
        <time>2014-06-29T10:48:51Z</time>
      </trkpt>
      <trkpt lat="59.8441328" lon="17.6461416">
        <ele>34.7449</ele>
        <time>2014-06-29T10:48:52Z</time>
      </trkpt>
      <trkpt lat="59.8441487" lon="17.6461151">
        <ele>35.7061</ele>
        <time>2014-06-29T10:48:53Z</time>
      </trkpt>
      <trkpt lat="59.8441665" lon="17.6460829">
        <ele>36.6675</ele>
        <time>2014-06-29T10:48:54Z</time>
      </trkpt>
      <trkpt lat="59.8441846" lon="17.6460414">
        <ele>37.6287</ele>
        <time>2014-06-29T10:48:55Z</time>
      </trkpt>
      <trkpt lat="59.8442183" lon="17.6460075">
        <ele>42.916</ele>
        <time>2014-06-29T10:48:56Z</time>
      </trkpt>
      <trkpt lat="59.844236" lon="17.6459803">
        <ele>43.3966</ele>
        <time>2014-06-29T10:48:57Z</time>
      </trkpt>
      <trkpt lat="59.8442543" lon="17.6459513">
        <ele>43.3966</ele>
        <time>2014-06-29T10:48:58Z</time>
      </trkpt>
      <trkpt lat="59.8442641" lon="17.6459305">
        <ele>43.8773</ele>
        <time>2014-06-29T10:48:59Z</time>
      </trkpt>
      <trkpt lat="59.8442683" lon="17.6459012">
        <ele>42.4354</ele>
        <time>2014-06-29T10:49:00Z</time>
      </trkpt>
      <trkpt lat="59.8442736" lon="17.6458665">
        <ele>40.5128</ele>
        <time>2014-06-29T10:49:01Z</time>
      </trkpt>
      <trkpt lat="59.8443099" lon="17.6458442">
        <ele>44.358</ele>
        <time>2014-06-29T10:49:02Z</time>
      </trkpt>
      <trkpt lat="59.8443315" lon="17.6458139">
        <ele>45.7999</ele>
        <time>2014-06-29T10:49:03Z</time>
      </trkpt>
      <trkpt lat="59.8443504" lon="17.6457782">
        <ele>45.3192</ele>
        <time>2014-06-29T10:49:04Z</time>
      </trkpt>
      <trkpt lat="59.8443725" lon="17.6457499">
        <ele>46.2806</ele>
        <time>2014-06-29T10:49:05Z</time>
      </trkpt>
      <trkpt lat="59.844389" lon="17.6457214">
        <ele>46.7612</ele>
        <time>2014-06-29T10:49:06Z</time>
      </trkpt>
      <trkpt lat="59.8444031" lon="17.6457021">
        <ele>45.3192</ele>
        <time>2014-06-29T10:49:07Z</time>
      </trkpt>
      <trkpt lat="59.8444171" lon="17.6456863">
        <ele>44.8386</ele>
        <time>2014-06-29T10:49:08Z</time>
      </trkpt>
      <trkpt lat="59.8444366" lon="17.6456648">
        <ele>46.2806</ele>
        <time>2014-06-29T10:49:09Z</time>
      </trkpt>
      <trkpt lat="59.8444594" lon="17.6456328">
        <ele>47.2418</ele>
        <time>2014-06-29T10:49:10Z</time>
      </trkpt>
      <trkpt lat="59.8444776" lon="17.6455962">
        <ele>47.2418</ele>
        <time>2014-06-29T10:49:11Z</time>
      </trkpt>
      <trkpt lat="59.8444942" lon="17.6455542">
        <ele>48.2034</ele>
        <time>2014-06-29T10:49:12Z</time>
      </trkpt>
      <trkpt lat="59.8445059" lon="17.6455374">
        <ele>46.7612</ele>
        <time>2014-06-29T10:49:13Z</time>
      </trkpt>
      <trkpt lat="59.8445208" lon="17.6455174">
        <ele>47.2418</ele>
        <time>2014-06-29T10:49:14Z</time>
      </trkpt>
      <trkpt lat="59.8445294" lon="17.6454877">
        <ele>46.2806</ele>
        <time>2014-06-29T10:49:15Z</time>
      </trkpt>
      <trkpt lat="59.8445502" lon="17.645468">
        <ele>48.684</ele>
        <time>2014-06-29T10:49:16Z</time>
      </trkpt>
      <trkpt lat="59.844556" lon="17.6454421">
        <ele>46.7612</ele>
        <time>2014-06-29T10:49:17Z</time>
      </trkpt>
      <trkpt lat="59.8445672" lon="17.645412">
        <ele>46.7612</ele>
        <time>2014-06-29T10:49:18Z</time>
      </trkpt>
      <trkpt lat="59.8445803" lon="17.6453707">
        <ele>46.7612</ele>
        <time>2014-06-29T10:49:19Z</time>
      </trkpt>
      <trkpt lat="59.8446024" lon="17.6453385">
        <ele>47.7225</ele>
        <time>2014-06-29T10:49:20Z</time>
      </trkpt>
      <trkpt lat="59.8446192" lon="17.6453174">
        <ele>47.2418</ele>
        <time>2014-06-29T10:49:21Z</time>
      </trkpt>
      <trkpt lat="59.8446378" lon="17.6453003">
        <ele>47.7225</ele>
        <time>2014-06-29T10:49:22Z</time>
      </trkpt>
      <trkpt lat="59.8446486" lon="17.6452882">
        <ele>47.2418</ele>
        <time>2014-06-29T10:49:23Z</time>
      </trkpt>
      <trkpt lat="59.8446503" lon="17.6452677">
        <ele>45.3192</ele>
        <time>2014-06-29T10:49:24Z</time>
      </trkpt>
      <trkpt lat="59.8446617" lon="17.6452524">
        <ele>45.7999</ele>
        <time>2014-06-29T10:49:25Z</time>
      </trkpt>
      <trkpt lat="59.8446692" lon="17.6452361">
        <ele>44.8386</ele>
        <time>2014-06-29T10:49:26Z</time>
      </trkpt>
      <trkpt lat="59.844691" lon="17.6452213">
        <ele>44.358</ele>
        <time>2014-06-29T10:49:27Z</time>
      </trkpt>
      <trkpt lat="59.8447119" lon="17.6452133">
        <ele>43.3966</ele>
        <time>2014-06-29T10:49:28Z</time>
      </trkpt>
      <trkpt lat="59.8447299" lon="17.6452046">
        <ele>42.916</ele>
        <time>2014-06-29T10:49:29Z</time>
      </trkpt>
      <trkpt lat="59.8447495" lon="17.6451959">
        <ele>41.9547</ele>
        <time>2014-06-29T10:49:30Z</time>
      </trkpt>
      <trkpt lat="59.8447618" lon="17.6451835">
        <ele>40.5128</ele>
        <time>2014-06-29T10:49:31Z</time>
      </trkpt>
      <trkpt lat="59.8447703" lon="17.6451578">
        <ele>38.5901</ele>
        <time>2014-06-29T10:49:32Z</time>
      </trkpt>
      <trkpt lat="59.844788" lon="17.6451511">
        <ele>38.1094</ele>
        <time>2014-06-29T10:49:33Z</time>
      </trkpt>
      <trkpt lat="59.8448039" lon="17.6451293">
        <ele>37.6287</ele>
        <time>2014-06-29T10:49:34Z</time>
      </trkpt>
      <trkpt lat="59.8448275" lon="17.6451266">
        <ele>37.6287</ele>
        <time>2014-06-29T10:49:35Z</time>
      </trkpt>
      <trkpt lat="59.8448472" lon="17.6451258">
        <ele>37.6287</ele>
        <time>2014-06-29T10:49:36Z</time>
      </trkpt>
      <trkpt lat="59.84487" lon="17.6451309">
        <ele>36.6675</ele>
        <time>2014-06-29T10:49:37Z</time>
      </trkpt>
      <trkpt lat="59.8448911" lon="17.6451303">
        <ele>35.7061</ele>
        <time>2014-06-29T10:49:38Z</time>
      </trkpt>
      <trkpt lat="59.8449161" lon="17.6451289">
        <ele>35.7061</ele>
        <time>2014-06-29T10:49:39Z</time>
      </trkpt>
      <trkpt lat="59.8449402" lon="17.6451288">
        <ele>36.6675</ele>
        <time>2014-06-29T10:49:40Z</time>
      </trkpt>
      <trkpt lat="59.8449645" lon="17.6451266">
        <ele>37.1481</ele>
        <time>2014-06-29T10:49:41Z</time>
      </trkpt>
      <trkpt lat="59.8449855" lon="17.6451253">
        <ele>37.6287</ele>
        <time>2014-06-29T10:49:42Z</time>
      </trkpt>
      <trkpt lat="59.8450049" lon="17.6451289">
        <ele>38.1094</ele>
        <time>2014-06-29T10:49:43Z</time>
      </trkpt>
      <trkpt lat="59.8450258" lon="17.6451437">
        <ele>39.0707</ele>
        <time>2014-06-29T10:49:44Z</time>
      </trkpt>
      <trkpt lat="59.8450472" lon="17.6451516">
        <ele>39.5513</ele>
        <time>2014-06-29T10:49:45Z</time>
      </trkpt>
      <trkpt lat="59.8450681" lon="17.6451512">
        <ele>39.5513</ele>
        <time>2014-06-29T10:49:46Z</time>
      </trkpt>
      <trkpt lat="59.8450935" lon="17.6451579">
        <ele>40.0321</ele>
        <time>2014-06-29T10:49:47Z</time>
      </trkpt>
      <trkpt lat="59.8451129" lon="17.645168">
        <ele>39.5513</ele>
        <time>2014-06-29T10:49:48Z</time>
      </trkpt>
      <trkpt lat="59.845133" lon="17.6451718">
        <ele>39.5513</ele>
        <time>2014-06-29T10:49:49Z</time>
      </trkpt>
      <trkpt lat="59.8451626" lon="17.6451765">
        <ele>40.9934</ele>
        <time>2014-06-29T10:49:50Z</time>
      </trkpt>
      <trkpt lat="59.8451854" lon="17.6451822">
        <ele>40.0321</ele>
        <time>2014-06-29T10:49:51Z</time>
      </trkpt>
      <trkpt lat="59.8452059" lon="17.6451918">
        <ele>40.5128</ele>
        <time>2014-06-29T10:49:52Z</time>
      </trkpt>
      <trkpt lat="59.8452273" lon="17.6451904">
        <ele>40.9934</ele>
        <time>2014-06-29T10:49:53Z</time>
      </trkpt>
      <trkpt lat="59.8452548" lon="17.6451833">
        <ele>41.9547</ele>
        <time>2014-06-29T10:49:54Z</time>
      </trkpt>
      <trkpt lat="59.8452772" lon="17.6451838">
        <ele>42.4354</ele>
        <time>2014-06-29T10:49:55Z</time>
      </trkpt>
      <trkpt lat="59.8453028" lon="17.6451936">
        <ele>42.4354</ele>
        <time>2014-06-29T10:49:56Z</time>
      </trkpt>
      <trkpt lat="59.8453383" lon="17.6451941">
        <ele>43.8773</ele>
        <time>2014-06-29T10:49:57Z</time>
      </trkpt>
      <trkpt lat="59.8453649" lon="17.6452034">
        <ele>44.358</ele>
        <time>2014-06-29T10:49:58Z</time>
      </trkpt>
      <trkpt lat="59.8453801" lon="17.6452143">
        <ele>43.8773</ele>
        <time>2014-06-29T10:49:59Z</time>
      </trkpt>
      <trkpt lat="59.8454178" lon="17.6452141">
        <ele>48.684</ele>
        <time>2014-06-29T10:50:00Z</time>
      </trkpt>
      <trkpt lat="59.8454362" lon="17.6452203">
        <ele>51.0872</ele>
        <time>2014-06-29T10:50:01Z</time>
      </trkpt>
      <trkpt lat="59.8454616" lon="17.6452299">
        <ele>53.4905</ele>
        <time>2014-06-29T10:50:02Z</time>
      </trkpt>
      <trkpt lat="59.8454869" lon="17.6452355">
        <ele>55.4131</ele>
        <time>2014-06-29T10:50:03Z</time>
      </trkpt>
      <trkpt lat="59.8455053" lon="17.6452421">
        <ele>55.8938</ele>
        <time>2014-06-29T10:50:04Z</time>
      </trkpt>
      <trkpt lat="59.8455232" lon="17.6452402">
        <ele>56.8551</ele>
        <time>2014-06-29T10:50:05Z</time>
      </trkpt>
      <trkpt lat="59.8455374" lon="17.6452465">
        <ele>56.3745</ele>
        <time>2014-06-29T10:50:06Z</time>
      </trkpt>
      <trkpt lat="59.8455615" lon="17.645247">
        <ele>55.4131</ele>
        <time>2014-06-29T10:50:07Z</time>
      </trkpt>
      <trkpt lat="59.8455784" lon="17.6452509">
        <ele>52.5292</ele>
        <time>2014-06-29T10:50:08Z</time>
      </trkpt>
      <trkpt lat="59.8456008" lon="17.6452568">
        <ele>51.5679</ele>
        <time>2014-06-29T10:50:09Z</time>
      </trkpt>
      <trkpt lat="59.8456252" lon="17.6452569">
        <ele>51.5679</ele>
        <time>2014-06-29T10:50:10Z</time>
      </trkpt>
      <trkpt lat="59.8456458" lon="17.6452509">
        <ele>51.0872</ele>
        <time>2014-06-29T10:50:11Z</time>
      </trkpt>
      <trkpt lat="59.8456641" lon="17.6452448">
        <ele>50.6066</ele>
        <time>2014-06-29T10:50:12Z</time>
      </trkpt>
      <trkpt lat="59.8456819" lon="17.6452421">
        <ele>50.6066</ele>
        <time>2014-06-29T10:50:13Z</time>
      </trkpt>
      <trkpt lat="59.8456903" lon="17.6452463">
        <ele>49.6453</ele>
        <time>2014-06-29T10:50:14Z</time>
      </trkpt>
      <trkpt lat="59.8456941" lon="17.6452459">
        <ele>47.7225</ele>
        <time>2014-06-29T10:50:15Z</time>
      </trkpt>
      <trkpt lat="59.8457086" lon="17.6452412">
        <ele>48.2034</ele>
        <time>2014-06-29T10:50:16Z</time>
      </trkpt>
      <trkpt lat="59.8457141" lon="17.645236">
        <ele>46.7612</ele>
        <time>2014-06-29T10:50:17Z</time>
      </trkpt>
      <trkpt lat="59.8457153" lon="17.6452272">
        <ele>44.8386</ele>
        <time>2014-06-29T10:50:18Z</time>
      </trkpt>
      <trkpt lat="59.84572" lon="17.6452227">
        <ele>43.8773</ele>
        <time>2014-06-29T10:50:19Z</time>
      </trkpt>
      <trkpt lat="59.8457299" lon="17.6452262">
        <ele>42.916</ele>
        <time>2014-06-29T10:50:20Z</time>
      </trkpt>
      <trkpt lat="59.8457407" lon="17.6452265">
        <ele>42.4354</ele>
        <time>2014-06-29T10:50:21Z</time>
      </trkpt>
      <trkpt lat="59.845752" lon="17.6452236">
        <ele>41.9547</ele>
        <time>2014-06-29T10:50:22Z</time>
      </trkpt>
      <trkpt lat="59.8457664" lon="17.6452272">
        <ele>41.474</ele>
        <time>2014-06-29T10:50:23Z</time>
      </trkpt>
      <trkpt lat="59.845779" lon="17.6452296">
        <ele>40.9934</ele>
        <time>2014-06-29T10:50:24Z</time>
      </trkpt>
      <trkpt lat="59.8457934" lon="17.6452239">
        <ele>41.474</ele>
        <time>2014-06-29T10:50:25Z</time>
      </trkpt>
      <trkpt lat="59.8458063" lon="17.6452205">
        <ele>41.9547</ele>
        <time>2014-06-29T10:50:26Z</time>
      </trkpt>
      <trkpt lat="59.8458158" lon="17.6452189">
        <ele>41.9547</ele>
        <time>2014-06-29T10:50:27Z</time>
      </trkpt>
      <trkpt lat="59.8458316" lon="17.6452191">
        <ele>42.916</ele>
        <time>2014-06-29T10:50:28Z</time>
      </trkpt>
      <trkpt lat="59.8458469" lon="17.6452315">
        <ele>43.3966</ele>
        <time>2014-06-29T10:50:29Z</time>
      </trkpt>
      <trkpt lat="59.8458698" lon="17.6452432">
        <ele>45.7999</ele>
        <time>2014-06-29T10:50:30Z</time>
      </trkpt>
      <trkpt lat="59.8458763" lon="17.6452529">
        <ele>45.3192</ele>
        <time>2014-06-29T10:50:31Z</time>
      </trkpt>
      <trkpt lat="59.8458862" lon="17.6452582">
        <ele>45.3192</ele>
        <time>2014-06-29T10:50:32Z</time>
      </trkpt>
      <trkpt lat="59.8458935" lon="17.6452581">
        <ele>44.358</ele>
        <time>2014-06-29T10:50:33Z</time>
      </trkpt>
      <trkpt lat="59.8459089" lon="17.6452602">
        <ele>44.358</ele>
        <time>2014-06-29T10:50:34Z</time>
      </trkpt>
      <trkpt lat="59.8459204" lon="17.6452619">
        <ele>44.358</ele>
        <time>2014-06-29T10:50:35Z</time>
      </trkpt>
      <trkpt lat="59.845936" lon="17.645261">
        <ele>45.3192</ele>
        <time>2014-06-29T10:50:36Z</time>
      </trkpt>
      <trkpt lat="59.8459518" lon="17.6452612">
        <ele>45.3192</ele>
        <time>2014-06-29T10:50:37Z</time>
      </trkpt>
      <trkpt lat="59.8459615" lon="17.645263">
        <ele>44.8386</ele>
        <time>2014-06-29T10:50:38Z</time>
      </trkpt>
      <trkpt lat="59.8459717" lon="17.6452591">
        <ele>45.3192</ele>
        <time>2014-06-29T10:50:39Z</time>
      </trkpt>
      <trkpt lat="59.845982" lon="17.6452577">
        <ele>43.8773</ele>
        <time>2014-06-29T10:50:40Z</time>
      </trkpt>
      <trkpt lat="59.8459988" lon="17.6452542">
        <ele>44.358</ele>
        <time>2014-06-29T10:50:41Z</time>
      </trkpt>
      <trkpt lat="59.8460219" lon="17.6452381">
        <ele>44.8386</ele>
        <time>2014-06-29T10:50:42Z</time>
      </trkpt>
      <trkpt lat="59.8460416" lon="17.6452221">
        <ele>44.8386</ele>
        <time>2014-06-29T10:50:43Z</time>
      </trkpt>
      <trkpt lat="59.8460613" lon="17.6452086">
        <ele>45.3192</ele>
        <time>2014-06-29T10:50:44Z</time>
      </trkpt>
      <trkpt lat="59.846072" lon="17.6451993">
        <ele>43.8773</ele>
        <time>2014-06-29T10:50:45Z</time>
      </trkpt>
      <trkpt lat="59.8460821" lon="17.6451848">
        <ele>43.3966</ele>
        <time>2014-06-29T10:50:46Z</time>
      </trkpt>
      <trkpt lat="59.8460979" lon="17.6451735">
        <ele>42.4354</ele>
        <time>2014-06-29T10:50:47Z</time>
      </trkpt>
      <trkpt lat="59.8461152" lon="17.645164">
        <ele>40.9934</ele>
        <time>2014-06-29T10:50:48Z</time>
      </trkpt>
      <trkpt lat="59.8461248" lon="17.6451488">
        <ele>38.1094</ele>
        <time>2014-06-29T10:50:49Z</time>
      </trkpt>
      <trkpt lat="59.8461364" lon="17.6451312">
        <ele>37.6287</ele>
        <time>2014-06-29T10:50:50Z</time>
      </trkpt>
      <trkpt lat="59.8461507" lon="17.6451195">
        <ele>38.1094</ele>
        <time>2014-06-29T10:50:51Z</time>
      </trkpt>
      <trkpt lat="59.8461658" lon="17.6451012">
        <ele>38.5901</ele>
        <time>2014-06-29T10:50:52Z</time>
      </trkpt>
      <trkpt lat="59.8461732" lon="17.6450625">
        <ele>38.1094</ele>
        <time>2014-06-29T10:50:53Z</time>
      </trkpt>
      <trkpt lat="59.8461861" lon="17.6450402">
        <ele>38.5901</ele>
        <time>2014-06-29T10:50:54Z</time>
      </trkpt>
      <trkpt lat="59.8461955" lon="17.6450247">
        <ele>38.1094</ele>
        <time>2014-06-29T10:50:55Z</time>
      </trkpt>
      <trkpt lat="59.8462103" lon="17.6450095">
        <ele>38.1094</ele>
        <time>2014-06-29T10:50:56Z</time>
      </trkpt>
      <trkpt lat="59.8462307" lon="17.6449903">
        <ele>40.5128</ele>
        <time>2014-06-29T10:50:57Z</time>
      </trkpt>
      <trkpt lat="59.8462536" lon="17.6449701">
        <ele>42.916</ele>
        <time>2014-06-29T10:50:58Z</time>
      </trkpt>
      <trkpt lat="59.8462831" lon="17.6449412">
        <ele>45.7999</ele>
        <time>2014-06-29T10:50:59Z</time>
      </trkpt>
      <trkpt lat="59.8463013" lon="17.6448999">
        <ele>45.3192</ele>
        <time>2014-06-29T10:51:00Z</time>
      </trkpt>
      <trkpt lat="59.8463228" lon="17.6448637">
        <ele>44.8386</ele>
        <time>2014-06-29T10:51:01Z</time>
      </trkpt>
      <trkpt lat="59.8463486" lon="17.6448367">
        <ele>44.8386</ele>
        <time>2014-06-29T10:51:02Z</time>
      </trkpt>
      <trkpt lat="59.8463727" lon="17.6448069">
        <ele>44.8386</ele>
        <time>2014-06-29T10:51:03Z</time>
      </trkpt>
      <trkpt lat="59.846404" lon="17.6447823">
        <ele>45.7999</ele>
        <time>2014-06-29T10:51:04Z</time>
      </trkpt>
      <trkpt lat="59.8464305" lon="17.6447434">
        <ele>45.7999</ele>
        <time>2014-06-29T10:51:05Z</time>
      </trkpt>
      <trkpt lat="59.8464602" lon="17.6447046">
        <ele>47.2418</ele>
        <time>2014-06-29T10:51:06Z</time>
      </trkpt>
      <trkpt lat="59.8464845" lon="17.6446667">
        <ele>47.2418</ele>
        <time>2014-06-29T10:51:07Z</time>
      </trkpt>
      <trkpt lat="59.8465113" lon="17.6446173">
        <ele>46.7612</ele>
        <time>2014-06-29T10:51:08Z</time>
      </trkpt>
      <trkpt lat="59.8465369" lon="17.6445622">
        <ele>46.2806</ele>
        <time>2014-06-29T10:51:09Z</time>
      </trkpt>
      <trkpt lat="59.8465646" lon="17.6445237">
        <ele>46.2806</ele>
        <time>2014-06-29T10:51:10Z</time>
      </trkpt>
      <trkpt lat="59.8465933" lon="17.6444954">
        <ele>46.2806</ele>
        <time>2014-06-29T10:51:11Z</time>
      </trkpt>
      <trkpt lat="59.8466135" lon="17.6444622">
        <ele>45.7999</ele>
        <time>2014-06-29T10:51:12Z</time>
      </trkpt>
      <trkpt lat="59.8466353" lon="17.6444347">
        <ele>44.358</ele>
        <time>2014-06-29T10:51:13Z</time>
      </trkpt>
      <trkpt lat="59.8466592" lon="17.6444221">
        <ele>42.916</ele>
        <time>2014-06-29T10:51:14Z</time>
      </trkpt>
      <trkpt lat="59.846681" lon="17.6444083">
        <ele>41.474</ele>
        <time>2014-06-29T10:51:15Z</time>
      </trkpt>
      <trkpt lat="59.8467077" lon="17.6443963">
        <ele>40.5128</ele>
        <time>2014-06-29T10:51:16Z</time>
      </trkpt>
      <trkpt lat="59.8467403" lon="17.644379">
        <ele>40.5128</ele>
        <time>2014-06-29T10:51:17Z</time>
      </trkpt>
      <trkpt lat="59.8467747" lon="17.6443547">
        <ele>40.9934</ele>
        <time>2014-06-29T10:51:18Z</time>
      </trkpt>
      <trkpt lat="59.84681" lon="17.6443311">
        <ele>41.9547</ele>
        <time>2014-06-29T10:51:19Z</time>
      </trkpt>
      <trkpt lat="59.8468433" lon="17.6443154">
        <ele>44.358</ele>
        <time>2014-06-29T10:51:20Z</time>
      </trkpt>
      <trkpt lat="59.8468819" lon="17.6443186">
        <ele>47.2418</ele>
        <time>2014-06-29T10:51:21Z</time>
      </trkpt>
      <trkpt lat="59.8469084" lon="17.6443262">
        <ele>47.2418</ele>
        <time>2014-06-29T10:51:22Z</time>
      </trkpt>
      <trkpt lat="59.8469347" lon="17.6443413">
        <ele>46.7612</ele>
        <time>2014-06-29T10:51:23Z</time>
      </trkpt>
      <trkpt lat="59.8469621" lon="17.64435">
        <ele>47.2418</ele>
        <time>2014-06-29T10:51:24Z</time>
      </trkpt>
      <trkpt lat="59.846992" lon="17.6443596">
        <ele>47.7225</ele>
        <time>2014-06-29T10:51:25Z</time>
      </trkpt>
      <trkpt lat="59.8470172" lon="17.6443704">
        <ele>48.684</ele>
        <time>2014-06-29T10:51:26Z</time>
      </trkpt>
      <trkpt lat="59.8470413" lon="17.6443851">
        <ele>48.684</ele>
        <time>2014-06-29T10:51:27Z</time>
      </trkpt>
      <trkpt lat="59.8470673" lon="17.6444005">
        <ele>47.7225</ele>
        <time>2014-06-29T10:51:28Z</time>
      </trkpt>
      <trkpt lat="59.8470975" lon="17.6444124">
        <ele>47.7225</ele>
        <time>2014-06-29T10:51:29Z</time>
      </trkpt>
      <trkpt lat="59.8471236" lon="17.6444167">
        <ele>47.7225</ele>
        <time>2014-06-29T10:51:30Z</time>
      </trkpt>
      <trkpt lat="59.8471542" lon="17.6444272">
        <ele>47.7225</ele>
        <time>2014-06-29T10:51:31Z</time>
      </trkpt>
      <trkpt lat="59.8471828" lon="17.6444352">
        <ele>47.2418</ele>
        <time>2014-06-29T10:51:32Z</time>
      </trkpt>
      <trkpt lat="59.8472144" lon="17.6444528">
        <ele>47.2418</ele>
        <time>2014-06-29T10:51:33Z</time>
      </trkpt>
      <trkpt lat="59.8472466" lon="17.6444731">
        <ele>47.7225</ele>
        <time>2014-06-29T10:51:34Z</time>
      </trkpt>
      <trkpt lat="59.8472786" lon="17.6444871">
        <ele>46.7612</ele>
        <time>2014-06-29T10:51:35Z</time>
      </trkpt>
      <trkpt lat="59.8473132" lon="17.6444942">
        <ele>45.3192</ele>
        <time>2014-06-29T10:51:36Z</time>
      </trkpt>
      <trkpt lat="59.847347" lon="17.6444916">
        <ele>44.358</ele>
        <time>2014-06-29T10:51:37Z</time>
      </trkpt>
      <trkpt lat="59.8473805" lon="17.6444892">
        <ele>44.358</ele>
        <time>2014-06-29T10:51:38Z</time>
      </trkpt>
      <trkpt lat="59.8474133" lon="17.6444935">
        <ele>44.358</ele>
        <time>2014-06-29T10:51:39Z</time>
      </trkpt>
      <trkpt lat="59.8474377" lon="17.6445032">
        <ele>42.916</ele>
        <time>2014-06-29T10:51:40Z</time>
      </trkpt>
      <trkpt lat="59.8474585" lon="17.6445082">
        <ele>41.474</ele>
        <time>2014-06-29T10:51:41Z</time>
      </trkpt>
      <trkpt lat="59.8474851" lon="17.6445025">
        <ele>40.0321</ele>
        <time>2014-06-29T10:51:42Z</time>
      </trkpt>
      <trkpt lat="59.8475128" lon="17.644502">
        <ele>38.5901</ele>
        <time>2014-06-29T10:51:43Z</time>
      </trkpt>
      <trkpt lat="59.8475264" lon="17.6445035">
        <ele>36.6675</ele>
        <time>2014-06-29T10:51:44Z</time>
      </trkpt>
      <trkpt lat="59.8475589" lon="17.6445062">
        <ele>38.1094</ele>
        <time>2014-06-29T10:51:45Z</time>
      </trkpt>
      <trkpt lat="59.8475893" lon="17.6445056">
        <ele>38.1094</ele>
        <time>2014-06-29T10:51:46Z</time>
      </trkpt>
      <trkpt lat="59.8476193" lon="17.6445025">
        <ele>37.6287</ele>
        <time>2014-06-29T10:51:47Z</time>
      </trkpt>
      <trkpt lat="59.8476511" lon="17.644489">
        <ele>38.1094</ele>
        <time>2014-06-29T10:51:48Z</time>
      </trkpt>
      <trkpt lat="59.8476864" lon="17.6444704">
        <ele>38.5901</ele>
        <time>2014-06-29T10:51:49Z</time>
      </trkpt>
      <trkpt lat="59.8477149" lon="17.6444419">
        <ele>38.1094</ele>
        <time>2014-06-29T10:51:50Z</time>
      </trkpt>
      <trkpt lat="59.847737" lon="17.6444205">
        <ele>37.1481</ele>
        <time>2014-06-29T10:51:51Z</time>
      </trkpt>
      <trkpt lat="59.8477636" lon="17.6444097">
        <ele>36.1868</ele>
        <time>2014-06-29T10:51:52Z</time>
      </trkpt>
      <trkpt lat="59.8477952" lon="17.6444056">
        <ele>37.1481</ele>
        <time>2014-06-29T10:51:53Z</time>
      </trkpt>
      <trkpt lat="59.8478201" lon="17.6443978">
        <ele>36.1868</ele>
        <time>2014-06-29T10:51:54Z</time>
      </trkpt>
      <trkpt lat="59.8478473" lon="17.6443741">
        <ele>35.7061</ele>
        <time>2014-06-29T10:51:55Z</time>
      </trkpt>
      <trkpt lat="59.8478714" lon="17.6443559">
        <ele>34.7449</ele>
        <time>2014-06-29T10:51:56Z</time>
      </trkpt>
      <trkpt lat="59.8478983" lon="17.644334">
        <ele>34.7449</ele>
        <time>2014-06-29T10:51:57Z</time>
      </trkpt>
      <trkpt lat="59.8479293" lon="17.6443099">
        <ele>34.7449</ele>
        <time>2014-06-29T10:51:58Z</time>
      </trkpt>
      <trkpt lat="59.8479593" lon="17.6442881">
        <ele>34.7449</ele>
        <time>2014-06-29T10:51:59Z</time>
      </trkpt>
      <trkpt lat="59.8480023" lon="17.6442623">
        <ele>35.2255</ele>
        <time>2014-06-29T10:52:00Z</time>
      </trkpt>
      <trkpt lat="59.848026" lon="17.6442477">
        <ele>32.3416</ele>
        <time>2014-06-29T10:52:01Z</time>
      </trkpt>
      <trkpt lat="59.8480515" lon="17.6442332">
        <ele>31.3801</ele>
        <time>2014-06-29T10:52:02Z</time>
      </trkpt>
      <trkpt lat="59.8480794" lon="17.644204">
        <ele>29.9381</ele>
        <time>2014-06-29T10:52:03Z</time>
      </trkpt>
      <trkpt lat="59.8481002" lon="17.6441758">
        <ele>28.9769</ele>
        <time>2014-06-29T10:52:04Z</time>
      </trkpt>
      <trkpt lat="59.8481204" lon="17.6441527">
        <ele>26.5736</ele>
        <time>2014-06-29T10:52:05Z</time>
      </trkpt>
      <trkpt lat="59.8481492" lon="17.6441442">
        <ele>25.6123</ele>
        <time>2014-06-29T10:52:06Z</time>
      </trkpt>
      <trkpt lat="59.8481701" lon="17.6441431">
        <ele>23.209</ele>
        <time>2014-06-29T10:52:07Z</time>
      </trkpt>
      <trkpt lat="59.8481943" lon="17.6441409">
        <ele>21.767</ele>
        <time>2014-06-29T10:52:08Z</time>
      </trkpt>
      <trkpt lat="59.848219" lon="17.6441312">
        <ele>19.3638</ele>
        <time>2014-06-29T10:52:09Z</time>
      </trkpt>
      <trkpt lat="59.8482484" lon="17.6441248">
        <ele>17.9218</ele>
        <time>2014-06-29T10:52:10Z</time>
      </trkpt>
      <trkpt lat="59.8482747" lon="17.6441157">
        <ele>16.4797</ele>
        <time>2014-06-29T10:52:11Z</time>
      </trkpt>
      <trkpt lat="59.848295" lon="17.6440979">
        <ele>15.5184</ele>
        <time>2014-06-29T10:52:12Z</time>
      </trkpt>
      <trkpt lat="59.8483158" lon="17.644071">
        <ele>13.5958</ele>
        <time>2014-06-29T10:52:13Z</time>
      </trkpt>
      <trkpt lat="59.8483394" lon="17.6440461">
        <ele>12.6344</ele>
        <time>2014-06-29T10:52:14Z</time>
      </trkpt>
      <trkpt lat="59.8483603" lon="17.6440208">
        <ele>10.7118</ele>
        <time>2014-06-29T10:52:15Z</time>
      </trkpt>
      <trkpt lat="59.8483899" lon="17.6440072">
        <ele>8.78918</ele>
        <time>2014-06-29T10:52:16Z</time>
      </trkpt>
      <trkpt lat="59.8484227" lon="17.6439985">
        <ele>7.82788</ele>
        <time>2014-06-29T10:52:17Z</time>
      </trkpt>
      <trkpt lat="59.8484587" lon="17.6439995">
        <ele>7.82788</ele>
        <time>2014-06-29T10:52:18Z</time>
      </trkpt>
      <trkpt lat="59.8484938" lon="17.6440014">
        <ele>7.82788</ele>
        <time>2014-06-29T10:52:19Z</time>
      </trkpt>
      <trkpt lat="59.8485259" lon="17.6440027">
        <ele>6.86646</ele>
        <time>2014-06-29T10:52:20Z</time>
      </trkpt>
      <trkpt lat="59.8485628" lon="17.6440033">
        <ele>5.90527</ele>
        <time>2014-06-29T10:52:21Z</time>
      </trkpt>
      <trkpt lat="59.8485991" lon="17.6440108">
        <ele>6.38586</ele>
        <time>2014-06-29T10:52:22Z</time>
      </trkpt>
      <trkpt lat="59.8486289" lon="17.6440218">
        <ele>5.42456</ele>
        <time>2014-06-29T10:52:23Z</time>
      </trkpt>
      <trkpt lat="59.8486597" lon="17.6440309">
        <ele>4.94385</ele>
        <time>2014-06-29T10:52:24Z</time>
      </trkpt>
      <trkpt lat="59.8486885" lon="17.6440312">
        <ele>4.94385</ele>
        <time>2014-06-29T10:52:25Z</time>
      </trkpt>
      <trkpt lat="59.8487353" lon="17.644019">
        <ele>8.78918</ele>
        <time>2014-06-29T10:52:26Z</time>
      </trkpt>
      <trkpt lat="59.8487655" lon="17.6440145">
        <ele>9.2699</ele>
        <time>2014-06-29T10:52:27Z</time>
      </trkpt>
      <trkpt lat="59.8487918" lon="17.6440084">
        <ele>9.75061</ele>
        <time>2014-06-29T10:52:28Z</time>
      </trkpt>
      <trkpt lat="59.8488224" lon="17.6440026">
        <ele>11.1925</ele>
        <time>2014-06-29T10:52:29Z</time>
      </trkpt>
      <trkpt lat="59.8488684" lon="17.6439993">
        <ele>14.557</ele>
        <time>2014-06-29T10:52:30Z</time>
      </trkpt>
      <trkpt lat="59.8488995" lon="17.6440019">
        <ele>15.0377</ele>
        <time>2014-06-29T10:52:31Z</time>
      </trkpt>
      <trkpt lat="59.848933" lon="17.644008">
        <ele>15.0377</ele>
        <time>2014-06-29T10:52:32Z</time>
      </trkpt>
      <trkpt lat="59.8489648" lon="17.6440031">
        <ele>15.0377</ele>
        <time>2014-06-29T10:52:33Z</time>
      </trkpt>
      <trkpt lat="59.8489941" lon="17.6439912">
        <ele>15.0377</ele>
        <time>2014-06-29T10:52:34Z</time>
      </trkpt>
      <trkpt lat="59.8490257" lon="17.643987">
        <ele>15.0377</ele>
        <time>2014-06-29T10:52:35Z</time>
      </trkpt>
      <trkpt lat="59.8490595" lon="17.6439879">
        <ele>15.0377</ele>
        <time>2014-06-29T10:52:36Z</time>
      </trkpt>
      <trkpt lat="59.8490954" lon="17.6439882">
        <ele>15.5184</ele>
        <time>2014-06-29T10:52:37Z</time>
      </trkpt>
      <trkpt lat="59.8491296" lon="17.6439817">
        <ele>15.5184</ele>
        <time>2014-06-29T10:52:38Z</time>
      </trkpt>
      <trkpt lat="59.8491682" lon="17.6439726">
        <ele>15.999</ele>
        <time>2014-06-29T10:52:39Z</time>
      </trkpt>
      <trkpt lat="59.8492057" lon="17.6439672">
        <ele>16.9604</ele>
        <time>2014-06-29T10:52:40Z</time>
      </trkpt>
      <trkpt lat="59.8492334" lon="17.6439597">
        <ele>16.4797</ele>
        <time>2014-06-29T10:52:41Z</time>
      </trkpt>
      <trkpt lat="59.8492599" lon="17.643947">
        <ele>16.4797</ele>
        <time>2014-06-29T10:52:42Z</time>
      </trkpt>
      <trkpt lat="59.849288" lon="17.6439339">
        <ele>16.4797</ele>
        <time>2014-06-29T10:52:43Z</time>
      </trkpt>
      <trkpt lat="59.8493182" lon="17.643933">
        <ele>16.4797</ele>
        <time>2014-06-29T10:52:44Z</time>
      </trkpt>
      <trkpt lat="59.8493465" lon="17.6439203">
        <ele>16.4797</ele>
        <time>2014-06-29T10:52:45Z</time>
      </trkpt>
      <trkpt lat="59.8493735" lon="17.6438969">
        <ele>15.5184</ele>
        <time>2014-06-29T10:52:46Z</time>
      </trkpt>
      <trkpt lat="59.8493993" lon="17.6438786">
        <ele>15.0377</ele>
        <time>2014-06-29T10:52:47Z</time>
      </trkpt>
      <trkpt lat="59.8494221" lon="17.6438564">
        <ele>14.0764</ele>
        <time>2014-06-29T10:52:48Z</time>
      </trkpt>
      <trkpt lat="59.8494491" lon="17.6438448">
        <ele>13.5958</ele>
        <time>2014-06-29T10:52:49Z</time>
      </trkpt>
      <trkpt lat="59.8494788" lon="17.6438493">
        <ele>13.1151</ele>
        <time>2014-06-29T10:52:50Z</time>
      </trkpt>
      <trkpt lat="59.849504" lon="17.6438455">
        <ele>12.1538</ele>
        <time>2014-06-29T10:52:51Z</time>
      </trkpt>
      <trkpt lat="59.8495302" lon="17.6438276">
        <ele>11.1925</ele>
        <time>2014-06-29T10:52:52Z</time>
      </trkpt>
      <trkpt lat="59.8495546" lon="17.6438043">
        <ele>10.2312</ele>
        <time>2014-06-29T10:52:53Z</time>
      </trkpt>
      <trkpt lat="59.8495816" lon="17.6437862">
        <ele>10.2312</ele>
        <time>2014-06-29T10:52:54Z</time>
      </trkpt>
      <trkpt lat="59.8496108" lon="17.6437732">
        <ele>10.2312</ele>
        <time>2014-06-29T10:52:55Z</time>
      </trkpt>
      <trkpt lat="59.849633" lon="17.64376">
        <ele>9.2699</ele>
        <time>2014-06-29T10:52:56Z</time>
      </trkpt>
      <trkpt lat="59.8496585" lon="17.6437515">
        <ele>8.78918</ele>
        <time>2014-06-29T10:52:57Z</time>
      </trkpt>
      <trkpt lat="59.8496853" lon="17.64374">
        <ele>8.30859</ele>
        <time>2014-06-29T10:52:58Z</time>
      </trkpt>
      <trkpt lat="59.8497039" lon="17.6437219">
        <ele>6.86646</ele>
        <time>2014-06-29T10:52:59Z</time>
      </trkpt>
      <trkpt lat="59.8497256" lon="17.6437083">
        <ele>6.38586</ele>
        <time>2014-06-29T10:53:00Z</time>
      </trkpt>
      <trkpt lat="59.8497519" lon="17.6436881">
        <ele>5.90527</ele>
        <time>2014-06-29T10:53:01Z</time>
      </trkpt>
      <trkpt lat="59.849776" lon="17.6436598">
        <ele>4.94385</ele>
        <time>2014-06-29T10:53:02Z</time>
      </trkpt>
      <trkpt lat="59.8498024" lon="17.6436349">
        <ele>4.46326</ele>
        <time>2014-06-29T10:53:03Z</time>
      </trkpt>
      <trkpt lat="59.8498313" lon="17.6436124">
        <ele>4.46326</ele>
        <time>2014-06-29T10:53:04Z</time>
      </trkpt>
      <trkpt lat="59.8498573" lon="17.6435796">
        <ele>3.50195</ele>
        <time>2014-06-29T10:53:05Z</time>
      </trkpt>
      <trkpt lat="59.8498851" lon="17.6435503">
        <ele>3.50195</ele>
        <time>2014-06-29T10:53:06Z</time>
      </trkpt>
      <trkpt lat="59.8499101" lon="17.643526">
        <ele>3.02124</ele>
        <time>2014-06-29T10:53:07Z</time>
      </trkpt>
      <trkpt lat="59.8499362" lon="17.6435089">
        <ele>3.02124</ele>
        <time>2014-06-29T10:53:08Z</time>
      </trkpt>
      <trkpt lat="59.8499652" lon="17.6434912">
        <ele>3.02124</ele>
        <time>2014-06-29T10:53:09Z</time>
      </trkpt>
      <trkpt lat="59.8499902" lon="17.6434699">
        <ele>2.06006</ele>
        <time>2014-06-29T10:53:10Z</time>
      </trkpt>
      <trkpt lat="59.8500135" lon="17.6434442">
        <ele>2.06006</ele>
        <time>2014-06-29T10:53:11Z</time>
      </trkpt>
      <trkpt lat="59.85004" lon="17.6434265">
        <ele>1.57935</ele>
        <time>2014-06-29T10:53:12Z</time>
      </trkpt>
      <trkpt lat="59.8500687" lon="17.6434091">
        <ele>1.09863</ele>
        <time>2014-06-29T10:53:13Z</time>
      </trkpt>
      <trkpt lat="59.8500967" lon="17.6433941">
        <ele>1.09863</ele>
        <time>2014-06-29T10:53:14Z</time>
      </trkpt>
      <trkpt lat="59.8501246" lon="17.6433871">
        <ele>0.618042</ele>
        <time>2014-06-29T10:53:15Z</time>
      </trkpt>
      <trkpt lat="59.8501535" lon="17.6433941">
        <ele>1.09863</ele>
        <time>2014-06-29T10:53:16Z</time>
      </trkpt>
      <trkpt lat="59.8501796" lon="17.6434037">
        <ele>1.09863</ele>
        <time>2014-06-29T10:53:17Z</time>
      </trkpt>
      <trkpt lat="59.850207" lon="17.6434152">
        <ele>1.09863</ele>
        <time>2014-06-29T10:53:18Z</time>
      </trkpt>
      <trkpt lat="59.8502412" lon="17.6434311">
        <ele>2.54065</ele>
        <time>2014-06-29T10:53:19Z</time>
      </trkpt>
      <trkpt lat="59.8502707" lon="17.6434515">
        <ele>3.02124</ele>
        <time>2014-06-29T10:53:20Z</time>
      </trkpt>
      <trkpt lat="59.850297" lon="17.6434624">
        <ele>3.02124</ele>
        <time>2014-06-29T10:53:21Z</time>
      </trkpt>
      <trkpt lat="59.8503241" lon="17.6434613">
        <ele>3.02124</ele>
        <time>2014-06-29T10:53:22Z</time>
      </trkpt>
      <trkpt lat="59.8503518" lon="17.6434616">
        <ele>3.02124</ele>
        <time>2014-06-29T10:53:23Z</time>
      </trkpt>
      <trkpt lat="59.8503764" lon="17.6434625">
        <ele>2.54065</ele>
        <time>2014-06-29T10:53:24Z</time>
      </trkpt>
      <trkpt lat="59.850397" lon="17.6434612">
        <ele>1.57935</ele>
        <time>2014-06-29T10:53:25Z</time>
      </trkpt>
      <trkpt lat="59.8504134" lon="17.6434532">
        <ele>1.09863</ele>
        <time>2014-06-29T10:53:26Z</time>
      </trkpt>
      <trkpt lat="59.8504305" lon="17.6434359">
        <ele>1.09863</ele>
        <time>2014-06-29T10:53:27Z</time>
      </trkpt>
      <trkpt lat="59.8504503" lon="17.6434083">
        <ele>2.06006</ele>
        <time>2014-06-29T10:53:28Z</time>
      </trkpt>
      <trkpt lat="59.8504653" lon="17.6433743">
        <ele>2.06006</ele>
        <time>2014-06-29T10:53:29Z</time>
      </trkpt>
      <trkpt lat="59.8504758" lon="17.6433339">
        <ele>2.06006</ele>
        <time>2014-06-29T10:53:30Z</time>
      </trkpt>
      <trkpt lat="59.8504897" lon="17.6432909">
        <ele>2.54065</ele>
        <time>2014-06-29T10:53:31Z</time>
      </trkpt>
      <trkpt lat="59.8505116" lon="17.6432408">
        <ele>3.50195</ele>
        <time>2014-06-29T10:53:32Z</time>
      </trkpt>
      <trkpt lat="59.8505332" lon="17.6431987">
        <ele>3.98267</ele>
        <time>2014-06-29T10:53:33Z</time>
      </trkpt>
      <trkpt lat="59.8505578" lon="17.6431686">
        <ele>4.46326</ele>
        <time>2014-06-29T10:53:34Z</time>
      </trkpt>
      <trkpt lat="59.850583" lon="17.6431403">
        <ele>4.94385</ele>
        <time>2014-06-29T10:53:35Z</time>
      </trkpt>
      <trkpt lat="59.8506124" lon="17.6431142">
        <ele>6.38586</ele>
        <time>2014-06-29T10:53:36Z</time>
      </trkpt>
      <trkpt lat="59.8506338" lon="17.6430863">
        <ele>6.86646</ele>
        <time>2014-06-29T10:53:37Z</time>
      </trkpt>
      <trkpt lat="59.8506562" lon="17.6430604">
        <ele>7.82788</ele>
        <time>2014-06-29T10:53:38Z</time>
      </trkpt>
      <trkpt lat="59.8506821" lon="17.64304">
        <ele>7.82788</ele>
        <time>2014-06-29T10:53:39Z</time>
      </trkpt>
      <trkpt lat="59.8507119" lon="17.6430199">
        <ele>8.78918</ele>
        <time>2014-06-29T10:53:40Z</time>
      </trkpt>
      <trkpt lat="59.8507364" lon="17.6429947">
        <ele>8.30859</ele>
        <time>2014-06-29T10:53:41Z</time>
      </trkpt>
      <trkpt lat="59.8507624" lon="17.6429703">
        <ele>8.78918</ele>
        <time>2014-06-29T10:53:42Z</time>
      </trkpt>
      <trkpt lat="59.8507882" lon="17.6429479">
        <ele>9.2699</ele>
        <time>2014-06-29T10:53:43Z</time>
      </trkpt>
      <trkpt lat="59.8508136" lon="17.6429302">
        <ele>8.78918</ele>
        <time>2014-06-29T10:53:44Z</time>
      </trkpt>
      <trkpt lat="59.8508351" lon="17.642909">
        <ele>8.30859</ele>
        <time>2014-06-29T10:53:45Z</time>
      </trkpt>
      <trkpt lat="59.8508543" lon="17.6428768">
        <ele>7.82788</ele>
        <time>2014-06-29T10:53:46Z</time>
      </trkpt>
      <trkpt lat="59.8508725" lon="17.6428416">
        <ele>7.34717</ele>
        <time>2014-06-29T10:53:47Z</time>
      </trkpt>
      <trkpt lat="59.8508933" lon="17.6428108">
        <ele>7.82788</ele>
        <time>2014-06-29T10:53:48Z</time>
      </trkpt>
      <trkpt lat="59.850913" lon="17.6427815">
        <ele>7.82788</ele>
        <time>2014-06-29T10:53:49Z</time>
      </trkpt>
      <trkpt lat="59.8509343" lon="17.6427544">
        <ele>8.30859</ele>
        <time>2014-06-29T10:53:50Z</time>
      </trkpt>
      <trkpt lat="59.8509507" lon="17.6427143">
        <ele>7.82788</ele>
        <time>2014-06-29T10:53:51Z</time>
      </trkpt>
      <trkpt lat="59.8509705" lon="17.6426727">
        <ele>8.30859</ele>
        <time>2014-06-29T10:53:52Z</time>
      </trkpt>
      <trkpt lat="59.8509968" lon="17.6426387">
        <ele>9.2699</ele>
        <time>2014-06-29T10:53:53Z</time>
      </trkpt>
      <trkpt lat="59.8510202" lon="17.6426078">
        <ele>9.2699</ele>
        <time>2014-06-29T10:53:54Z</time>
      </trkpt>
      <trkpt lat="59.8510409" lon="17.6425782">
        <ele>8.78918</ele>
        <time>2014-06-29T10:53:55Z</time>
      </trkpt>
      <trkpt lat="59.8510617" lon="17.642546">
        <ele>8.78918</ele>
        <time>2014-06-29T10:53:56Z</time>
      </trkpt>
      <trkpt lat="59.8510879" lon="17.642516">
        <ele>8.78918</ele>
        <time>2014-06-29T10:53:57Z</time>
      </trkpt>
      <trkpt lat="59.8511141" lon="17.6424854">
        <ele>8.78918</ele>
        <time>2014-06-29T10:53:58Z</time>
      </trkpt>
      <trkpt lat="59.8511413" lon="17.642461">
        <ele>9.2699</ele>
        <time>2014-06-29T10:53:59Z</time>
      </trkpt>
      <trkpt lat="59.8511659" lon="17.6424366">
        <ele>8.78918</ele>
        <time>2014-06-29T10:54:00Z</time>
      </trkpt>
      <trkpt lat="59.8511933" lon="17.6424216">
        <ele>8.78918</ele>
        <time>2014-06-29T10:54:01Z</time>
      </trkpt>
      <trkpt lat="59.8512197" lon="17.6424015">
        <ele>8.30859</ele>
        <time>2014-06-29T10:54:02Z</time>
      </trkpt>
      <trkpt lat="59.8512445" lon="17.6423786">
        <ele>7.82788</ele>
        <time>2014-06-29T10:54:03Z</time>
      </trkpt>
      <trkpt lat="59.8512689" lon="17.6423544">
        <ele>7.82788</ele>
        <time>2014-06-29T10:54:04Z</time>
      </trkpt>
      <trkpt lat="59.851293" lon="17.6423332">
        <ele>7.82788</ele>
        <time>2014-06-29T10:54:05Z</time>
      </trkpt>
      <trkpt lat="59.8513161" lon="17.6423141">
        <ele>7.82788</ele>
        <time>2014-06-29T10:54:06Z</time>
      </trkpt>
      <trkpt lat="59.85134" lon="17.6422889">
        <ele>7.34717</ele>
        <time>2014-06-29T10:54:07Z</time>
      </trkpt>
      <trkpt lat="59.851365" lon="17.6422658">
        <ele>6.86646</ele>
        <time>2014-06-29T10:54:08Z</time>
      </trkpt>
      <trkpt lat="59.8513868" lon="17.6422384">
        <ele>6.86646</ele>
        <time>2014-06-29T10:54:09Z</time>
      </trkpt>
      <trkpt lat="59.8514073" lon="17.6422034">
        <ele>7.82788</ele>
        <time>2014-06-29T10:54:10Z</time>
      </trkpt>
      <trkpt lat="59.8514217" lon="17.6421638">
        <ele>7.82788</ele>
        <time>2014-06-29T10:54:11Z</time>
      </trkpt>
      <trkpt lat="59.851442" lon="17.6421311">
        <ele>8.30859</ele>
        <time>2014-06-29T10:54:12Z</time>
      </trkpt>
      <trkpt lat="59.8514637" lon="17.642099">
        <ele>8.30859</ele>
        <time>2014-06-29T10:54:13Z</time>
      </trkpt>
      <trkpt lat="59.8514842" lon="17.6420643">
        <ele>8.30859</ele>
        <time>2014-06-29T10:54:14Z</time>
      </trkpt>
      <trkpt lat="59.8515039" lon="17.6420347">
        <ele>8.78918</ele>
        <time>2014-06-29T10:54:15Z</time>
      </trkpt>
      <trkpt lat="59.8515254" lon="17.6420064">
        <ele>9.2699</ele>
        <time>2014-06-29T10:54:16Z</time>
      </trkpt>
      <trkpt lat="59.8515465" lon="17.6419752">
        <ele>9.2699</ele>
        <time>2014-06-29T10:54:17Z</time>
      </trkpt>
      <trkpt lat="59.8515643" lon="17.6419384">
        <ele>9.75061</ele>
        <time>2014-06-29T10:54:18Z</time>
      </trkpt>
      <trkpt lat="59.8515812" lon="17.6418888">
        <ele>9.2699</ele>
        <time>2014-06-29T10:54:19Z</time>
      </trkpt>
      <trkpt lat="59.8516059" lon="17.6418457">
        <ele>9.2699</ele>
        <time>2014-06-29T10:54:20Z</time>
      </trkpt>
      <trkpt lat="59.8516288" lon="17.641803">
        <ele>8.78918</ele>
        <time>2014-06-29T10:54:21Z</time>
      </trkpt>
      <trkpt lat="59.8516465" lon="17.641761">
        <ele>8.30859</ele>
        <time>2014-06-29T10:54:22Z</time>
      </trkpt>
      <trkpt lat="59.8516655" lon="17.641718">
        <ele>8.30859</ele>
        <time>2014-06-29T10:54:23Z</time>
      </trkpt>
      <trkpt lat="59.8516832" lon="17.6416819">
        <ele>8.30859</ele>
        <time>2014-06-29T10:54:24Z</time>
      </trkpt>
      <trkpt lat="59.8517033" lon="17.64165">
        <ele>7.82788</ele>
        <time>2014-06-29T10:54:25Z</time>
      </trkpt>
      <trkpt lat="59.851725" lon="17.6416254">
        <ele>8.30859</ele>
        <time>2014-06-29T10:54:26Z</time>
      </trkpt>
      <trkpt lat="59.8517449" lon="17.6416017">
        <ele>7.82788</ele>
        <time>2014-06-29T10:54:27Z</time>
      </trkpt>
      <trkpt lat="59.8517684" lon="17.6415799">
        <ele>8.30859</ele>
        <time>2014-06-29T10:54:28Z</time>
      </trkpt>
      <trkpt lat="59.8517895" lon="17.641555">
        <ele>8.30859</ele>
        <time>2014-06-29T10:54:29Z</time>
      </trkpt>
      <trkpt lat="59.8518107" lon="17.6415258">
        <ele>8.78918</ele>
        <time>2014-06-29T10:54:30Z</time>
      </trkpt>
      <trkpt lat="59.8518315" lon="17.6414919">
        <ele>9.2699</ele>
        <time>2014-06-29T10:54:31Z</time>
      </trkpt>
      <trkpt lat="59.8518533" lon="17.6414618">
        <ele>9.75061</ele>
        <time>2014-06-29T10:54:32Z</time>
      </trkpt>
      <trkpt lat="59.8518771" lon="17.6414412">
        <ele>9.75061</ele>
        <time>2014-06-29T10:54:33Z</time>
      </trkpt>
      <trkpt lat="59.8519001" lon="17.6414245">
        <ele>9.75061</ele>
        <time>2014-06-29T10:54:34Z</time>
      </trkpt>
      <trkpt lat="59.85192" lon="17.6414001">
        <ele>9.75061</ele>
        <time>2014-06-29T10:54:35Z</time>
      </trkpt>
      <trkpt lat="59.8519407" lon="17.6413772">
        <ele>9.75061</ele>
        <time>2014-06-29T10:54:36Z</time>
      </trkpt>
      <trkpt lat="59.851963" lon="17.6413504">
        <ele>10.2312</ele>
        <time>2014-06-29T10:54:37Z</time>
      </trkpt>
      <trkpt lat="59.8520131" lon="17.6413057">
        <ele>10.7118</ele>
        <time>2014-06-29T10:54:39Z</time>
      </trkpt>
      <trkpt lat="59.8520372" lon="17.6412842">
        <ele>11.1925</ele>
        <time>2014-06-29T10:54:40Z</time>
      </trkpt>
      <trkpt lat="59.8520609" lon="17.6412571">
        <ele>11.6732</ele>
        <time>2014-06-29T10:54:41Z</time>
      </trkpt>
      <trkpt lat="59.8520863" lon="17.6412322">
        <ele>12.1538</ele>
        <time>2014-06-29T10:54:42Z</time>
      </trkpt>
      <trkpt lat="59.8521138" lon="17.6412064">
        <ele>12.6344</ele>
        <time>2014-06-29T10:54:43Z</time>
      </trkpt>
      <trkpt lat="59.8521437" lon="17.6411791">
        <ele>13.1151</ele>
        <time>2014-06-29T10:54:44Z</time>
      </trkpt>
      <trkpt lat="59.8521702" lon="17.6411536">
        <ele>13.5958</ele>
        <time>2014-06-29T10:54:45Z</time>
      </trkpt>
      <trkpt lat="59.8521973" lon="17.6411355">
        <ele>14.0764</ele>
        <time>2014-06-29T10:54:46Z</time>
      </trkpt>
      <trkpt lat="59.852227" lon="17.6411226">
        <ele>14.557</ele>
        <time>2014-06-29T10:54:47Z</time>
      </trkpt>
      <trkpt lat="59.8522555" lon="17.6411019">
        <ele>14.557</ele>
        <time>2014-06-29T10:54:48Z</time>
      </trkpt>
      <trkpt lat="59.8522898" lon="17.6410811">
        <ele>15.0377</ele>
        <time>2014-06-29T10:54:49Z</time>
      </trkpt>
      <trkpt lat="59.8523223" lon="17.641063">
        <ele>15.5184</ele>
        <time>2014-06-29T10:54:50Z</time>
      </trkpt>
      <trkpt lat="59.8523508" lon="17.6410455">
        <ele>15.0377</ele>
        <time>2014-06-29T10:54:51Z</time>
      </trkpt>
      <trkpt lat="59.8523728" lon="17.6410214">
        <ele>15.5184</ele>
        <time>2014-06-29T10:54:52Z</time>
      </trkpt>
      <trkpt lat="59.8523915" lon="17.6409961">
        <ele>15.0377</ele>
        <time>2014-06-29T10:54:53Z</time>
      </trkpt>
      <trkpt lat="59.8524132" lon="17.6409726">
        <ele>15.0377</ele>
        <time>2014-06-29T10:54:54Z</time>
      </trkpt>
      <trkpt lat="59.8524333" lon="17.6409521">
        <ele>15.5184</ele>
        <time>2014-06-29T10:54:55Z</time>
      </trkpt>
      <trkpt lat="59.8524515" lon="17.6409241">
        <ele>15.0377</ele>
        <time>2014-06-29T10:54:56Z</time>
      </trkpt>
      <trkpt lat="59.8524695" lon="17.6409044">
        <ele>14.557</ele>
        <time>2014-06-29T10:54:57Z</time>
      </trkpt>
      <trkpt lat="59.8524928" lon="17.6408842">
        <ele>15.0377</ele>
        <time>2014-06-29T10:54:58Z</time>
      </trkpt>
      <trkpt lat="59.8525131" lon="17.6408531">
        <ele>14.557</ele>
        <time>2014-06-29T10:54:59Z</time>
      </trkpt>
      <trkpt lat="59.8525327" lon="17.6408123">
        <ele>14.0764</ele>
        <time>2014-06-29T10:55:00Z</time>
      </trkpt>
      <trkpt lat="59.852552" lon="17.6407775">
        <ele>14.557</ele>
        <time>2014-06-29T10:55:01Z</time>
      </trkpt>
      <trkpt lat="59.8525691" lon="17.6407408">
        <ele>14.0764</ele>
        <time>2014-06-29T10:55:02Z</time>
      </trkpt>
      <trkpt lat="59.8525882" lon="17.6407013">
        <ele>14.0764</ele>
        <time>2014-06-29T10:55:03Z</time>
      </trkpt>
      <trkpt lat="59.8526099" lon="17.6406614">
        <ele>13.5958</ele>
        <time>2014-06-29T10:55:04Z</time>
      </trkpt>
      <trkpt lat="59.8526313" lon="17.6406263">
        <ele>13.1151</ele>
        <time>2014-06-29T10:55:05Z</time>
      </trkpt>
      <trkpt lat="59.8526544" lon="17.6406014">
        <ele>12.6344</ele>
        <time>2014-06-29T10:55:06Z</time>
      </trkpt>
      <trkpt lat="59.852683" lon="17.6405737">
        <ele>13.1151</ele>
        <time>2014-06-29T10:55:07Z</time>
      </trkpt>
      <trkpt lat="59.8527105" lon="17.6405487">
        <ele>12.6344</ele>
        <time>2014-06-29T10:55:08Z</time>
      </trkpt>
      <trkpt lat="59.8527359" lon="17.640532">
        <ele>12.6344</ele>
        <time>2014-06-29T10:55:09Z</time>
      </trkpt>
      <trkpt lat="59.8527603" lon="17.6405129">
        <ele>11.6732</ele>
        <time>2014-06-29T10:55:10Z</time>
      </trkpt>
      <trkpt lat="59.8527857" lon="17.6404864">
        <ele>11.6732</ele>
        <time>2014-06-29T10:55:11Z</time>
      </trkpt>
      <trkpt lat="59.8528127" lon="17.6404611">
        <ele>11.1925</ele>
        <time>2014-06-29T10:55:12Z</time>
      </trkpt>
      <trkpt lat="59.852836" lon="17.6404358">
        <ele>10.2312</ele>
        <time>2014-06-29T10:55:13Z</time>
      </trkpt>
      <trkpt lat="59.8528607" lon="17.6404108">
        <ele>10.2312</ele>
        <time>2014-06-29T10:55:14Z</time>
      </trkpt>
      <trkpt lat="59.8528869" lon="17.6403909">
        <ele>10.2312</ele>
        <time>2014-06-29T10:55:15Z</time>
      </trkpt>
      <trkpt lat="59.8529162" lon="17.6403741">
        <ele>10.2312</ele>
        <time>2014-06-29T10:55:16Z</time>
      </trkpt>
      <trkpt lat="59.8529404" lon="17.6403536">
        <ele>10.2312</ele>
        <time>2014-06-29T10:55:17Z</time>
      </trkpt>
      <trkpt lat="59.8529639" lon="17.640332">
        <ele>9.75061</ele>
        <time>2014-06-29T10:55:18Z</time>
      </trkpt>
      <trkpt lat="59.8529875" lon="17.6403046">
        <ele>9.75061</ele>
        <time>2014-06-29T10:55:19Z</time>
      </trkpt>
      <trkpt lat="59.8530115" lon="17.640279">
        <ele>9.2699</ele>
        <time>2014-06-29T10:55:20Z</time>
      </trkpt>
      <trkpt lat="59.8530302" lon="17.6402492">
        <ele>8.78918</ele>
        <time>2014-06-29T10:55:21Z</time>
      </trkpt>
      <trkpt lat="59.8530472" lon="17.6402234">
        <ele>8.78918</ele>
        <time>2014-06-29T10:55:22Z</time>
      </trkpt>
      <trkpt lat="59.8530621" lon="17.6401993">
        <ele>8.30859</ele>
        <time>2014-06-29T10:55:23Z</time>
      </trkpt>
      <trkpt lat="59.8530781" lon="17.6401769">
        <ele>7.82788</ele>
        <time>2014-06-29T10:55:24Z</time>
      </trkpt>
      <trkpt lat="59.8530962" lon="17.6401597">
        <ele>7.34717</ele>
        <time>2014-06-29T10:55:25Z</time>
      </trkpt>
      <trkpt lat="59.8531151" lon="17.6401443">
        <ele>7.34717</ele>
        <time>2014-06-29T10:55:26Z</time>
      </trkpt>
      <trkpt lat="59.8531368" lon="17.640122">
        <ele>7.82788</ele>
        <time>2014-06-29T10:55:27Z</time>
      </trkpt>
      <trkpt lat="59.8531568" lon="17.6401046">
        <ele>8.30859</ele>
        <time>2014-06-29T10:55:28Z</time>
      </trkpt>
      <trkpt lat="59.8531767" lon="17.6400818">
        <ele>8.78918</ele>
        <time>2014-06-29T10:55:29Z</time>
      </trkpt>
      <trkpt lat="59.8531911" lon="17.6400449">
        <ele>9.2699</ele>
        <time>2014-06-29T10:55:30Z</time>
      </trkpt>
      <trkpt lat="59.8532047" lon="17.6400056">
        <ele>9.2699</ele>
        <time>2014-06-29T10:55:31Z</time>
      </trkpt>
      <trkpt lat="59.8532176" lon="17.6399561">
        <ele>9.2699</ele>
        <time>2014-06-29T10:55:32Z</time>
      </trkpt>
      <trkpt lat="59.853227" lon="17.6399042">
        <ele>9.2699</ele>
        <time>2014-06-29T10:55:33Z</time>
      </trkpt>
      <trkpt lat="59.8532419" lon="17.6398577">
        <ele>9.75061</ele>
        <time>2014-06-29T10:55:34Z</time>
      </trkpt>
      <trkpt lat="59.8532663" lon="17.6398165">
        <ele>10.7118</ele>
        <time>2014-06-29T10:55:35Z</time>
      </trkpt>
      <trkpt lat="59.8532877" lon="17.639771">
        <ele>12.1538</ele>
        <time>2014-06-29T10:55:36Z</time>
      </trkpt>
      <trkpt lat="59.8533093" lon="17.63973">
        <ele>12.6344</ele>
        <time>2014-06-29T10:55:37Z</time>
      </trkpt>
      <trkpt lat="59.8533387" lon="17.6396959">
        <ele>14.557</ele>
        <time>2014-06-29T10:55:38Z</time>
      </trkpt>
      <trkpt lat="59.8533647" lon="17.6396745">
        <ele>15.0377</ele>
        <time>2014-06-29T10:55:39Z</time>
      </trkpt>
      <trkpt lat="59.8533889" lon="17.639646">
        <ele>15.5184</ele>
        <time>2014-06-29T10:55:40Z</time>
      </trkpt>
      <trkpt lat="59.8534215" lon="17.6396043">
        <ele>17.4412</ele>
        <time>2014-06-29T10:55:41Z</time>
      </trkpt>
      <trkpt lat="59.853443" lon="17.6395626">
        <ele>17.9218</ele>
        <time>2014-06-29T10:55:42Z</time>
      </trkpt>
      <trkpt lat="59.8534576" lon="17.639527">
        <ele>17.4412</ele>
        <time>2014-06-29T10:55:43Z</time>
      </trkpt>
      <trkpt lat="59.8534709" lon="17.6394868">
        <ele>17.4412</ele>
        <time>2014-06-29T10:55:44Z</time>
      </trkpt>
      <trkpt lat="59.8534865" lon="17.6394389">
        <ele>17.9218</ele>
        <time>2014-06-29T10:55:45Z</time>
      </trkpt>
      <trkpt lat="59.8535111" lon="17.6393867">
        <ele>15.5184</ele>
        <time>2014-06-29T10:55:46Z</time>
      </trkpt>
      <trkpt lat="59.8535367" lon="17.6393389">
        <ele>16.4797</ele>
        <time>2014-06-29T10:55:47Z</time>
      </trkpt>
      <trkpt lat="59.8535562" lon="17.6393034">
        <ele>17.4412</ele>
        <time>2014-06-29T10:55:48Z</time>
      </trkpt>
      <trkpt lat="59.8535854" lon="17.6392648">
        <ele>18.8831</ele>
        <time>2014-06-29T10:55:49Z</time>
      </trkpt>
      <trkpt lat="59.8536077" lon="17.6392272">
        <ele>18.8831</ele>
        <time>2014-06-29T10:55:50Z</time>
      </trkpt>
      <trkpt lat="59.8536274" lon="17.6392057">
        <ele>18.8831</ele>
        <time>2014-06-29T10:55:51Z</time>
      </trkpt>
      <trkpt lat="59.8536477" lon="17.639176">
        <ele>19.3638</ele>
        <time>2014-06-29T10:55:52Z</time>
      </trkpt>
      <trkpt lat="59.8536669" lon="17.6391426">
        <ele>18.8831</ele>
        <time>2014-06-29T10:55:53Z</time>
      </trkpt>
      <trkpt lat="59.853684" lon="17.6391074">
        <ele>16.9604</ele>
        <time>2014-06-29T10:55:54Z</time>
      </trkpt>
      <trkpt lat="59.8537072" lon="17.6390824">
        <ele>16.4797</ele>
        <time>2014-06-29T10:55:55Z</time>
      </trkpt>
      <trkpt lat="59.8537297" lon="17.6390586">
        <ele>15.5184</ele>
        <time>2014-06-29T10:55:56Z</time>
      </trkpt>
      <trkpt lat="59.8537502" lon="17.6390306">
        <ele>14.557</ele>
        <time>2014-06-29T10:55:57Z</time>
      </trkpt>
      <trkpt lat="59.8537712" lon="17.6390037">
        <ele>14.557</ele>
        <time>2014-06-29T10:55:58Z</time>
      </trkpt>
      <trkpt lat="59.8537971" lon="17.638977">
        <ele>14.557</ele>
        <time>2014-06-29T10:55:59Z</time>
      </trkpt>
      <trkpt lat="59.853818" lon="17.638949">
        <ele>14.557</ele>
        <time>2014-06-29T10:56:00Z</time>
      </trkpt>
      <trkpt lat="59.8538346" lon="17.6389218">
        <ele>14.0764</ele>
        <time>2014-06-29T10:56:01Z</time>
      </trkpt>
      <trkpt lat="59.8538574" lon="17.6389068">
        <ele>13.5958</ele>
        <time>2014-06-29T10:56:02Z</time>
      </trkpt>
      <trkpt lat="59.8538791" lon="17.6388912">
        <ele>12.6344</ele>
        <time>2014-06-29T10:56:03Z</time>
      </trkpt>
      <trkpt lat="59.8539018" lon="17.6388641">
        <ele>12.6344</ele>
        <time>2014-06-29T10:56:04Z</time>
      </trkpt>
      <trkpt lat="59.8539232" lon="17.6388338">
        <ele>12.1538</ele>
        <time>2014-06-29T10:56:05Z</time>
      </trkpt>
      <trkpt lat="59.8539445" lon="17.6388048">
        <ele>11.6732</ele>
        <time>2014-06-29T10:56:06Z</time>
      </trkpt>
      <trkpt lat="59.8539944" lon="17.6387485">
        <ele>12.1538</ele>
        <time>2014-06-29T10:56:08Z</time>
      </trkpt>
      <trkpt lat="59.8540214" lon="17.6387237">
        <ele>12.6344</ele>
        <time>2014-06-29T10:56:09Z</time>
      </trkpt>
      <trkpt lat="59.854048" lon="17.6387076">
        <ele>12.6344</ele>
        <time>2014-06-29T10:56:10Z</time>
      </trkpt>
      <trkpt lat="59.8540765" lon="17.6386988">
        <ele>12.1538</ele>
        <time>2014-06-29T10:56:11Z</time>
      </trkpt>
      <trkpt lat="59.8541072" lon="17.6386977">
        <ele>12.1538</ele>
        <time>2014-06-29T10:56:12Z</time>
      </trkpt>
      <trkpt lat="59.8541392" lon="17.6387077">
        <ele>12.6344</ele>
        <time>2014-06-29T10:56:13Z</time>
      </trkpt>
      <trkpt lat="59.8541647" lon="17.6387253">
        <ele>12.6344</ele>
        <time>2014-06-29T10:56:14Z</time>
      </trkpt>
      <trkpt lat="59.8541893" lon="17.6387563">
        <ele>13.1151</ele>
        <time>2014-06-29T10:56:15Z</time>
      </trkpt>
      <trkpt lat="59.8542066" lon="17.6388024">
        <ele>13.1151</ele>
        <time>2014-06-29T10:56:16Z</time>
      </trkpt>
      <trkpt lat="59.8542203" lon="17.6388537">
        <ele>13.1151</ele>
        <time>2014-06-29T10:56:17Z</time>
      </trkpt>
      <trkpt lat="59.8542335" lon="17.6389065">
        <ele>13.1151</ele>
        <time>2014-06-29T10:56:18Z</time>
      </trkpt>
      <trkpt lat="59.8542489" lon="17.6389511">
        <ele>13.1151</ele>
        <time>2014-06-29T10:56:19Z</time>
      </trkpt>
      <trkpt lat="59.854266" lon="17.6389982">
        <ele>13.1151</ele>
        <time>2014-06-29T10:56:20Z</time>
      </trkpt>
      <trkpt lat="59.8542784" lon="17.6390411">
        <ele>13.5958</ele>
        <time>2014-06-29T10:56:21Z</time>
      </trkpt>
      <trkpt lat="59.8542889" lon="17.6390872">
        <ele>13.1151</ele>
        <time>2014-06-29T10:56:22Z</time>
      </trkpt>
      <trkpt lat="59.8542987" lon="17.6391354">
        <ele>12.6344</ele>
        <time>2014-06-29T10:56:23Z</time>
      </trkpt>
      <trkpt lat="59.8543085" lon="17.6391805">
        <ele>12.6344</ele>
        <time>2014-06-29T10:56:24Z</time>
      </trkpt>
      <trkpt lat="59.8543182" lon="17.6392302">
        <ele>12.1538</ele>
        <time>2014-06-29T10:56:25Z</time>
      </trkpt>
      <trkpt lat="59.8543307" lon="17.6392851">
        <ele>11.6732</ele>
        <time>2014-06-29T10:56:26Z</time>
      </trkpt>
      <trkpt lat="59.8543448" lon="17.6393359">
        <ele>12.1538</ele>
        <time>2014-06-29T10:56:27Z</time>
      </trkpt>
      <trkpt lat="59.8543596" lon="17.6393881">
        <ele>11.6732</ele>
        <time>2014-06-29T10:56:28Z</time>
      </trkpt>
      <trkpt lat="59.8543736" lon="17.6394388">
        <ele>11.6732</ele>
        <time>2014-06-29T10:56:29Z</time>
      </trkpt>
      <trkpt lat="59.8543804" lon="17.6394794">
        <ele>10.7118</ele>
        <time>2014-06-29T10:56:30Z</time>
      </trkpt>
      <trkpt lat="59.8543881" lon="17.6395154">
        <ele>11.1925</ele>
        <time>2014-06-29T10:56:31Z</time>
      </trkpt>
      <trkpt lat="59.8543964" lon="17.6395546">
        <ele>11.6732</ele>
        <time>2014-06-29T10:56:32Z</time>
      </trkpt>
      <trkpt lat="59.8544044" lon="17.6395991">
        <ele>11.6732</ele>
        <time>2014-06-29T10:56:33Z</time>
      </trkpt>
      <trkpt lat="59.854414" lon="17.6396363">
        <ele>12.1538</ele>
        <time>2014-06-29T10:56:34Z</time>
      </trkpt>
      <trkpt lat="59.8544247" lon="17.6396774">
        <ele>12.1538</ele>
        <time>2014-06-29T10:56:35Z</time>
      </trkpt>
      <trkpt lat="59.8544299" lon="17.6397228">
        <ele>11.6732</ele>
        <time>2014-06-29T10:56:36Z</time>
      </trkpt>
      <trkpt lat="59.8544355" lon="17.6397682">
        <ele>11.6732</ele>
        <time>2014-06-29T10:56:37Z</time>
      </trkpt>
      <trkpt lat="59.8544457" lon="17.6398155">
        <ele>12.1538</ele>
        <time>2014-06-29T10:56:38Z</time>
      </trkpt>
      <trkpt lat="59.8544588" lon="17.6398684">
        <ele>11.6732</ele>
        <time>2014-06-29T10:56:39Z</time>
      </trkpt>
      <trkpt lat="59.8544702" lon="17.6399179">
        <ele>10.7118</ele>
        <time>2014-06-29T10:56:40Z</time>
      </trkpt>
      <trkpt lat="59.8544826" lon="17.6399684">
        <ele>11.1925</ele>
        <time>2014-06-29T10:56:41Z</time>
      </trkpt>
      <trkpt lat="59.8544965" lon="17.6400259">
        <ele>12.1538</ele>
        <time>2014-06-29T10:56:42Z</time>
      </trkpt>
      <trkpt lat="59.8545084" lon="17.6400839">
        <ele>11.6732</ele>
        <time>2014-06-29T10:56:43Z</time>
      </trkpt>
      <trkpt lat="59.8545189" lon="17.640142">
        <ele>11.1925</ele>
        <time>2014-06-29T10:56:44Z</time>
      </trkpt>
      <trkpt lat="59.8545309" lon="17.6402028">
        <ele>10.7118</ele>
        <time>2014-06-29T10:56:45Z</time>
      </trkpt>
      <trkpt lat="59.8545422" lon="17.6402595">
        <ele>10.2312</ele>
        <time>2014-06-29T10:56:46Z</time>
      </trkpt>
      <trkpt lat="59.8545531" lon="17.6403154">
        <ele>10.2312</ele>
        <time>2014-06-29T10:56:47Z</time>
      </trkpt>
      <trkpt lat="59.854566" lon="17.6403776">
        <ele>10.7118</ele>
        <time>2014-06-29T10:56:48Z</time>
      </trkpt>
      <trkpt lat="59.8545827" lon="17.640438">
        <ele>10.7118</ele>
        <time>2014-06-29T10:56:49Z</time>
      </trkpt>
      <trkpt lat="59.8545981" lon="17.6404886">
        <ele>10.7118</ele>
        <time>2014-06-29T10:56:50Z</time>
      </trkpt>
      <trkpt lat="59.8546127" lon="17.6405438">
        <ele>10.7118</ele>
        <time>2014-06-29T10:56:51Z</time>
      </trkpt>
      <trkpt lat="59.8546303" lon="17.640604">
        <ele>11.1925</ele>
        <time>2014-06-29T10:56:52Z</time>
      </trkpt>
      <trkpt lat="59.8546447" lon="17.6406665">
        <ele>11.6732</ele>
        <time>2014-06-29T10:56:53Z</time>
      </trkpt>
      <trkpt lat="59.8546582" lon="17.6407257">
        <ele>12.1538</ele>
        <time>2014-06-29T10:56:54Z</time>
      </trkpt>
      <trkpt lat="59.8546737" lon="17.6407847">
        <ele>12.6344</ele>
        <time>2014-06-29T10:56:55Z</time>
      </trkpt>
      <trkpt lat="59.8546865" lon="17.6408421">
        <ele>12.1538</ele>
        <time>2014-06-29T10:56:56Z</time>
      </trkpt>
      <trkpt lat="59.8546987" lon="17.6409012">
        <ele>13.1151</ele>
        <time>2014-06-29T10:56:57Z</time>
      </trkpt>
      <trkpt lat="59.8547018" lon="17.6409645">
        <ele>13.1151</ele>
        <time>2014-06-29T10:56:58Z</time>
      </trkpt>
      <trkpt lat="59.8546934" lon="17.6410221">
        <ele>12.6344</ele>
        <time>2014-06-29T10:56:59Z</time>
      </trkpt>
      <trkpt lat="59.8546839" lon="17.6410801">
        <ele>12.1538</ele>
        <time>2014-06-29T10:57:00Z</time>
      </trkpt>
      <trkpt lat="59.8546769" lon="17.6411358">
        <ele>12.1538</ele>
        <time>2014-06-29T10:57:01Z</time>
      </trkpt>
      <trkpt lat="59.8546607" lon="17.6411893">
        <ele>11.1925</ele>
        <time>2014-06-29T10:57:02Z</time>
      </trkpt>
      <trkpt lat="59.8546297" lon="17.6412406">
        <ele>9.2699</ele>
        <time>2014-06-29T10:57:03Z</time>
      </trkpt>
      <trkpt lat="59.8545955" lon="17.6412835">
        <ele>6.38586</ele>
        <time>2014-06-29T10:57:04Z</time>
      </trkpt>
      <trkpt lat="59.8545619" lon="17.6413152">
        <ele>4.46326</ele>
        <time>2014-06-29T10:57:05Z</time>
      </trkpt>
      <trkpt lat="59.8545287" lon="17.6413353">
        <ele>2.54065</ele>
        <time>2014-06-29T10:57:06Z</time>
      </trkpt>
      <trkpt lat="59.8544967" lon="17.6413531">
        <ele>1.57935</ele>
        <time>2014-06-29T10:57:07Z</time>
      </trkpt>
      <trkpt lat="59.8544708" lon="17.6413734">
        <ele>1.09863</ele>
        <time>2014-06-29T10:57:08Z</time>
      </trkpt>
      <trkpt lat="59.8544441" lon="17.6413934">
        <ele>0</ele>
        <time>2014-06-29T10:57:09Z</time>
      </trkpt>
      <trkpt lat="59.8544174" lon="17.6414069">
        <ele>0</ele>
        <time>2014-06-29T10:57:10Z</time>
      </trkpt>
      <trkpt lat="59.8543882" lon="17.641425">
        <ele>0</ele>
        <time>2014-06-29T10:57:11Z</time>
      </trkpt>
      <trkpt lat="59.8543566" lon="17.6414411">
        <ele>0</ele>
        <time>2014-06-29T10:57:12Z</time>
      </trkpt>
      <trkpt lat="59.8543334" lon="17.6414587">
        <ele>0</ele>
        <time>2014-06-29T10:57:13Z</time>
      </trkpt>
      <trkpt lat="59.8543173" lon="17.6414778">
        <ele>0</ele>
        <time>2014-06-29T10:57:14Z</time>
      </trkpt>
      <trkpt lat="59.8542908" lon="17.6415001">
        <ele>0</ele>
        <time>2014-06-29T10:57:15Z</time>
      </trkpt>
      <trkpt lat="59.8542634" lon="17.6415205">
        <ele>0</ele>
        <time>2014-06-29T10:57:16Z</time>
      </trkpt>
      <trkpt lat="59.854234" lon="17.6415526">
        <ele>0</ele>
        <time>2014-06-29T10:57:17Z</time>
      </trkpt>
      <trkpt lat="59.8542075" lon="17.6415885">
        <ele>0</ele>
        <time>2014-06-29T10:57:18Z</time>
      </trkpt>
      <trkpt lat="59.8541822" lon="17.641625">
        <ele>0</ele>
        <time>2014-06-29T10:57:19Z</time>
      </trkpt>
      <trkpt lat="59.8541541" lon="17.641652">
        <ele>0</ele>
        <time>2014-06-29T10:57:20Z</time>
      </trkpt>
      <trkpt lat="59.8541273" lon="17.6416768">
        <ele>0</ele>
        <time>2014-06-29T10:57:21Z</time>
      </trkpt>
      <trkpt lat="59.8540997" lon="17.6417058">
        <ele>0</ele>
        <time>2014-06-29T10:57:22Z</time>
      </trkpt>
      <trkpt lat="59.8540713" lon="17.6417224">
        <ele>0</ele>
        <time>2014-06-29T10:57:23Z</time>
      </trkpt>
      <trkpt lat="59.8540454" lon="17.6417311">
        <ele>0</ele>
        <time>2014-06-29T10:57:24Z</time>
      </trkpt>
      <trkpt lat="59.8540179" lon="17.6417359">
        <ele>0</ele>
        <time>2014-06-29T10:57:25Z</time>
      </trkpt>
      <trkpt lat="59.8539909" lon="17.6417387">
        <ele>0</ele>
        <time>2014-06-29T10:57:26Z</time>
      </trkpt>
      <trkpt lat="59.8539636" lon="17.641745">
        <ele>0</ele>
        <time>2014-06-29T10:57:27Z</time>
      </trkpt>
      <trkpt lat="59.853933" lon="17.6417509">
        <ele>0</ele>
        <time>2014-06-29T10:57:28Z</time>
      </trkpt>
      <trkpt lat="59.8539048" lon="17.6417571">
        <ele>0</ele>
        <time>2014-06-29T10:57:29Z</time>
      </trkpt>
      <trkpt lat="59.8538753" lon="17.6417699">
        <ele>0</ele>
        <time>2014-06-29T10:57:30Z</time>
      </trkpt>
      <trkpt lat="59.8538444" lon="17.6417878">
        <ele>0</ele>
        <time>2014-06-29T10:57:31Z</time>
      </trkpt>
      <trkpt lat="59.8538103" lon="17.6418095">
        <ele>0</ele>
        <time>2014-06-29T10:57:32Z</time>
      </trkpt>
      <trkpt lat="59.8537761" lon="17.6418343">
        <ele>0</ele>
        <time>2014-06-29T10:57:33Z</time>
      </trkpt>
      <trkpt lat="59.8537463" lon="17.6418565">
        <ele>0</ele>
        <time>2014-06-29T10:57:34Z</time>
      </trkpt>
      <trkpt lat="59.8537195" lon="17.6418788">
        <ele>0</ele>
        <time>2014-06-29T10:57:35Z</time>
      </trkpt>
      <trkpt lat="59.8536925" lon="17.6419079">
        <ele>0</ele>
        <time>2014-06-29T10:57:36Z</time>
      </trkpt>
      <trkpt lat="59.8536679" lon="17.6419431">
        <ele>0</ele>
        <time>2014-06-29T10:57:37Z</time>
      </trkpt>
      <trkpt lat="59.8536446" lon="17.6419789">
        <ele>0</ele>
        <time>2014-06-29T10:57:38Z</time>
      </trkpt>
      <trkpt lat="59.8536218" lon="17.6420098">
        <ele>0</ele>
        <time>2014-06-29T10:57:39Z</time>
      </trkpt>
      <trkpt lat="59.8536005" lon="17.6420409">
        <ele>0</ele>
        <time>2014-06-29T10:57:40Z</time>
      </trkpt>
      <trkpt lat="59.853575" lon="17.6420763">
        <ele>0</ele>
        <time>2014-06-29T10:57:41Z</time>
      </trkpt>
      <trkpt lat="59.8535465" lon="17.6421197">
        <ele>0</ele>
        <time>2014-06-29T10:57:42Z</time>
      </trkpt>
      <trkpt lat="59.8535179" lon="17.6421561">
        <ele>0</ele>
        <time>2014-06-29T10:57:43Z</time>
      </trkpt>
      <trkpt lat="59.8534892" lon="17.6421663">
        <ele>0</ele>
        <time>2014-06-29T10:57:44Z</time>
      </trkpt>
      <trkpt lat="59.8534611" lon="17.6421622">
        <ele>0</ele>
        <time>2014-06-29T10:57:45Z</time>
      </trkpt>
      <trkpt lat="59.8534314" lon="17.6421456">
        <ele>0</ele>
        <time>2014-06-29T10:57:46Z</time>
      </trkpt>
      <trkpt lat="59.853401" lon="17.6421227">
        <ele>0</ele>
        <time>2014-06-29T10:57:47Z</time>
      </trkpt>
      <trkpt lat="59.853373" lon="17.6420993">
        <ele>0</ele>
        <time>2014-06-29T10:57:48Z</time>
      </trkpt>
      <trkpt lat="59.853347" lon="17.6420807">
        <ele>0</ele>
        <time>2014-06-29T10:57:49Z</time>
      </trkpt>
      <trkpt lat="59.8533201" lon="17.6420633">
        <ele>0</ele>
        <time>2014-06-29T10:57:50Z</time>
      </trkpt>
      <trkpt lat="59.8532903" lon="17.6420503">
        <ele>0</ele>
        <time>2014-06-29T10:57:51Z</time>
      </trkpt>
      <trkpt lat="59.8532542" lon="17.6420487">
        <ele>0</ele>
        <time>2014-06-29T10:57:52Z</time>
      </trkpt>
      <trkpt lat="59.8532196" lon="17.6420501">
        <ele>0</ele>
        <time>2014-06-29T10:57:53Z</time>
      </trkpt>
      <trkpt lat="59.8531856" lon="17.6420408">
        <ele>0</ele>
        <time>2014-06-29T10:57:54Z</time>
      </trkpt>
      <trkpt lat="59.8531514" lon="17.6420178">
        <ele>0</ele>
        <time>2014-06-29T10:57:55Z</time>
      </trkpt>
      <trkpt lat="59.853113" lon="17.6420061">
        <ele>0</ele>
        <time>2014-06-29T10:57:56Z</time>
      </trkpt>
      <trkpt lat="59.8530755" lon="17.642003">
        <ele>0</ele>
        <time>2014-06-29T10:57:57Z</time>
      </trkpt>
      <trkpt lat="59.8530421" lon="17.6420005">
        <ele>0</ele>
        <time>2014-06-29T10:57:58Z</time>
      </trkpt>
      <trkpt lat="59.8530045" lon="17.6419995">
        <ele>0</ele>
        <time>2014-06-29T10:57:59Z</time>
      </trkpt>
      <trkpt lat="59.8529675" lon="17.6419967">
        <ele>0</ele>
        <time>2014-06-29T10:58:00Z</time>
      </trkpt>
      <trkpt lat="59.9792349" lon="17.7398723">
        <ele>71.2749</ele>
        <time>2014-06-29T13:23:39Z</time>
      </trkpt>
      <trkpt lat="59.9792111" lon="17.7398908">
        <ele>69.8329</ele>
        <time>2014-06-29T13:23:40Z</time>
      </trkpt>
      <trkpt lat="59.9792039" lon="17.7399141">
        <ele>70.3135</ele>
        <time>2014-06-29T13:23:41Z</time>
      </trkpt>
      <trkpt lat="59.9791951" lon="17.7399359">
        <ele>72.7169</ele>
        <time>2014-06-29T13:23:42Z</time>
      </trkpt>
      <trkpt lat="59.9792017" lon="17.7399562">
        <ele>75.1202</ele>
        <time>2014-06-29T13:23:43Z</time>
      </trkpt>
      <trkpt lat="59.9791915" lon="17.7399583">
        <ele>73.1976</ele>
        <time>2014-06-29T13:23:44Z</time>
      </trkpt>
      <trkpt lat="59.9791941" lon="17.7399583">
        <ele>73.1976</ele>
        <time>2014-06-29T13:23:45Z</time>
      </trkpt>
      <trkpt lat="59.9791916" lon="17.7399595">
        <ele>73.1976</ele>
        <time>2014-06-29T13:23:46Z</time>
      </trkpt>
      <trkpt lat="59.979179" lon="17.7399496">
        <ele>72.7169</ele>
        <time>2014-06-29T13:23:49Z</time>
      </trkpt>
      <trkpt lat="59.9791825" lon="17.7399406">
        <ele>72.7169</ele>
        <time>2014-06-29T13:23:50Z</time>
      </trkpt>
      <trkpt lat="59.9791749" lon="17.7399288">
        <ele>73.1976</ele>
        <time>2014-06-29T13:23:51Z</time>
      </trkpt>
      <trkpt lat="59.9791582" lon="17.7399355">
        <ele>74.1588</ele>
        <time>2014-06-29T13:23:52Z</time>
      </trkpt>
      <trkpt lat="59.9791551" lon="17.7399459">
        <ele>74.1588</ele>
        <time>2014-06-29T13:23:53Z</time>
      </trkpt>
      <trkpt lat="59.9791458" lon="17.739923">
        <ele>71.2749</ele>
        <time>2014-06-29T13:23:55Z</time>
      </trkpt>
    </trkseg>
  </trk>
</gpx>